[[{"header":{"parameterUnit":"m.s-1","parameterCategory":1,"la1":31.0,"la2":29.5877,"lo1":-88.7671,"lo2":-86.6584,"dy":0.0162,"dx":0.0185,"nx":115,"ny":88,"refTime":"2023-06-19T12:00:00:Z","depth":0,"parameterNumber":2,"parameterNumberName":"U-component_of_WINDS"},"data":[0.0,0.0,0.0,0.0,0.0,0.0,0.0,0.0,0.0,0.0,0.0,0.0,0.0,0.0,0.0,0.0,0.0,0.0,0.0,0.0,0.0,0.0,0.0,0.0,0.0,0.0,0.0,0.0,0.0,0.0,0.0,0.0,0.0,0.0,0.0,0.0,0.0,0.0,0.0,0.0,0.0,0.0,0.0,0.0,0.0,0.0,0.0,0.0,0.0,0.0,0.0,0.0,0.0,0.0,0.0,0.0,0.0,0.0,0.0,0.0,0.0,0.0,0.0,0.0,0.0,0.0,0.0,0.0,0.0,0.0,0.0,0.0,0.0,0.0,0.0,0.0,0.0,0.0,0.0,0.0,0.0,0.0,0.0,0.0,0.0,0.0,0.0,0.0,0.0,0.0,0.0,0.0,0.0,0.0,0.0,0.0,0.0,0.0,0.0,0.0,0.0,0.0,0.0,0.0,0.0,0.0,0.0,0.0,0.0,0.0,0.0,0.0,0.0,0.0,0.0,0.0,0.0,0.0,0.0,0.0,0.0,0.0,0.0,0.0,0.0,0.0,0.0,0.0,0.0,0.0,0.0,0.0,0.0,0.0,0.0,0.0,0.0,0.0,0.0,0.0,0.0,0.0,0.0,0.0,0.0,0.0,0.0,0.0,0.0,0.0,0.0,0.0,0.0,0.0,0.0,0.0,0.0,0.0,0.0,0.0,0.0,0.0,0.0,0.0,0.0,0.0,0.0,0.0,0.0,0.0,0.0,0.0,0.0,0.0,0.0,0.0,0.0,0.0,0.0,0.0,0.0,0.0,0.0,0.0,0.0,0.0,0.0,0.0,0.0,0.0,0.0,0.0,0.0,0.0,0.0,0.0,0.0,0.0,0.0,0.0,0.0,0.0,0.0,0.0,0.0,0.0,0.0,0.0,0.0,0.0,0.0,0.0,0.0,0.0,0.0,0.0,0.0,0.0,0.0,0.0,0.0,0.0,0.0,0.0,0.0,0.0,0.0,0.0,0.0,0.0,0.0,0.0,0.0,0.0,0.0,0.0,0.0,0.0,0.0,0.0,0.0,0.0,0.0,0.0,0.0,0.0,0.0,0.0,0.0,0.0,0.0,0.0,0.0,0.0,0.0,0.0,0.0,0.0,0.0,0.0,0.0,0.0,0.0,0.0,0.0,0.0,0.0,0.0,0.0,0.0,0.0,0.0,0.0,0.0,0.0,0.0,0.0,0.0,0.0,0.0,0.0,0.0,0.0,0.0,0.0,0.0,0.0,0.0,0.0,0.0,0.0,0.0,0.0,0.0,0.0,0.0,0.0,0.0,0.0,0.0,0.0,0.0,0.0,0.0,0.0,0.0,0.0,0.0,0.0,0.0,0.0,0.0,0.0,0.0,0.0,0.0,0.0,0.0,0.0,0.0,0.0,0.0,0.0,0.0,0.0,0.0,0.0,0.0,0.0,0.0,0.0,0.0,0.0,0.0,0.0,0.0,0.0,0.0,0.0,0.0,0.0,0.0,0.0,0.0,0.0,0.0,0.0,0.0,0.0,0.0,0.0,0.0,0.0,0.0,0.0,0.0,0.0,0.0,0.0,0.0,0.0,0.0,0.0,0.0,0.0,0.0,0.0,0.0,0.0,0.0,0.0,0.0,0.0,0.0,0.0,0.0,0.0,0.0,0.0,0.0,0.0,0.0,0.0,0.0,0.0,0.0,0.0,0.0,0.0,0.0,0.0,0.0,0.0,0.0,0.0,0.0,0.0,0.0,0.0,0.0,0.0,0.0,0.0,0.0,0.0,0.0,0.0,0.0,0.0,0.0,0.0,0.0,0.0,0.0,0.0,0.0,0.0,0.0,0.0,0.0,0.0,0.0,0.0,0.0,0.0,0.0,0.0,0.0,0.0,0.0,0.0,0.0,0.0,0.0,0.0,0.0,0.0,0.0,0.0,0.0,0.0,0.0,0.0,0.0,0.0,0.0,0.0,0.0,0.0,0.0,0.0,0.0,0.0,0.0,0.0,0.0,0.0,0.0,0.0,0.0,0.0,0.0,0.0,0.0,0.0,0.0,0.0,0.0,0.0,0.0,0.0,0.0,0.0,0.0,0.0,0.0,0.0,0.0,0.0,0.0,0.0,0.0,0.0,0.0,0.0,0.0,0.0,0.0,0.0,0.0,0.0,0.0,0.0,0.0,0.0,0.0,0.0,0.0,0.0,0.0,0.0,0.0,0.0,0.0,0.0,0.0,0.0,0.0,0.0,0.0,0.0,0.0,0.0,0.0,0.0,0.0,0.0,0.0,0.0,0.0,0.0,0.0,0.0,0.0,0.0,0.0,0.0,0.0,0.0,0.0,0.0,0.0,0.0,0.0,0.0,0.0,0.0,0.0,0.0,0.0,0.0,0.0,0.0,0.0,0.0,0.0,0.0,0.0,0.0,0.0,0.0,0.0,0.0,0.0,0.0,0.0,0.0,0.0,0.0,0.0,0.0,0.0,0.0,0.0,0.0,0.0,0.0,0.0,0.0,0.0,0.0,0.0,0.0,0.0,0.0,0.0,0.0,0.0,0.0,0.0,0.0,0.0,0.0,0.0,0.0,0.0,0.0,0.0,0.0,0.0,0.0,0.0,0.0,0.0,0.0,0.0,0.0,0.0,0.0,0.0,0.0,0.0,0.0,0.0,0.0,0.0,0.0,0.0,0.0,0.0,0.0,0.0,0.0,0.0,0.0,0.0,0.0,0.0,0.0,0.0,0.0,0.0,0.0,0.0,0.0,0.0,0.0,0.0,0.0,0.0,0.0,0.0,0.0,0.0,0.0,0.0,0.0,0.0,0.0,0.0,0.0,0.0,0.0,0.0,0.0,0.0,0.0,0.0,0.0,0.0,0.0,0.0,0.0,0.0,0.0,0.0,0.0,0.0,0.0,0.0,0.0,0.0,0.0,0.0,0.0,0.0,0.0,0.0,0.0,0.0,0.0,0.0,0.0,0.0,0.0,0.0,0.0,0.0,0.0,0.0,0.0,0.0,0.0,0.0,0.0,0.0,0.0,0.0,0.0,0.0,0.0,0.0,0.0,0.0,0.0,0.0,0.0,0.0,0.0,0.0,0.0,0.0,0.0,0.0,0.0,0.0,0.0,0.0,0.0,0.0,0.0,0.0,0.0,0.0,0.0,0.0,0.0,0.0,0.0,0.0,0.0,0.0,0.0,0.0,0.0,0.0,0.0,0.0,0.0,0.0,0.0,0.0,0.0,0.0,0.0,0.0,0.0,0.0,0.0,0.0,0.0,0.0,0.0,0.0,0.0,0.0,0.0,0.0,0.0,0.0,0.0,0.0,0.0,0.0,0.0,0.0,0.0,0.0,0.0,0.0,0.0,0.0,0.0,0.0,0.0,0.0,0.0,0.0,0.0,0.0,0.0,0.0,0.0,0.0,0.0,0.0,0.0,0.0,0.0,0.0,0.0,0.0,0.0,0.0,0.0,0.0,0.0,0.0,0.0,0.0,0.0,0.0,0.0,0.0,0.0,0.0,0.0,0.0,0.0,0.0,0.0,0.0,0.0,0.0,0.0,0.0,0.0,0.0,0.0,0.0,0.0,0.0,0.0,0.0,0.0,0.0,0.0,0.0,0.0,0.0,0.0,0.0,0.0,0.0,0.0,0.0,0.0,0.0,0.0,0.0,0.0,0.0,0.0,0.0,0.0,0.0,0.0,0.0,0.0,0.0,0.0,0.0,0.0,0.0,0.0,0.0,0.0,0.0,0.0,0.0,0.0,0.0,0.0,0.0,0.0,0.0,0.0,0.0,0.0,0.0,0.0,0.0,0.0,0.0,0.0,0.0,0.0,0.0,0.0,0.0,0.0,0.0,0.0,0.0,0.0,0.0,0.0,0.0,0.0,0.0,0.0,0.0,0.0,0.0,0.0,0.0,0.0,0.0,0.0,0.0,0.0,0.0,0.0,0.0,0.0,0.0,0.0,0.0,0.0,0.0,0.0,0.0,0.0,0.0,0.0,0.0,0.0,0.0,0.0,0.0,0.0,0.0,0.0,0.0,0.0,0.0,0.0,0.0,0.0,0.0,0.0,0.0,0.0,0.0,0.0,0.0,0.0,0.0,0.0,0.0,0.0,0.0,0.0,0.0,0.0,0.0,0.0,0.0,0.0,0.0,0.0,0.0,0.0,0.0,0.0,0.0,0.0,0.0,0.0,0.0,0.0,0.0,0.0,0.0,0.0,0.0,0.0,0.0,0.0,0.0,0.0,0.0,0.0,0.0,0.0,0.0,-0.36,0.0,0.0,0.0,0.0,0.0,0.0,0.0,0.0,0.0,0.0,0.0,0.0,0.0,0.0,0.0,0.0,0.0,0.0,0.0,0.0,0.0,0.0,0.0,0.0,0.0,0.0,0.0,0.0,0.0,0.0,0.0,0.0,0.0,0.0,0.0,0.0,0.0,0.0,0.0,0.0,0.0,0.0,0.0,0.0,0.0,0.0,0.0,0.0,0.0,0.0,0.0,0.0,0.0,0.0,0.0,0.0,0.0,0.0,0.0,0.0,0.0,0.0,0.0,0.0,0.0,0.0,0.0,0.0,0.0,0.0,0.0,0.0,0.0,0.0,0.0,0.0,0.0,0.0,0.0,0.0,0.0,0.0,0.0,0.0,0.0,0.0,0.0,0.0,0.0,0.0,0.0,0.0,0.0,0.0,0.0,0.0,0.0,0.0,0.0,0.0,0.0,0.0,0.0,0.0,0.0,0.0,0.0,0.0,0.0,0.0,-0.2152,-0.2727,-0.2486,-0.2728,-0.3484,0.0,0.0,0.0,0.0,0.0,0.0,0.0,0.0,0.0,0.0,0.0,0.0,0.0,0.0,0.0,0.0,0.0,0.0,0.0,0.0,0.0,0.0,0.0,0.0,0.0,0.0,0.0,0.0,0.0,0.0,0.0,0.0,0.0,0.0,0.0,0.0,0.0,0.0,0.0,0.0,0.0,0.0,0.0,0.0,0.0,0.0,0.0,0.0,0.0,0.0,0.0,0.0,0.0,0.0,0.0,0.0,0.0,0.0,0.0,0.0,0.0,0.0,0.0,0.0,0.0,0.0,0.0,0.0,0.0,0.0,0.0,0.0,0.0,0.0,0.0,0.0,0.0,0.0,0.0,0.0,0.0,0.0,0.0,0.0,0.0,0.0,0.0,0.0,0.0,0.0,0.0,0.0,0.0,0.0,0.0,0.0,0.0,0.0,0.0,0.0,0.0,0.0,0.0,0.0,0.0,0.0,0.0,0.0,0.0,0.0,0.0,0.0,-0.2267,-0.2375,-0.3238,0.0,0.0,0.0,0.0,0.0,0.0,0.0,0.0,0.0,0.0,0.0,0.0,0.0,0.0,0.0,0.0,0.0,0.0,0.0,0.0,0.0,0.0,0.0,0.0,0.0,0.0,0.0,0.0,0.0,0.0,0.0,0.0,0.0,0.0,0.0,0.0,0.0,0.0,0.0,0.0,0.0,0.0,0.0,0.0,0.0,0.0,0.0,0.0,0.0,0.0,0.0,0.0,0.0,0.0,0.0,0.0,0.0,0.0,0.0,0.0,0.0,0.0,0.0,0.0,0.0,0.0,0.0,0.0,0.0,0.0,0.0,0.0,0.0,0.0,0.0,0.0,0.0,0.0,0.0,0.0,0.0,0.0,0.0,0.0,0.0,0.0,0.0,0.0,0.0,0.0,0.0,0.0,0.0,0.0,0.0,0.0,0.0,0.0,0.0,0.0,0.0,0.0,0.0,0.0,0.0,0.0,0.0,0.0,0.0,0.0,-0.2076,-0.2368,-0.2504,0.0,-0.2838,0.0,0.0,0.0,0.0,0.0,0.0,0.0,0.0,0.0,0.0,0.0,0.0,0.0,0.0,0.0,0.0,0.0,0.0,0.0,0.0,0.0,0.0,0.0,0.0,0.0,0.0,0.0,0.0,0.0,0.0,0.0,0.0,0.0,0.0,0.0,0.0,0.0,0.0,0.0,0.0,0.0,0.0,0.0,0.0,0.0,0.0,0.0,0.0,0.0,0.0,0.0,0.0,0.0,0.0,0.0,0.0,0.0,0.0,0.0,0.0,0.0,0.0,0.0,0.0,0.0,0.0,0.0,0.0,0.0,0.0,0.0,0.0,0.0,0.0,0.0,0.0,0.0,0.0,0.0,0.0,0.0,0.0,0.0,0.0,0.0,0.0,0.0,0.0,0.0,0.0,0.0,0.0,0.0,0.0,0.0,0.0,0.0,0.0,0.0,0.0,0.0,0.0,0.0,0.0,0.0,0.0,0.0,0.0,0.0,0.0,-0.1718,-0.1929,-0.2305,-0.2353,0.0,0.0,0.0,0.0,0.0,0.0,0.0,0.0,0.0,0.0,0.0,0.0,0.0,0.0,0.0,0.0,0.0,0.0,0.0,0.0,0.0,0.0,0.0,0.0,0.0,0.0,0.0,0.0,0.0,0.0,0.0,0.0,0.0,0.0,0.0,0.0,0.0,0.0,0.0,0.0,0.0,0.0,0.0,0.0,0.0,0.0,0.0,0.0,0.0,0.0,0.0,0.0,0.0,0.0,0.0,0.0,0.0,0.0,0.0,0.0,0.0,0.0,0.0,0.0,0.0,0.0,0.0,0.0,0.0,0.0,0.0,0.0,0.0,0.0,0.0,0.0,0.0,0.0,0.0,0.0,0.0,0.0,0.0,0.0,0.0,0.0,0.0,0.0,0.0,0.0,0.0,0.0,0.0,0.0,0.0,0.0,0.0,0.0,0.0,0.0,0.0,0.0,0.0,0.0,0.0,0.0,0.0,0.0,0.0,0.0,-0.1059,-0.1203,-0.1575,-0.1865,-0.1871,-0.1622,0.0,0.0,0.0,0.0,0.0,0.0,0.0,0.0,0.0,0.0,0.0,0.0,0.0,0.0,0.0,0.0,0.0,0.0,0.0,0.0,0.0,0.0,0.0,0.0,0.0,0.0,0.0,0.0,0.0,0.0,0.0,0.0,0.0,0.0,0.0,0.0,0.0,0.0,0.0,0.0,0.0,0.0,0.0,0.0,0.0,0.0,0.0,0.0,0.0,0.0,0.0,0.0,0.0,0.0,0.0,0.0,0.0,0.0,0.0,0.0,0.0,0.0,0.0,0.0,0.0,0.0,0.0,0.0,0.0,0.0,0.0,0.0,0.0,0.0,0.0,0.0,0.0,0.0,0.0,0.0,0.0,0.0,0.0,0.0,0.0,0.0,0.0,0.0,0.0,0.0,0.0,0.0,0.0,0.0,0.0,0.0,0.0,0.0,0.0,0.0,0.0,0.0,0.0,0.0,0.0,0.0,0.0,0.0,-0.042,-0.0445,-0.0691,-0.1268,-0.133,-0.1353,0.0,0.0,0.0,0.0,0.0,0.0,0.0,0.0,0.0,0.0,0.0,0.0,0.0,0.0,0.0,0.0,0.0,0.0,0.0,0.0,0.0,0.0,0.0,0.0,0.0,0.0,0.0,0.0,0.0,0.0,0.0,0.0,0.0,0.0,0.0,0.0,0.0,0.0,0.0,0.0,0.0,0.0,0.0,0.0,0.0,0.0,0.0,0.0,0.0,0.0,0.0,0.0,0.0,0.0,0.0,0.0,0.0,0.0,0.0,0.0,0.0,0.0,0.0,0.0,0.0,0.0,0.0,0.0,0.0,0.0,0.0,0.0,0.0,0.0,0.0,0.0,0.0,0.0,0.0,0.0,0.0,0.0,0.0,0.0,0.0,0.0,0.0,0.0,0.0,0.0,0.0,0.0,0.0,0.0,0.0,0.0,0.0,0.0,0.0,0.0,0.0,0.0,0.0,0.0,0.0,0.0,0.0,0.0,0.0,0.0346,0.0247,-0.0,-0.0531,-0.0544,-0.0775,0.0,0.0,0.0,0.0,0.0,0.0,0.0,0.0,0.0,0.0,0.0,0.0,0.0,0.0,0.0,0.0,0.0,0.0,0.0,0.0,0.0,0.0,0.0,0.0,0.0,0.0,0.0,0.0,0.0,0.0,0.0,0.0,0.0,0.0,0.0,0.0,0.0,0.0,0.0,0.0,0.0,0.0,0.0,0.0,0.0,0.0,0.0,0.0,0.0,0.0,0.0,0.0,0.0,0.0,0.0,0.0,0.0,0.0,0.0,0.0,0.0,0.0,0.0,0.0,0.0,0.0,0.0,0.0,0.0,0.0,0.0,0.0,0.0,0.0,0.0,0.0,0.0,0.0,0.0,0.0,0.0,0.0,0.0,0.0,0.0,0.0,0.0,0.0,0.0,0.0,0.0,0.0,0.0,0.0,0.0,0.0,0.0,0.0,0.0,0.0,0.0,0.0,0.0,0.0,0.0,0.0,0.0,0.0,0.0,0.097,0.0,0.0571,0.0,-0.0,-0.0276,0.0,0.0,0.0,0.0,0.0,0.0,0.0,0.0,0.0,0.0,0.0,0.0,0.0,0.0,0.0,0.0,0.0,0.0,0.0,0.0,0.0,0.0,0.0,0.0,0.0,0.0,0.0,0.0,0.0,0.0,0.0,0.0,0.0,0.0,0.0,0.0,0.0,0.0,0.0,0.0,0.0,0.0,0.0,0.0,0.0,0.0,0.0,0.0,0.0,0.0,0.0,0.0,0.0,0.0,0.0,0.0,0.0,0.0,0.0,0.0,0.0,0.0,0.0,0.0,0.0,0.0,0.0,0.0,0.0,0.0,0.0,0.0,0.0,0.0,0.0,0.0,0.0,0.0,0.0,0.0,0.0,0.0,0.0,0.0,0.0,0.0,0.0,0.0,0.0,0.0,0.0,0.0,0.0,0.0,0.0,0.0,0.0,0.0,0.0,0.0,0.0,0.0,0.0,0.0,0.0,0.0,0.0,0.0,0.2039,0.1511,0.1096,0.0904,0.0853,0.0267,-0.0,0.0,0.0,0.0,0.0,0.0,0.0,0.0,0.0,0.0,0.0,0.0,0.0,0.0,0.0,0.0,0.0,0.0,0.0,0.0,0.0,0.0,0.0,0.0,0.0,0.0,0.0,0.0,0.0,0.0,0.0,0.0,0.0,0.0,0.0,0.0,0.0,0.0,0.0,0.0,0.0,0.0,0.0,0.0,0.0,0.0,0.0,0.0,0.0,0.0,0.0,0.0,0.0,0.0,0.0,0.0,0.0,0.0,0.0,0.0,0.0,0.0,0.0,0.0,0.0,0.0,0.0,0.0,0.0,0.0,0.0,0.0,0.0,0.0,0.0,0.0,0.0,0.0,0.0,0.0,0.0,0.0,0.0,0.0,0.0,0.0,0.0,0.0,0.0,0.0,0.0,0.0,0.0,0.0,0.0,0.0,0.0,0.0,0.0,0.0,0.0,0.0,0.0,0.0,0.0,0.0,0.0,0.0,0.0,0.0,0.1663,0.1579,0.1115,0.0171,0.0055,-0.022,0.0,0.0,0.0,0.0,0.0,0.0,0.0,0.0,0.0,0.0,0.0,0.0,0.0,0.0,0.0,0.0,0.0,0.0,0.0,0.0,0.0,0.0,0.0,0.0,0.0,0.0,0.0,0.0,0.0,0.0,0.0,0.0,0.0,0.0,0.0,0.0,0.0,0.0,0.0,0.0,0.0,0.0,0.0,0.0,0.0,0.0,0.0,0.0,0.0,0.0,0.0,0.0,0.0,0.0,0.0,0.0,0.0,0.0,0.0,0.0,0.0,0.0,0.0,0.0,0.0,0.0,0.0,0.0,0.0,0.0,0.0,0.0,0.0,0.0,0.0,0.0,0.0,0.0,0.0,0.0,0.0,0.0,0.0,0.0,0.0,0.0,0.0,0.0,0.0,0.0,0.0,0.0,0.0,0.0,0.0,0.0,0.0,0.0,0.0,0.0,0.0,0.0,0.0,0.0,0.0,0.0,0.0,0.0,0.0,0.2128,0.1991,0.1554,0.0777,0.0512,0.017,-0.0297,0.0,0.0,0.0,0.0,0.0,0.0,0.0,0.0,0.0,0.0,0.0,0.0,0.0,0.0,0.0,0.0,0.0,0.0,0.0,0.0,0.0,0.0,0.0,0.0,0.0,0.0,0.0,0.0,0.0,0.0,0.0,0.0,0.0,0.0,0.0,0.0,0.0,0.0,0.0,0.0,0.0,0.0,0.0,0.0,0.0,0.0,0.0,0.0,0.0,0.0,0.0,0.0,0.0,0.0,0.0,0.0,0.0,0.0,0.0,0.0,0.0,0.0,0.0,0.0,0.0,0.0,0.0,0.0,0.0,0.0,0.0,0.0,0.0,0.0,0.0,0.0,0.0,0.0,0.0,0.0,0.0,0.0,0.0,0.0,0.0,0.0,0.0,0.0,0.0,0.0,0.0,0.0,0.0,0.0,0.0,0.0,0.0,0.0,0.0,0.0,0.0,0.0,0.0,0.0,0.0,0.0,0.0,0.0,0.2907,0.2354,0.2176,0.2296,0.138,0.0871,0.0,0.0,0.0,0.0,0.0,0.0,0.0,0.0,0.0,0.0,0.0,0.0,0.0,0.0,0.0,0.0,0.0,0.0,0.0,0.0,0.0,0.0,0.0,0.0,0.0,0.0,0.0,0.0,0.0,0.0,0.0,0.0,0.0,0.0,0.0,0.0,0.0,0.0,0.0,0.0,0.0,0.0,0.0,0.0,0.0,0.0,0.0,0.0,0.0,0.0,0.0,0.0,0.0,0.0,0.0,0.0,0.0,0.0,0.0,0.0,0.0,0.0,0.0,0.0,0.0,0.0,0.0,0.0,0.0,0.0,0.0,0.0,0.0,0.0,0.0,0.0,0.0,0.0,0.0,0.0,0.0,0.0,0.0,0.0,0.0,0.0,0.0,0.0,0.0,0.0,0.0,0.0,0.0,0.0,0.0,0.0,0.0,0.0,0.0,0.0,0.0,0.0,0.0,0.0,0.0,0.0,0.0,0.0,0.0,0.3873,0.3258,0.2631,0.1879,0.1215,0.0857,0.0,0.0,0.0,0.0,0.0,0.0,0.0,0.0,0.0,0.0,0.0,0.0,0.0,0.0,0.0,0.0,0.0,0.0,0.0,0.0,0.0,0.0,0.0,0.0,0.0,0.0,0.0,0.0,0.0,0.0,0.0,0.0,0.0,0.0,0.0,0.0,0.0,0.0,0.0,0.0,0.0,0.0,0.0,0.0,0.0,0.0,0.0,0.0,0.0,0.0,0.0,0.0,0.0,0.0,0.0,0.0,0.0,0.0,0.0,0.0,0.0,0.0,0.0,0.0,0.0,0.0,0.0,0.0,0.0,0.0,0.0,0.0,0.0,0.0,0.0,0.0,0.0,0.0,0.0,0.0,0.0,0.0,0.0,0.0,0.0,0.0,0.0,0.0,0.0,0.0,0.0,0.0,0.0,0.0,0.0,0.0,0.0,0.0,0.0,0.0,0.0,0.0,0.0,0.0,0.0,0.0,0.0,0.0,0.4227,0.4374,0.4425,0.3986,0.3172,0.2366,0.1804,0.0,0.0,0.0,0.0,0.0,0.0,0.0,0.0,0.0,0.0,0.0,0.0,0.0,0.0,0.0,0.0,0.0,0.0,0.0,0.0,0.0,0.0,0.0,0.0,0.0,0.0,0.0,0.0,0.0,0.0,0.0,0.0,0.0,0.0,0.0,0.0,0.0,0.0,0.0,0.0,0.0,0.0,0.0,0.0,0.0,0.0,0.0,0.0,0.0,0.0,0.0,0.0,0.0,0.0,0.0,0.0,0.0,0.0,0.0,0.0,0.0,0.0,0.0,0.0,0.0,0.0,0.0,0.0,0.0,0.0,0.0,0.0,0.0,0.0,0.0,0.0,0.0,0.0,0.0,0.0,0.0,0.0,0.0,0.0,0.0,0.0,0.0,0.0,0.0,0.0,0.0,0.0,0.0,0.0,0.0,0.0,0.0,0.0,0.0,0.0,0.0,0.0,0.0,0.0,0.0,0.0,0.0,0.0,0.4488,0.4604,0.5436,0.567,0.5231,0.4103,0.3295,0.0,0.0,0.0,0.0,0.0,0.0,0.0,0.0,0.0,0.0,0.0,0.0,0.0,0.0,0.0,0.0,0.0,0.0,0.0,0.0,0.0,0.0,0.0,0.0,0.0,0.0,0.0,0.0,0.0,0.0,0.0,0.0,0.0,0.0,0.0,0.0,0.0,0.0,0.0,0.0,0.0,0.0,0.0,0.0,0.0,0.0,0.0,0.0,0.0,0.0,0.0,0.0,0.0,0.0,0.0,0.0,0.0,0.0,0.0,0.0,0.0,0.0,0.0,0.0,0.0,0.0,0.0,0.0,0.0,0.0,0.0,0.0,0.0,0.0,0.0,0.0,0.0,0.0,0.0,0.0,0.0,0.0,0.0,0.0,0.0,0.0,0.0,0.0,0.0,0.0,0.0,0.0,0.0,0.0,0.0,0.0,0.0,0.0,0.0,0.0,0.0,0.0,0.0,0.0,0.0,0.0,0.0,0.0,0.461,0.4898,0.557,0.5924,0.5909,0.49,0.4161,0.0,0.0,0.0,0.0,0.0,0.0,0.0,0.0,0.0,0.0,0.0,0.0,0.0,0.0,0.0,0.0,0.0,0.0,0.0,0.0,0.0,0.0,0.0,0.0,0.0,0.0,0.0,0.0,0.0,0.0,0.0,0.0,0.0,0.0,0.0,0.0,0.0,0.0,0.0,0.0,0.0,0.0,0.0,0.0,0.0,0.0,0.0,0.0,-1.0543,0.0,0.0,0.0,0.0,0.0,0.0,0.0,0.0,0.0,0.0,0.0,0.0,0.0,0.0,0.0,0.0,0.0,0.0,0.0,0.0,0.0,0.0,0.0,0.0,0.0,0.0,0.0,0.0,0.0,0.0,0.0,0.0,0.0,0.0,0.0,0.0,0.0,0.0,0.0,0.0,0.0,0.0,0.0,0.0,0.0,0.0,0.0,0.0,0.0,0.0,0.0,0.0,0.0,0.0,0.0,0.0,0.0,0.0,0.0,0.4889,0.5416,0.6016,0.637,0.6427,0.599,0.5318,0.0,0.0,0.0,0.0,0.0,0.0,0.0,0.0,0.0,0.0,0.0,0.0,0.0,0.0,0.0,0.0,0.0,0.0,0.0,0.0,0.0,0.0,0.0,0.0,0.0,0.0,0.0,0.0,0.0,0.0,0.0,0.0,0.0,0.0,0.0,0.0,0.0,0.0,0.0,0.0,0.0,0.0,0.0,0.0,0.0,0.0,0.0,0.0,0.0,0.0,0.0,0.0,0.0,0.0,0.0,0.0,0.0,0.0,0.0,0.0,0.0,0.0,0.0,0.0,0.0,0.0,0.0,0.0,0.0,0.0,0.0,0.0,0.0,0.0,0.0,0.0,0.0,0.0,0.0,0.0,0.0,0.0,0.0,0.0,0.0,0.0,0.0,0.0,0.0,0.0,0.0,0.0,0.0,0.0,0.0,0.0,0.0,0.0,0.0,0.0,0.0,0.0,0.0,0.0,0.0,0.0,0.0,0.461,0.5162,0.5835,0.6451,0.6795,0.6929,0.6917,0.6466,0.5497,0.0,0.0,0.0,0.0,0.0,0.0,0.0,0.0,0.0,0.0,0.0,0.0,0.0,0.0,0.0,0.0,0.0,0.0,0.0,0.0,0.0,0.0,0.0,0.0,0.0,0.0,0.0,0.0,0.0,0.0,0.0,0.0,0.0,0.0,0.0,0.0,0.0,0.0,-0.8812,-0.9193,0.0,0.0,0.0,0.0,0.0,0.0,0.0,0.0,-1.1368,0.0,0.0,0.0,0.0,0.0,0.0,0.0,0.0,0.0,0.0,0.0,0.0,0.0,0.0,0.0,0.0,0.0,0.0,0.0,0.0,0.0,0.0,0.0,0.0,0.0,0.0,0.0,0.0,0.0,0.0,0.0,0.0,0.0,0.0,0.0,0.0,0.0,0.0,0.0,0.0,0.0,0.0,0.0,0.0,0.0,0.0,0.0,0.0,0.0,0.0,0.0,0.0,0.0,0.0,0.0,0.0,0.4708,0.4697,0.5157,0.5999,0.6364,0.6791,0.7101,0.6918,0.6619,0.6294,0.0,0.0,0.0,0.0,0.0,0.0,0.0,0.0,0.0,0.0,0.0,0.0,0.0,0.0,0.0,0.0,0.0,0.0,0.0,0.0,0.0,0.0,0.0,0.0,0.0,0.0,0.0,0.0,0.0,0.0,0.0,0.0,0.0,0.0,0.0,0.0,0.0,0.0,0.0,-1.0006,-1.0457,0.0,0.0,0.0,0.0,0.0,0.0,0.0,0.0,-1.1519,0.0,0.0,0.0,0.0,0.0,0.0,0.0,0.0,0.0,0.0,0.0,0.0,0.0,0.0,0.0,0.0,0.0,0.0,0.0,0.0,0.0,0.0,0.0,0.0,0.0,0.0,0.0,0.0,0.0,0.0,0.0,0.0,0.0,0.0,0.0,0.0,0.0,0.0,0.0,0.0,0.0,0.0,0.0,0.0,0.0,0.0,0.0,0.0,0.0,0.0,0.0,0.0,0.0,0.0,0.0,0.472,0.4776,0.5331,0.6418,0.6538,0.691,0.7386,0.6976,0.6642,0.0,0.0,0.0,0.0,0.0,0.0,0.0,0.0,0.0,0.0,0.0,0.0,0.0,0.0,0.0,0.0,0.0,0.0,0.0,0.0,0.0,0.0,0.0,0.0,0.0,0.0,0.0,0.0,0.0,0.0,0.0,0.0,0.0,0.0,0.0,0.0,0.0,0.0,0.0,0.0,-1.0459,-1.0973,-1.0506,0.0,0.0,0.0,0.0,0.0,0.0,-1.2295,-1.1877,0.0,0.0,0.0,0.0,0.0,0.0,0.0,0.0,0.0,0.0,0.0,0.0,0.0,0.0,0.0,0.0,0.0,0.0,0.0,0.0,0.0,0.0,0.0,0.0,0.0,0.0,0.0,0.0,0.0,0.0,0.0,0.0,0.0,0.0,0.0,0.0,0.0,0.0,0.0,0.0,0.0,0.0,0.0,0.0,0.0,0.0,0.0,0.0,0.0,0.0,0.0,0.0,0.0,0.0,0.0,0.4734,0.4787,0.5348,0.6511,0.6529,0.6882,0.7443,0.7031,0.6646,0.0,0.0,0.0,0.0,0.0,0.0,0.0,0.0,0.0,0.0,0.0,0.0,0.0,0.0,0.0,0.0,0.0,0.0,0.0,0.0,0.0,0.0,0.0,0.0,0.0,0.0,0.0,0.0,0.0,0.0,0.0,0.0,0.0,0.0,0.0,0.0,0.0,0.0,0.0,0.0,0.0,-1.1456,-1.09,-1.2083,0.0,0.0,0.0,0.0,-1.3145,-1.2814,0.0,0.0,0.0,0.0,0.0,0.0,0.0,0.0,0.0,0.0,0.0,0.0,0.0,0.0,0.0,0.0,0.0,0.0,0.0,0.0,0.0,0.0,0.0,0.0,0.0,0.0,0.0,0.0,0.0,0.0,0.0,0.0,0.0,0.0,0.0,0.0,0.0,0.0,0.0,0.0,0.0,0.0,0.0,0.0,0.0,0.0,0.0,0.0,0.0,0.0,0.0,0.0,0.0,0.0,0.0,0.0,0.4803,0.4621,0.5014,0.5966,0.6084,0.6458,0.7018,0.6991,0.6841,0.0,0.0,0.0,0.0,0.0,0.0,0.0,0.0,0.0,0.0,0.0,0.0,0.0,0.0,0.0,0.0,0.0,0.0,0.0,0.0,0.0,0.0,0.0,0.0,0.0,0.0,0.0,0.0,0.0,0.0,0.0,0.0,0.0,0.0,0.0,0.0,0.0,0.0,0.0,0.0,0.0,-1.2522,-1.137,-1.303,-1.4081,0.0,0.0,-1.4105,-1.3874,-1.4325,0.0,0.0,0.0,0.0,0.0,0.0,0.0,0.0,0.0,0.0,0.0,0.0,0.0,0.0,0.0,0.0,0.0,0.0,0.0,0.0,0.0,0.0,0.0,0.0,0.0,0.0,0.0,0.0,0.0,0.0,0.0,0.0,0.0,0.0,0.0,0.0,0.0,0.0,0.0,0.0,0.0,0.0,0.0,0.0,0.0,0.0,0.0,0.0,0.0,0.0,0.0,0.0,0.0,0.0,0.0,0.4423,0.4811,0.4662,0.5039,0.5855,0.602,0.6326,0.6757,0.6574,0.6558,0.0,0.0,0.0,0.0,0.0,0.0,0.0,0.0,0.0,0.0,0.0,0.0,0.0,0.0,0.0,0.0,0.0,0.0,0.0,0.0,0.0,0.0,0.0,0.0,0.0,0.0,0.0,0.0,0.0,0.0,0.0,0.0,0.0,0.0,0.0,0.0,0.0,0.0,0.0,0.0,0.0,0.0,-1.2314,-1.3535,0.0,0.0,0.0,-1.4533,-1.4554,0.0,0.0,0.0,0.0,0.0,0.0,0.0,0.0,0.0,0.0,0.0,0.0,0.0,0.0,0.0,0.0,0.0,0.0,0.0,0.0,0.0,0.0,0.0,0.0,0.0,0.0,0.0,0.0,0.0,0.0,0.0,0.0,0.0,0.0,0.0,0.0,0.0,0.0,0.0,0.0,0.0,0.0,0.0,0.0,0.0,0.0,0.0,0.0,0.0,0.0,0.0,0.0,0.0,0.0,0.0,0.0,0.0,0.4822,0.4683,0.5064,0.5769,0.5904,0.6164,0.6529,0.6325,0.0,0.0,0.0,0.0,0.0,0.0,0.0,0.0,0.0,0.0,0.0,0.0,0.0,0.0,0.0,0.0,0.0,0.0,0.0,0.0,0.0,0.0,0.0,0.0,0.0,0.0,0.0,-0.3842,0.0,0.0,0.0,0.0,0.0,0.0,0.0,0.0,0.0,0.0,0.0,0.0,0.0,0.0,-1.3619,-1.3274,-1.4203,-1.4935,0.0,0.0,-1.5041,-1.5232,-1.5093,-1.4666,0.0,0.0,0.0,0.0,0.0,0.0,0.0,0.0,0.0,0.0,0.0,0.0,0.0,0.0,0.0,0.0,0.0,0.0,0.0,0.0,0.0,0.0,0.0,0.0,0.0,0.0,0.0,0.0,0.0,0.0,0.0,0.0,0.0,0.0,0.0,0.0,0.0,0.0,0.0,0.0,0.0,0.0,0.0,0.0,0.0,0.0,0.0,0.0,0.0,0.0,0.0,0.0,0.0,0.0,0.0,0.4806,0.4602,0.4833,0.5513,0.5487,0.5779,0.6395,0.6204,0.6365,0.0,0.0,0.0,0.0,0.0,0.0,0.0,0.0,0.0,0.0,0.0,0.0,0.0,0.0,0.0,0.0,0.0,0.0,0.0,0.0,0.0,0.0,0.0,0.0,0.0,0.0,0.0,0.0,0.0,0.0,0.0,0.0,0.0,0.0,0.0,0.0,0.0,0.0,0.0,0.0,0.0,-1.4117,-1.4025,-1.526,-1.6145,0.0,0.0,-1.6065,-1.5735,-1.6523,-1.6477,-1.4212,0.0,0.0,0.0,0.0,0.0,0.0,0.0,0.0,0.0,0.0,0.0,0.0,0.0,0.0,0.0,0.0,0.0,0.0,0.0,0.0,0.0,0.0,0.0,0.0,0.0,0.0,0.0,0.0,0.0,0.0,0.0,0.0,0.0,0.0,0.0,0.0,0.0,0.0,0.0,0.0,0.0,0.0,0.0,0.0,0.0,0.0,0.0,0.0,0.0,0.0,0.0,0.0,0.0,0.4499,0.4828,0.4743,0.4939,0.5412,0.567,0.5902,0.6219,0.6251,0.6389,0.0,0.0,0.0,0.0,0.0,0.0,0.0,0.0,0.0,0.0,0.0,0.0,0.0,0.0,0.0,0.0,0.0,0.0,0.0,0.0,0.0,0.0,0.0,0.0,0.0,0.0,0.0,0.0,-0.488,-0.5086,-0.5912,0.0,0.0,0.0,0.0,0.0,0.0,0.0,0.0,0.0,0.0,-1.4569,-1.5018,-1.6012,0.0,0.0,-1.6679,-1.6633,-1.6468,-1.6624,-1.6367,-1.5184,-1.5247,0.0,0.0,0.0,0.0,0.0,0.0,0.0,0.0,0.0,0.0,0.0,0.0,0.0,0.0,0.0,0.0,0.0,0.0,0.0,0.0,0.0,0.0,0.0,0.0,0.0,0.0,0.0,0.0,0.0,0.0,0.0,0.0,0.0,0.0,0.0,0.0,0.0,0.0,0.0,0.0,0.0,0.0,0.0,0.0,0.0,0.0,0.0,0.0,0.0,0.0,0.0,0.0,0.4624,0.4934,0.4871,0.5045,0.5469,0.5695,0.5909,0.621,0.6516,0.6736,0.0,0.0,0.0,0.0,0.0,0.0,0.0,0.0,0.0,0.0,0.0,0.0,0.0,0.0,0.0,0.0,0.0,0.0,0.0,0.0,0.0,0.0,0.0,0.0,0.0,0.0,0.0,0.0,-0.5075,-0.5061,-0.5751,0.0,0.0,0.0,0.0,0.0,0.0,0.0,0.0,0.0,0.0,-1.434,-1.5257,-1.6175,-1.6803,-1.7117,-1.7097,-1.7082,-1.7082,-1.6752,-1.6276,-1.5615,0.0,0.0,0.0,0.0,0.0,0.0,0.0,0.0,0.0,0.0,0.0,0.0,0.0,0.0,0.0,0.0,0.0,0.0,0.0,0.0,0.0,0.0,0.0,0.0,0.0,0.0,0.0,0.0,0.0,0.0,0.0,0.0,0.0,0.0,0.0,0.0,0.0,0.0,0.0,0.0,0.0,0.0,0.0,0.0,0.0,0.0,0.0,0.0,0.0,0.0,0.0,0.0,0.0,0.4705,0.5167,0.4955,0.5124,0.5692,0.5613,0.5697,0.616,0.7073,0.7673,0.7831,0.0,0.0,0.0,0.0,0.0,0.0,0.0,0.0,0.0,0.0,0.0,0.0,0.0,0.0,0.0,0.0,0.0,0.0,0.0,0.0,0.0,0.0,0.0,0.0,0.0,0.0,-0.5306,-0.5165,-0.5077,0.0,0.0,0.0,0.0,0.0,0.0,0.0,0.0,0.0,0.0,-1.2572,-1.3279,-1.449,-1.5621,-1.6607,-1.7406,-1.7445,-1.7477,-1.7368,-1.7128,-1.6496,0.0,0.0,0.0,0.0,0.0,0.0,0.0,0.0,0.0,0.0,0.0,0.0,0.0,0.0,0.0,0.0,0.0,0.0,0.0,0.0,0.0,0.0,0.0,0.0,0.0,0.0,0.0,0.5129,0.5129,0.0,0.0,0.0,0.0,0.0,0.0,0.0,0.0,0.0,0.0,0.0,0.5192,0.5233,0.0,0.0,0.0,0.0,0.0,0.0,0.0,0.0,0.0,0.0,0.0,0.0,0.4909,0.5279,0.5151,0.5246,0.5513,0.5722,0.6251,0.7188,0.7688,0.8559,1.0031,0.0,0.0,0.0,0.0,0.0,0.0,0.0,0.0,0.0,0.0,0.0,0.0,0.0,0.0,0.0,0.0,0.0,0.0,0.0,0.0,0.0,0.0,0.0,0.0,0.0,-0.2748,0.0,0.0,0.0,0.0,0.0,0.0,0.0,0.0,0.0,0.0,0.0,-1.0365,-1.1311,-1.2144,-1.3097,-1.4188,-1.5057,-1.5675,0.0,0.0,0.0,0.0,0.0,0.0,0.0,0.0,0.0,0.0,0.0,0.0,0.0,0.0,-1.3887,-1.3803,-1.3724,-1.3576,-1.2924,0.0,0.0,0.0,0.0,0.0,0.0,0.0,0.0,0.0,0.0,0.0,0.0,0.0,0.0,0.0,0.0,0.5407,0.0,0.0,0.0,0.0,0.0,0.0,0.0,0.0,0.5431,0.5477,0.5556,0.5597,0.564,0.0,0.5684,0.5659,0.0,0.0,0.0,0.0,0.0,0.0,0.0,0.0,0.5135,0.5472,0.5374,0.545,0.5727,0.625,0.6882,0.771,0.8486,0.9799,1.1564,1.0169,0.9289,0.0,0.0,0.0,0.0,0.0,0.0,0.0,0.0,0.0,0.0,0.0,0.0,0.0,0.0,0.0,0.0,0.0,0.0,0.0,0.0,0.0,0.0,0.0,-0.1675,0.0,0.0,0.0,0.0,0.0,0.0,0.0,0.0,0.0,-0.8209,-0.9377,-1.0201,-1.0714,-1.1447,-1.2396,-1.3397,0.0,0.0,0.0,0.0,0.0,0.0,0.0,-1.5035,-1.4752,-1.4968,-1.5016,-1.4736,-1.4538,-1.4503,-1.4789,0.0,0.0,-1.36,-1.3606,-1.3495,-1.2862,-1.2824,-1.291,-1.3066,-1.3151,-1.3202,0.0,0.0,0.0,0.0,0.0,0.0,0.0,0.0,0.5887,0.5551,0.0,0.551,0.0,0.0,0.0,0.0,0.0,0.0,0.0,0.0,0.5497,0.5697,0.5918,0.6034,0.6154,0.6271,0.626,0.62,0.6072,0.5627,0.0,0.0,0.0,0.0,0.0,0.0,0.5377,0.5719,0.5621,0.573,0.6158,0.7214,0.7782,0.7879,0.9648,1.117,1.2181,1.0492,0.942,0.9278,0.7777,0.0,0.0,0.0,0.0,0.0,0.0,0.0,0.0,0.0,0.0,0.0,0.0,0.0,0.0,0.0,0.0,0.0,0.0,0.0,0.0,-0.1076,0.0,0.0,0.0,0.0,0.0,0.0,0.0,0.0,0.0,0.0,-0.8059,-0.8931,-0.9554,-1.0022,0.0,0.0,0.0,0.0,-1.4021,-1.4013,-1.462,-1.5186,-1.5486,-1.5249,-1.4961,-1.4844,0.0,0.0,-1.3729,-1.3955,-1.4168,-1.4148,-1.3981,-1.3625,-1.3632,-1.3848,-1.3915,-1.3605,-1.292,-1.2673,-1.3467,-1.4234,-1.4526,1.2407,0.0,0.0,0.0,0.0,0.8232,0.7567,0.7521,0.6527,0.6124,0.6105,0.595,0.0,0.0,0.0,0.0,0.0,0.0,0.5863,0.6059,0.6064,0.6143,0.6282,0.632,0.6352,0.6388,0.6388,0.6372,0.6336,0.6121,0.5839,0.5504,0.0,0.0,0.0,0.0,0.5581,0.5833,0.6535,0.6982,0.7299,0.835,0.9324,1.0219,1.1467,1.2363,1.2665,1.068,0.9562,0.9446,0.7625,0.0,0.0,0.0,0.0,0.0,0.0,0.0,0.0,0.0,0.0,0.0,0.0,0.0,0.0,0.0,0.0,0.0,0.0,0.0,-0.0876,-0.1163,-0.1312,0.0,0.0,0.0,0.0,0.0,0.0,0.0,0.0,0.0,-0.6828,-0.761,-0.8364,0.0,0.0,-0.9919,-1.1131,-1.1689,-1.212,-1.2722,-1.3208,0.0,0.0,-1.3586,-1.3762,-1.3698,-1.4331,-1.481,-1.4843,-1.5137,-1.5331,-1.5324,-1.5264,-1.4858,-1.3969,-1.3728,-1.3778,-1.3844,-1.343,-1.3299,-1.4097,-1.4665,-1.4829,1.4582,1.3599,1.2527,1.1938,1.1634,1.0143,0.9474,0.931,0.8306,0.7889,0.7856,0.7171,0.6906,0.6918,0.6272,0.0,0.0,0.0,0.6219,0.6407,0.641,0.6497,0.6649,0.6654,0.6679,0.6717,0.6676,0.6632,0.6586,0.6467,0.6238,0.5815,0.0,0.0,0.5763,0.6117,0.6488,0.6683,0.7719,0.8355,0.8427,0.9577,1.0655,1.176,1.2427,1.2797,1.2797,1.1189,1.0045,0.9431,0.7893,0.6627,0.0,0.0,0.0,0.0,0.0,0.0,0.0,0.0,0.0,0.0,0.0,0.477,0.0,0.0,0.0,0.0,0.1678,0.0278,-0.1044,-0.1198,0.0,0.0,0.0,0.0,0.0,0.0,0.0,-0.5735,-0.5761,-0.5861,-0.624,-0.6676,-0.7167,-0.7851,-0.8494,-0.9269,-1.0387,0.0,-1.0881,-1.1706,-1.1996,-1.2244,-1.2492,-1.2955,-1.3362,-1.3696,-1.4402,-1.4863,-1.4772,-1.4967,-1.5051,-1.4657,-1.4481,-1.42,-1.3472,-1.3243,-1.3281,-1.3716,-1.4034,-1.4315,-1.4661,-1.4979,-1.5217,1.6225,1.5698,1.4266,1.368,1.3402,1.2442,1.1803,1.1531,1.0595,1.0257,1.0164,0.8928,0.8533,0.8636,0.7345,0.0,0.655,0.655,0.6622,0.6646,0.6649,0.6771,0.6994,0.6997,0.7054,0.7149,0.7048,0.6942,0.6828,0.6813,0.6691,0.6575,0.6446,0.6412,0.6289,0.7321,0.7855,0.7887,0.896,0.9631,0.9895,1.0783,1.1765,1.2759,1.2764,1.2758,1.2742,1.1647,1.0496,0.9207,0.817,0.6924,0.5463,0.0,0.0,0.0,0.0,0.0,0.0,0.0,0.0,0.0,0.0,0.0,0.0,0.0,0.0,0.0,0.088,0.0,-0.1243,-0.1172,0.0,0.0,0.0,-0.2607,-0.3608,-0.4229,-0.4925,-0.5852,0.0,0.0,-0.6279,0.0,-0.6173,-0.6659,-0.7913,-0.9,-0.9739,-0.9755,-1.0121,-1.0881,-1.1037,-1.1433,-1.2292,-1.2674,-1.3144,-1.3887,-1.4566,-1.4404,-1.3827,-1.3909,-1.3788,-1.3017,-1.256,-1.2379,-1.2598,-1.2416,-1.2433,-1.3026,-1.4565,-1.5589,-1.4845,-1.5246,-1.5604,1.6447,1.616,1.5758,1.4844,1.3429,1.2023,1.1001,1.0273,0.9822,0.9608,0.9518,1.0077,1.0128,0.9912,0.9398,0.8685,0.7896,0.7899,0.7519,0.6893,0.6896,0.6975,0.7111,0.7116,0.7127,0.7152,0.7127,0.71,0.7174,0.7806,0.8146,0.821,0.8866,0.8689,0.7472,0.8416,0.9009,0.9044,1.0145,1.1225,1.2068,1.2268,1.2565,1.2759,1.237,1.215,1.219,1.0079,0.8752,0.8374,0.6679,0.5572,0.5104,0.5075,0.0,0.0,0.0,0.0,0.0,0.0,0.0,0.0,0.0,0.4344,0.3708,0.0,0.2662,0.0,0.0078,-0.1303,-0.1278,-0.1298,0.0,0.0,-0.1441,-0.1855,-0.2799,-0.3637,-0.4489,-0.5381,-0.6099,-0.6454,-0.6297,-0.6366,-0.6455,-0.6641,-0.7138,-0.7783,-0.8815,-0.8942,-0.9296,-1.0051,-1.0657,-1.1051,-1.0999,-1.1249,-1.1732,-1.2118,-1.2543,-1.2734,-1.2797,-1.2953,-1.3022,-1.2727,-1.2689,-1.2383,-1.1648,-1.1516,-1.1472,-1.1814,-1.3931,-1.5223,-1.3671,-1.4543,-1.5523,1.6997,1.6883,1.6624,1.6008,1.4998,1.3861,1.294,1.2169,1.2065,1.1914,1.1842,1.1845,1.1463,1.0653,1.0447,0.9789,0.8656,0.8659,0.8107,0.7059,0.7059,0.7092,0.7154,0.7154,0.7154,0.7154,0.7154,0.7154,0.7263,0.8291,0.8794,0.8788,0.9815,0.9796,0.9015,1.0029,1.0487,1.0487,1.1495,1.221,1.2516,1.2515,1.2325,1.2221,1.1835,1.1487,1.1184,0.9719,0.8452,0.7393,0.6351,0.5463,0.4815,0.472,0.4696,0.0,0.0,0.0,0.0,0.0,0.0,0.0,0.0,0.0,0.0,0.0,0.1302,0.0334,-0.0657,-0.129,-0.1274,-0.1288,-0.1309,-0.1338,-0.1341,-0.1691,-0.2673,-0.3558,-0.4365,-0.5257,-0.6148,-0.6668,-0.6502,-0.6569,-0.6654,-0.6986,-0.7068,-0.7331,-0.7974,-0.8212,-0.8576,-0.9241,-0.975,-1.0138,-1.0207,-1.054,-1.0838,-1.1185,-1.1543,-1.1722,-1.16,-1.1752,-1.1839,-1.1448,-1.1277,-1.1179,-1.0592,-1.0498,-1.0498,-1.0703,-1.1825,-1.2818,-1.2748,-1.2904,-1.2984,1.74,1.74,1.7136,1.699,1.6915,1.6296,1.567,1.5147,1.5115,1.4972,1.4972,1.3789,1.2752,1.1564,1.1535,1.0647,0.9172,0.9168,0.8504,0.751,0.7274,0.7274,0.751,0.7382,0.7376,0.7374,0.7595,0.7706,0.7706,0.8699,0.914,0.9133,0.9873,1.0226,1.0329,1.1125,1.1643,1.169,1.2537,1.2746,1.2239,1.2063,1.185,1.1501,1.1132,1.0627,0.9998,0.9647,0.8452,0.6507,0.6315,0.5761,0.4551,0.4453,0.4364,0.0,0.4459,0.0,0.0,0.0,0.0,0.0,0.0,0.0,0.0,0.0966,-0.0351,-0.1222,-0.1288,-0.1276,-0.1279,-0.1361,-0.1371,-0.1398,-0.1401,-0.1763,-0.2592,-0.3524,-0.4437,-0.5213,-0.6153,-0.6756,-0.6732,-0.6729,-0.6899,-0.7318,-0.739,-0.7424,-0.7462,-0.7713,-0.8002,-0.853,-0.8565,-0.8909,-0.9756,-0.9995,-1.002,-1.0502,-1.0825,-1.0942,-1.037,-1.0533,-1.0455,-0.9841,-0.9706,-0.9723,-0.9624,-0.9624,-0.9624,-0.9723,-0.9826,-1.0413,-1.1556,-1.0955,-1.0233,1.7136,1.7141,1.7007,1.6894,1.6716,1.6587,1.5737,1.4479,1.4295,1.4705,1.5451,1.5025,1.4688,1.44,1.421,1.2866,1.0659,1.0659,0.9988,0.8871,0.7756,0.7762,0.8861,0.8644,0.8589,0.8592,0.9574,1.0014,1.0014,1.0233,1.0233,1.0017,1.0093,1.0069,0.9953,0.0,0.0,0.0,1.1555,1.1957,1.1849,1.1821,1.1638,1.1524,1.0453,0.0,0.932,0.7704,0.6533,0.6008,0.5345,0.0,0.0,0.0,0.0,0.0,0.0,0.0,0.0,0.0,0.0,0.0,0.0562,0.056,0.0748,-0.0468,-0.1295,-0.1343,-0.1333,-0.1429,-0.1453,-0.1523,-0.152,-0.1459,-0.1463,-0.1547,-0.1708,-0.3207,-0.4353,-0.4528,-0.6013,-0.7014,-0.6991,-0.6888,-0.7144,-0.765,-0.765,-0.7635,-0.777,-0.778,-0.784,-0.794,-0.7888,-0.803,-0.8823,-0.8668,-0.8538,-0.8539,-0.8943,-0.9151,-0.9216,-0.9516,-0.9727,-0.9421,-0.9527,-0.9624,-0.9624,-0.9624,-0.9624,-0.9624,-0.9624,-0.9723,-1.0109,-0.9635,-0.9598,1.7001,0.0,1.7001,1.6544,0.0,1.6567,1.5926,1.4556,1.4853,1.5204,1.5591,1.5478,1.5365,1.5246,1.5122,1.3893,1.1968,1.1306,1.037,0.9246,0.7832,0.761,0.8351,0.824,0.8201,0.8139,0.8693,0.8991,0.9027,0.935,0.9567,0.935,0.924,0.902,0.8903,0.913,0.9708,1.072,1.1059,1.133,1.1435,1.134,1.1196,1.0988,0.0,0.0,0.0,0.0,0.0,0.0,0.0,0.0,0.0,0.0,0.0,0.3075,0.3077,0.2591,0.151,0.1409,0.0805,-0.0504,-0.0806,-0.0797,-0.0678,-0.1257,-0.1536,-0.1505,-0.1489,-0.1486,-0.15,-0.1489,-0.1572,-0.1481,-0.148,-0.1469,-0.162,-0.313,-0.4109,-0.4105,-0.58,-0.7112,-0.7135,-0.7034,-0.7173,-0.7543,-0.7681,-0.7865,-0.8041,-0.8058,-0.7975,-0.7793,-0.7602,-0.7638,-0.7957,-0.7947,-0.7817,-0.8004,-0.8247,-0.8556,-0.8901,-0.9104,-0.9279,-0.9437,-0.9571,-0.9624,-0.9624,-0.9624,-0.9624,-0.9624,-0.9624,-0.9592,-0.9518,-0.9388,-0.9311,1.7001,1.7001,1.7001,1.6219,1.5038,1.6089,1.5703,1.4321,0.0,0.0,0.0,1.4934,1.4806,1.4605,1.46,1.3771,1.24,1.1326,1.0235,0.9332,0.7944,0.7492,0.7746,0.7826,0.7925,0.7935,0.7932,0.8091,0.8187,0.8399,0.8494,0.8361,0.7919,0.759,0.759,0.7817,0.8699,1.0221,1.0638,1.089,1.1211,1.0957,1.0729,1.0436,0.9827,0.8922,0.7635,0.7045,0.6103,0.4747,0.473,0.4779,0.4781,0.4845,0.4278,0.3067,0.2997,0.2084,0.0105,0.0528,0.0213,-0.1598,-0.1704,-0.1673,-0.16,-0.159,-0.1588,-0.1588,-0.1555,-0.1536,-0.1541,-0.1537,-0.1619,-0.1499,-0.1496,-0.1485,-0.1547,-0.2974,-0.3778,-0.368,-0.5369,-0.6966,-0.7054,-0.7139,-0.7186,-0.7433,-0.7759,-0.8074,-0.8283,-0.8264,-0.7982,-0.7509,-0.725,-0.718,-0.7076,-0.7096,-0.7343,-0.7375,-0.7601,-0.7933,-0.8394,-0.8559,-0.8687,-0.869,-0.9104,-0.9217,-0.9229,-0.9409,-0.9535,-0.9531,-0.9535,-0.949,-0.9352,-0.9279,-0.9238,1.7007,1.7001,1.7001,1.6219,1.4907,1.5173,1.4267,1.2776,1.3964,1.3747,1.2458,1.2458,1.2352,1.2175,1.2175,1.1483,1.0148,0.9887,0.9763,0.0,0.8119,0.8128,0.9288,0.9065,0.9582,1.0593,1.0471,1.107,1.1703,0.9666,0.8367,0.7931,0.6816,0.6044,0.5824,0.5826,0.6379,0.7376,0.9563,1.0761,1.0761,1.0736,1.0662,1.0329,0.8983,0.7986,0.7545,0.616,0.5216,0.4924,0.5002,0.5053,0.5051,0.5061,0.4358,0.2909,0.2241,0.096,-0.13,-0.1394,-0.1384,-0.1704,-0.1704,-0.1699,-0.1686,-0.1663,-0.165,-0.1647,-0.1599,-0.1577,-0.1598,-0.1581,-0.1562,-0.1558,-0.1558,-0.1547,-0.1513,-0.2414,-0.3215,-0.3305,-0.4881,-0.626,-0.6986,-0.7248,-0.7401,-0.7731,-0.7975,-0.8269,-0.8376,-0.8251,-0.7597,-0.6745,-0.6412,-0.6139,-0.5772,-0.5488,-0.5767,-0.5729,-0.586,-0.6115,-0.6406,-0.6609,-0.6691,-0.6623,-0.7412,-0.7946,-0.8048,-0.8694,-0.9013,-0.9115,-0.9214,-0.9181,-0.9141,-0.9019,-0.8909,1.6849,1.6165,1.6054,1.4809,1.268,1.2716,1.2235,1.1504,1.2079,1.2278,1.2041,1.2029,1.1929,1.1764,1.176,1.1417,1.0658,0.9982,0.9595,0.9469,0.8228,0.7881,0.8528,0.8534,0.8857,0.9258,0.9251,0.9408,0.9731,0.8229,0.7364,0.7022,0.6072,0.5491,0.5382,0.5826,0.627,0.6715,0.7928,0.9034,0.9919,1.0025,1.021,1.0574,0.9727,0.8752,0.7762,0.6904,0.6032,0.5047,0.5084,0.4788,0.4151,0.4184,0.3354,0.1637,0.1094,-0.0,-0.1662,-0.1761,-0.1753,-0.1754,-0.1754,-0.1753,-0.1753,-0.1711,-0.1685,-0.1579,-0.1542,-0.1626,-0.1537,-0.1614,-0.159,-0.1573,-0.1572,-0.1559,-0.1625,-0.2341,-0.2681,-0.2581,-0.3893,-0.5458,-0.6903,-0.6802,-0.6933,-0.7668,-0.7989,-0.8159,-0.8336,-0.7851,-0.7268,-0.6709,-0.6455,-0.6028,-0.5347,-0.5194,-0.5266,-0.5424,-0.5448,-0.5616,-0.5855,-0.5954,-0.5998,-0.607,-0.6602,-0.7104,-0.7486,-0.8056,-0.8528,-0.9003,-0.9096,-0.9068,-0.8966,-0.8808,-0.8694,1.5905,1.4896,1.4791,1.3247,1.0921,1.0368,1.0174,1.0174,1.0174,1.0571,1.1265,1.1344,1.1232,1.108,1.1035,1.0949,1.0694,0.9703,0.9165,0.9051,0.8245,0.7766,0.7752,0.7858,0.7975,0.8108,0.7859,0.7798,0.7802,0.7202,0.655,0.6315,0.5669,0.54,0.5382,0.6049,0.6381,0.6381,0.6381,0.7265,0.9027,0.914,0.9361,1.0017,0.9689,0.896,0.7732,0.7338,0.6544,0.5247,0.4943,0.4305,0.3446,0.2939,0.2084,0.077,-0.0,-0.0784,-0.1683,-0.1795,-0.1795,-0.1795,-0.1795,-0.1795,-0.1791,-0.1752,-0.1721,-0.1606,-0.1688,-0.1671,-0.1669,-0.1645,-0.1618,-0.1595,-0.1585,-0.1575,-0.1645,-0.2176,-0.2326,-0.1763,-0.2909,-0.4478,-0.5489,-0.5941,-0.6624,-0.7781,-0.8045,-0.8096,-0.8006,-0.7393,-0.6877,-0.6325,-0.6129,-0.5535,-0.488,-0.4725,-0.4676,-0.4841,-0.4849,-0.4812,-0.5008,-0.5145,-0.5473,-0.5535,-0.5958,-0.634,-0.7105,-0.7752,-0.8004,-0.8512,-0.8702,-0.8913,-0.8787,-0.8674,-0.8576,1.3522,1.3263,1.339,1.2406,1.0782,0.9439,0.8859,0.8856,0.8853,0.8845,0.9059,0.8836,0.8719,0.8591,0.8609,0.8551,0.8522,0.8153,0.8102,0.8116,0.8094,0.7962,0.7877,0.7978,0.8585,0.9316,0.8453,0.8389,0.9103,0.7909,0.6857,0.6104,0.573,0.5459,0.5392,0.5495,0.5493,0.5493,0.5491,0.6376,0.8029,0.814,0.8143,0.8251,0.7476,0.6979,0.6777,0.5976,0.5424,0.5138,0.4307,0.3674,0.3338,0.1557,0.0669,0.1342,-0.0447,-0.1678,-0.1794,-0.1795,-0.1795,-0.1795,-0.1795,-0.1795,-0.1795,-0.1789,-0.1774,-0.1748,-0.1718,-0.1701,-0.1699,-0.1675,-0.1655,-0.1646,-0.1626,-0.1611,-0.1599,-0.1654,-0.1616,-0.1521,-0.2394,-0.2794,-0.275,-0.4858,-0.7138,-0.8181,-0.8408,-0.8154,-0.7446,-0.7095,-0.6301,-0.5041,-0.44,-0.3912,-0.3358,-0.3032,-0.3288,-0.3213,-0.3128,-0.3291,-0.3452,-0.3469,-0.3418,-0.4889,-0.525,-0.5836,-0.6391,-0.7088,-0.8025,-0.7826,-0.8124,-0.8633,-0.8597,-0.8568,-0.8548,1.2417,1.2015,1.1982,1.1063,0.9718,0.8982,0.8696,0.869,0.8619,0.8587,0.8581,0.8538,0.8454,0.8474,0.8291,0.8233,0.816,0.8108,0.8084,0.8081,0.8065,0.8062,0.8079,0.7978,0.8318,0.8703,0.815,0.8085,0.8398,0.7488,0.6693,0.614,0.5733,0.5543,0.5461,0.5455,0.5433,0.5384,0.5382,0.5712,0.6376,0.6932,0.7482,0.7919,0.77,0.7243,0.6764,0.6362,0.5582,0.4325,0.3791,0.2572,0.0447,-0.0558,-0.1451,-0.2234,-0.2011,-0.2124,-0.2799,-0.2241,-0.1795,-0.1795,-0.1795,-0.1795,-0.1795,-0.1795,-0.1789,-0.1776,-0.1749,-0.1731,-0.1729,-0.1704,-0.168,-0.1665,-0.165,-0.1637,-0.1618,-0.1579,-0.1553,-0.155,-0.1799,-0.1956,-0.2152,-0.5296,-0.7661,-0.78,-0.786,-0.7952,-0.7231,-0.6697,-0.5719,-0.4556,-0.3791,-0.3249,-0.2915,-0.2804,-0.2789,-0.2778,-0.2752,-0.2799,-0.329,-0.346,-0.3757,-0.4746,-0.518,-0.5812,-0.6393,-0.6751,-0.737,-0.7392,-0.7989,-0.8572,-0.8572,-0.8479,-0.845,1.12,1.0802,1.066,0.9856,0.8818,0.8785,0.875,0.8712,0.8625,0.8587,0.859,0.8619,0.8595,0.8648,0.8451,0.8367,0.8291,0.825,0.8233,0.8231,0.8174,0.8182,0.8214,0.81,0.8049,0.8084,0.8016,0.7956,0.779,0.7074,0.6527,0.6248,0.5831,0.5635,0.5551,0.5522,0.549,0.5455,0.541,0.5392,0.5522,0.6061,0.6601,0.726,0.7257,0.693,0.6379,0.6381,0.5483,0.3694,0.3245,0.1677,-0.1564,-0.2457,-0.358,-0.5058,-0.3826,-0.2815,-0.3156,-0.2258,-0.1804,-0.1796,-0.1795,-0.1795,-0.1795,-0.1795,-0.1795,-0.1793,-0.1775,-0.1762,-0.1759,-0.1735,-0.1708,-0.1688,-0.1675,-0.1652,-0.1632,-0.1596,-0.1571,-0.1569,-0.154,-0.172,-0.2389,-0.5211,-0.7156,-0.665,-0.7047,-0.7282,-0.6471,-0.5744,-0.501,-0.4121,-0.3318,-0.2962,-0.2871,-0.2843,-0.2805,-0.2755,-0.2718,-0.2851,-0.3483,-0.3635,-0.4157,-0.4856,-0.5261,-0.5797,-0.6479,-0.6756,-0.712,-0.7919,-0.83,-0.841,-0.8455,-0.8357,-0.8394,0.938,0.9264,0.9,0.8946,0.8932,0.8818,0.8706,0.8619,0.8592,0.8587,0.8611,0.8709,0.8755,0.8734,0.8543,0.8421,0.8399,0.8312,0.8263,0.8266,0.8345,0.8339,0.8244,0.8337,0.8329,0.8231,0.8071,0.7891,0.7546,0.6822,0.6348,0.6266,0.6026,0.5731,0.5641,0.5561,0.5551,0.5592,0.5475,0.5426,0.5482,0.5539,0.5504,0.5618,0.5607,0.5609,0.5497,0.5493,0.4931,0.3582,0.2574,0.0783,-0.1788,-0.4019,-0.5398,-0.5473,-0.527,-0.4244,-0.2409,-0.195,-0.1825,-0.18,-0.1795,-0.1795,-0.1795,-0.1795,-0.1795,-0.1795,-0.1792,-0.1789,-0.1787,-0.1764,-0.1746,-0.1737,-0.1695,-0.1669,-0.166,-0.1615,-0.1577,-0.1574,-0.1558,-0.1936,-0.3219,-0.41,-0.5246,-0.559,-0.5927,-0.57,-0.505,-0.4538,-0.4059,-0.3427,-0.2976,-0.2876,-0.2875,-0.2861,-0.2812,-0.2755,-0.2713,-0.2742,-0.2918,-0.3271,-0.4194,-0.5135,-0.5912,-0.6453,-0.675,-0.7098,-0.7577,-0.8016,-0.7963,-0.804,-0.8329,-0.8487,-0.852,0.9237,0.9122,0.9,0.8951,0.8938,0.8821,0.8745,0.8701,0.8619,0.8633,0.8701,0.875,0.8815,0.9024,0.8799,0.8717,0.8641,0.8595,0.8538,0.8465,0.8432,0.8432,0.8454,0.8359,0.8197,0.8078,0.7889,0.7704,0.7282,0.6859,0.654,0.6335,0.6079,0.5882,0.5751,0.57,0.5674,0.5639,0.5576,0.5565,0.5588,0.5565,0.5549,0.5545,0.5492,0.5461,0.5461,0.5461,0.4528,0.2576,0.2015,-0.0,-0.3797,-0.6364,-0.731,-0.6507,-0.5382,-0.4125,-0.31,-0.2184,-0.1827,-0.18,-0.1795,-0.1795,-0.1795,-0.1795,-0.1795,-0.1795,-0.1795,-0.1795,-0.1793,-0.1785,-0.1771,-0.175,-0.1731,-0.1708,-0.1691,-0.1669,-0.1656,-0.1652,-0.1631,-0.1913,-0.2589,-0.3652,-0.4501,-0.4776,-0.5344,-0.527,-0.4695,-0.4388,-0.3994,-0.3263,-0.2985,-0.2973,-0.2929,-0.2894,-0.2845,-0.2778,-0.2806,-0.2994,-0.325,-0.3884,-0.4854,-0.5551,-0.6481,-0.7038,-0.7239,-0.7388,-0.7874,-0.787,-0.7813,-0.7955,-0.8243,-0.8421,-0.8454,0.9294,0.919,0.9141,0.9079,0.9005,0.8924,0.8864,0.8823,0.8742,0.8753,0.8826,0.8867,0.8938,0.9011,0.9049,0.9,0.8889,0.8848,0.8783,0.8701,0.8587,0.8573,0.8603,0.8443,0.8261,0.7916,0.7574,0.7265,0.7128,0.6713,0.6534,0.6347,0.6218,0.6021,0.5888,0.5841,0.579,0.5735,0.5676,0.5655,0.5678,0.5657,0.5659,0.5674,0.5627,0.558,0.5555,0.5551,0.436,0.2264,0.1806,-0.0225,-0.4472,-0.6927,-0.7561,-0.6093,-0.4385,-0.3358,-0.3027,-0.2324,-0.1842,-0.1812,-0.18,-0.1795,-0.1795,-0.1795,-0.1795,-0.1795,-0.1795,-0.1795,-0.1795,-0.1795,-0.1786,-0.1766,-0.1756,-0.1742,-0.1722,-0.171,-0.1703,-0.1696,-0.1673,-0.1754,-0.2141,-0.3103,-0.3666,-0.3755,-0.4562,-0.4608,-0.4223,-0.4009,-0.3899,-0.3236,-0.3113,-0.2992,-0.2959,-0.2925,-0.2865,-0.2798,-0.2741,-0.3096,-0.3607,-0.4395,-0.5202,-0.5965,-0.6688,-0.7285,-0.763,-0.772,-0.7844,-0.7789,-0.7813,-0.7841,-0.8093,-0.8459,-0.8446,0.9408,0.9323,0.943,0.9313,0.9141,0.9098,0.9046,0.8946,0.8932,0.8929,0.8962,0.9065,0.9109,0.9155,0.9226,0.9226,0.9117,0.8874,0.8812,0.8908,0.881,0.8761,0.8764,0.8515,0.8315,0.7922,0.7294,0.6854,0.6843,0.6509,0.6329,0.6186,0.6182,0.6135,0.6049,0.5961,0.5914,0.5876,0.5753,0.5704,0.5759,0.5708,0.5706,0.5772,0.5774,0.5733,0.5655,0.553,0.4315,0.2299,0.1834,0.0114,-0.3258,-0.5491,-0.5681,-0.3852,-0.2584,-0.2132,-0.1918,-0.1898,-0.1868,-0.1838,-0.1811,-0.1795,-0.1795,-0.1795,-0.1795,-0.1795,-0.1795,-0.1795,-0.1795,-0.1795,-0.1794,-0.1792,-0.177,-0.1755,-0.1746,-0.1725,-0.1705,-0.1705,-0.1687,-0.1769,-0.2067,-0.2454,-0.2833,-0.3011,-0.3279,-0.344,-0.3333,-0.3396,-0.3161,-0.3148,-0.3052,-0.3037,-0.2996,-0.2952,-0.2884,-0.2819,-0.2764,-0.2962,-0.3503,-0.4245,-0.5135,-0.5952,-0.7001,-0.7616,-0.7801,-0.7882,-0.7927,-0.7947,-0.7849,-0.7816,-0.8162,-0.8495,-0.8512,0.9386,0.941,0.9294,0.9253,0.9226,0.9079,0.8981,0.8957,0.8951,0.8997,0.9073,0.912,0.9177,0.9245,0.9291,0.9285,0.9247,0.8918,0.8829,0.8834,0.8636,0.8482,0.8474,0.8166,0.7832,0.7367,0.6927,0.6608,0.6552,0.6514,0.6341,0.6288,0.6276,0.6227,0.6141,0.593,0.5886,0.5996,0.5894,0.5849,0.5874,0.5847,0.5847,0.5872,0.5874,0.5857,0.5833,0.4929,0.354,0.1956,0.1033,-0.0343,-0.216,-0.3747,-0.3342,-0.154,-0.2506,-0.2273,-0.0961,-0.1426,-0.1872,-0.1842,-0.1812,-0.1797,-0.1795,-0.1795,-0.1795,-0.1795,-0.1795,-0.1795,-0.1795,-0.1795,-0.1795,-0.1795,-0.1787,-0.1779,-0.1778,-0.1771,-0.1757,-0.1739,-0.1727,-0.1812,-0.2093,-0.2284,-0.2585,-0.2741,-0.3041,-0.3247,-0.3207,-0.3184,-0.3174,-0.317,-0.314,-0.309,-0.3048,-0.3022,-0.2985,-0.2905,-0.2832,-0.2851,-0.3399,-0.4329,-0.5241,-0.6183,-0.7239,-0.7688,-0.7951,-0.8032,-0.8077,-0.8158,-0.8115,-0.8211,-0.8422,-0.8545,-0.8533,0.9459,0.9478,0.9421,0.9408,0.9419,0.9228,0.915,0.9141,0.9101,0.9128,0.9188,0.9198,0.9234,0.9294,0.9304,0.916,0.9018,0.8874,0.8655,0.8525,0.8331,0.8321,0.8168,0.785,0.753,0.7201,0.6777,0.6613,0.6555,0.6519,0.6474,0.6425,0.6386,0.6323,0.6237,0.605,0.6012,0.6096,0.6012,0.5967,0.5959,0.5935,0.5919,0.5916,0.5916,0.5919,0.579,0.4515,0.347,0.2562,0.1382,0.0345,-0.0346,-0.1039,-0.07,0.0119,-0.048,-0.0962,-0.012,-0.0713,-0.1403,-0.1727,-0.1812,-0.1795,-0.1795,-0.1795,-0.1795,-0.1795,-0.1795,-0.1795,-0.1795,-0.1795,-0.1795,-0.1795,-0.1794,-0.1795,-0.1795,-0.1795,-0.1788,-0.1768,-0.1755,-0.1947,-0.2138,-0.2203,-0.2515,-0.2771,-0.2986,-0.3211,-0.3172,-0.3264,-0.3262,-0.3243,-0.3191,-0.3142,-0.3098,-0.3086,-0.3083,-0.3004,-0.2916,-0.3021,-0.3304,-0.4482,-0.555,-0.6726,-0.7816,-0.7897,-0.8069,-0.8166,-0.8239,-0.8255,-0.8364,-0.8467,-0.8599,-0.8582,-0.8582,0.9587,0.953,0.972,0.9731,0.9655,0.9527,0.9459,0.9449,0.9356,0.9299,0.9299,0.9288,0.9294,0.9302,0.9304,0.9016,0.8726,0.8582,0.8435,0.8102,0.7905,0.7858,0.7851,0.7504,0.7318,0.7152,0.6871,0.6725,0.6692,0.6629,0.6592,0.6562,0.649,0.6415,0.6337,0.6319,0.6259,0.6186,0.6104,0.6059,0.6043,0.5976,0.5933,0.5933,0.5935,0.5943,0.5706,0.4807,0.4003,0.3659,0.2438,0.1971,0.211,0.2116,0.2015,0.2289,0.2168,0.1084,0.048,-0.0,-0.0584,-0.1612,-0.1814,-0.1795,-0.1795,-0.1795,-0.1795,-0.1795,-0.1795,-0.1795,-0.1795,-0.1795,-0.1795,-0.1795,-0.1795,-0.1795,-0.1795,-0.1795,-0.1792,-0.1788,-0.177,-0.1859,-0.2069,-0.2126,-0.241,-0.2695,-0.2901,-0.3105,-0.3194,-0.3286,-0.3308,-0.3279,-0.3229,-0.3191,-0.3147,-0.3147,-0.3136,-0.3052,-0.308,-0.3223,-0.3676,-0.4884,-0.5876,-0.7161,-0.8143,-0.8203,-0.8235,-0.8377,-0.8495,-0.8617,-0.8645,-0.8681,-0.8861,-0.8987,-0.9196,0.9487,0.9614,0.9593,0.9661,0.9764,0.9671,0.9565,0.9489,0.9451,0.9372,0.9321,0.9304,0.9302,0.9304,0.9016,0.8726,0.8582,0.8148,0.7858,0.7709,0.7404,0.7242,0.7242,0.7219,0.7023,0.6969,0.696,0.6788,0.6729,0.6705,0.6658,0.659,0.6572,0.6509,0.6425,0.6357,0.6308,0.6274,0.6192,0.6114,0.6063,0.6037,0.6019,0.6019,0.6019,0.6047,0.6086,0.5607,0.4396,0.2754,0.318,0.3413,0.3461,0.3469,0.3733,0.4266,0.3056,0.1946,0.1443,0.0593,-0.0467,-0.1612,-0.1812,-0.1795,-0.1795,-0.1795,-0.1795,-0.1795,-0.1795,-0.1795,-0.1795,-0.1795,-0.1795,-0.1795,-0.1795,-0.1795,-0.1795,-0.1795,-0.1795,-0.1793,-0.1787,-0.1884,-0.1973,-0.2168,-0.2346,-0.2618,-0.2913,-0.3214,-0.3305,-0.3297,-0.3318,-0.3304,-0.3266,-0.3232,-0.3207,-0.3207,-0.3173,-0.309,-0.3247,-0.3448,-0.4301,-0.5657,-0.6441,-0.7344,-0.8336,-0.8621,-0.8637,-0.8714,-0.8816,-0.8942,-0.8954,-0.8954,-0.9553,-0.9822,-1.0192,0.9465,0.9598,0.962,0.9682,0.9756,0.9696,0.9601,0.9492,0.943,0.9375,0.9313,0.9304,0.9157,0.9018,0.8871,0.8582,0.8148,0.7856,0.7566,0.7278,0.7131,0.6986,0.6986,0.6988,0.6962,0.6917,0.6911,0.6886,0.6839,0.68,0.6749,0.6709,0.6664,0.6598,0.6515,0.6464,0.6408,0.6368,0.6286,0.621,0.6168,0.6125,0.6108,0.6108,0.6108,0.6135,0.6157,0.608,0.5222,0.4141,0.4315,0.4666,0.4732,0.4742,0.5129,0.5794,0.4433,0.3301,0.2047,0.1304,0.0117,-0.1381,-0.1812,-0.1797,-0.1795,-0.1795,-0.1795,-0.1795,-0.1795,-0.1795,-0.1795,-0.1795,-0.1795,-0.1795,-0.1795,-0.1795,-0.1795,-0.1795,-0.1795,-0.1795,-0.1794,-0.179,-0.177,-0.2088,-0.2385,-0.2565,-0.2982,-0.3163,-0.3337,-0.333,-0.333,-0.3334,-0.3335,-0.3313,-0.3292,-0.3286,-0.3279,-0.3195,-0.3233,-0.3443,-0.4426,-0.5748,-0.651,-0.7269,-0.8302,-0.9035,-0.9027,-0.9072,-0.9226,-0.9315,-0.9232,-0.9498,-1.0116,-1.1422,-1.1676,0.9476,0.9503,0.9712,0.975,0.968,0.9666,0.9601,0.9478,0.9389,0.9329,0.9163,0.916,0.9016,0.8584,0.8437,0.8148,0.7713,0.7568,0.7278,0.7133,0.699,0.699,0.699,0.699,0.6984,0.6974,0.6986,0.6978,0.6945,0.6894,0.6862,0.6821,0.6764,0.6694,0.6615,0.6584,0.6541,0.6466,0.6378,0.6052,0.6017,0.5966,0.5939,0.5165,0.5182,0.5304,0.5431,0.5533,0.5224,0.5331,0.5614,0.5734,0.579,0.5792,0.5667,0.5544,0.517,0.4158,0.2289,0.1545,0.0703,-0.1272,-0.182,-0.18,-0.1802,-0.18,-0.1795,-0.1795,-0.1797,-0.1803,-0.1803,-0.18,-0.1795,-0.1795,-0.1795,-0.1795,-0.1795,-0.1795,-0.1795,-0.1795,-0.1795,-0.1795,-0.2011,-0.2214,-0.2514,-0.2812,-0.3018,-0.3195,-0.3384,-0.3387,-0.3397,-0.3412,-0.341,-0.3406,-0.3386,-0.3368,-0.3358,-0.3322,-0.3251,-0.3414,-0.4013,-0.5095,-0.6205,-0.7149,-0.7974,-0.8806,-0.9336,-0.9441,-0.9579,-0.9517,-0.9481,-1.0087,-1.089,-1.2872,-1.3814,0.94,0.9492,0.9538,0.9606,0.9661,0.9666,0.9598,0.9481,0.9457,0.9232,0.8889,0.8874,0.8584,0.8152,0.8003,0.7711,0.7568,0.7278,0.7135,0.6988,0.699,0.699,0.699,0.699,0.699,0.699,0.699,0.699,0.6978,0.6962,0.6921,0.6858,0.6841,0.6782,0.6702,0.6501,0.6586,0.6547,0.6472,0.5592,0.5017,0.5517,0.5106,0.3407,0.317,0.3038,0.2886,0.2881,0.2856,0.3321,0.4658,0.5607,0.5575,0.5684,0.5188,0.4564,0.431,0.3181,-0.0,-0.0,-0.0119,-0.1528,-0.1851,-0.1831,-0.1828,-0.181,-0.1799,-0.18,-0.1815,-0.1829,-0.1826,-0.1808,-0.1799,-0.1796,-0.1795,-0.1795,-0.1795,-0.1795,-0.1795,-0.1795,-0.1795,-0.1907,-0.2242,-0.2546,-0.2853,-0.2953,-0.3148,-0.3328,-0.3432,-0.344,-0.3451,-0.3465,-0.3465,-0.3461,-0.3463,-0.3439,-0.3413,-0.3392,-0.3335,-0.3297,-0.3815,-0.4334,-0.5289,-0.6374,-0.7492,-0.835,-0.9176,-0.9677,-0.9795,-0.9706,-0.9851,-1.0575,-1.1726,-1.3913,-1.5388,0.9343,0.9405,0.9462,0.9489,0.9508,0.9555,0.9514,0.9416,0.9256,0.8931,0.8739,0.8584,0.815,0.786,0.7713,0.7566,0.7278,0.7135,0.699,0.699,0.699,0.699,0.699,0.699,0.699,0.699,0.699,0.699,0.699,0.6986,0.6962,0.6921,0.6913,0.687,0.6655,0.603,0.5577,0.5253,0.4781,0.3916,0.349,0.3861,0.385,0.2392,0.2139,0.2139,0.2127,0.2125,0.2109,0.2346,0.3356,0.4089,0.4038,0.4023,0.3635,0.3113,0.2985,0.2109,-0.0,-0.0,-0.0482,-0.1808,-0.1888,-0.1868,-0.186,-0.1845,-0.1839,-0.184,-0.185,-0.1857,-0.1842,-0.1829,-0.1813,-0.1797,-0.1795,-0.1795,-0.1795,-0.1795,-0.1795,-0.1795,-0.1795,-0.2019,-0.2345,-0.2662,-0.2992,-0.3101,-0.3323,-0.3508,-0.3482,-0.3489,-0.3492,-0.3501,-0.3506,-0.3512,-0.3526,-0.3507,-0.3463,-0.3429,-0.338,-0.3361,-0.3532,-0.3985,-0.4331,-0.5567,-0.6931,-0.8203,-0.9031,-0.9427,-0.9975,-1.0229,-1.0493,-1.1154,-1.2506,-1.4723,-1.5815,0.9304,0.9313,0.9416,0.94,0.9329,0.9416,0.9259,0.9173,0.8729,0.8592,0.844,0.815,0.7858,0.7566,0.7423,0.7278,0.7133,0.6992,0.6994,0.7025,0.6998,0.7009,0.7013,0.7005,0.699,0.699,0.699,0.699,0.699,0.6988,0.6982,0.6982,0.6549,0.6361,0.6167,0.4994,0.4108,0.3925,0.3046,0.2193,0.2049,0.2164,0.2153,0.1609,0.1078,0.1077,0.094,0.1072,0.1201,0.1322,0.132,0.1312,0.143,0.1803,0.1667,0.1643,0.1643,0.0884,-0.0126,-0.0,-0.0983,-0.1986,-0.1941,-0.1912,-0.1909,-0.1898,-0.1889,-0.1886,-0.1768,-0.1876,-0.1857,-0.185,-0.1836,-0.182,-0.1811,-0.1808,-0.1808,-0.1808,-0.1812,-0.1795,-0.1795,-0.2019,-0.2356,-0.2683,-0.2912,-0.3139,-0.3475,-0.3578,-0.3549,-0.3536,-0.3537,-0.3538,-0.3542,-0.3544,-0.3557,-0.3555,-0.3514,-0.347,-0.3424,-0.3413,-0.341,-0.3591,-0.4176,-0.5137,-0.635,-0.7618,-0.8676,-0.9333,-0.9842,-1.0457,-1.0849,-1.1224,-1.2996,-1.5452,-1.5805,0.9304,0.9304,0.9326,0.9321,0.9307,0.8894,0.8894,0.8731,0.8442,0.8005,0.7856,0.7713,0.7423,0.7133,0.7133,0.699,0.699,0.7001,0.7035,0.7072,0.7045,0.7039,0.6776,0.6753,0.6714,0.699,0.6704,0.6561,0.6843,0.699,0.6406,0.6551,0.5677,0.5079,0.4625,0.3448,0.2572,0.2557,0.1826,0.125,0.0689,0.1094,0.1222,0.0405,-0.0543,-0.095,-0.1213,-0.1346,-0.1478,-0.1476,-0.1475,-0.1473,-0.093,0.0653,0.1033,0.0514,0.0257,-0.0257,-0.1282,-0.1662,-0.1786,-0.1913,-0.2011,-0.1994,-0.1983,-0.1956,-0.1939,-0.1926,-0.1913,-0.2016,-0.2034,-0.1897,-0.1879,-0.187,-0.1867,-0.1867,-0.1868,-0.1867,-0.1851,-0.1937,-0.1922,-0.2024,-0.2367,-0.2818,-0.3038,-0.3265,-0.3491,-0.3594,-0.3572,-0.3681,-0.3689,-0.3689,-0.3579,-0.3579,-0.3582,-0.3576,-0.3555,-0.3512,-0.3474,-0.3454,-0.3454,-0.3465,-0.4003,-0.5076,-0.5952,-0.6867,-0.7932,-0.8999,-0.9794,-1.0468,-1.0789,-1.1109,-1.2635,-1.4164,-1.4493,0.9304,0.9302,0.9016,0.9016,0.8874,0.8584,0.844,0.8297,0.8005,0.7713,0.7568,0.7423,0.7135,0.699,0.699,0.699,0.6996,0.7045,0.7084,0.7115,0.7129,0.6522,0.6101,0.5931,0.5148,0.4832,0.4538,0.5124,0.568,0.4803,0.4803,0.4365,0.3784,0.3494,0.3054,0.1881,0.1154,0.1007,0.0285,-0.0423,-0.112,-0.0277,-0.0547,-0.1093,-0.1641,-0.2183,-0.2164,-0.2173,-0.2169,-0.2158,-0.2155,-0.2155,-0.1744,-0.1198,-0.0394,-0.0915,-0.1043,-0.1304,-0.1953,-0.2076,-0.2068,-0.2082,-0.206,-0.2044,-0.2037,-0.2017,-0.1997,-0.1993,-0.1991,-0.1976,-0.21,-0.2071,-0.1928,-0.1913,-0.203,-0.2031,-0.2033,-0.2044,-0.214,-0.2335,-0.2559,-0.2658,-0.2505,-0.2842,-0.3167,-0.339,-0.3621,-0.3726,-0.3826,-0.4167,-0.4516,-0.415,-0.4143,-0.4145,-0.4143,-0.4142,-0.4139,-0.4098,-0.3955,-0.3934,-0.3931,-0.416,-0.451,-0.5184,-0.5865,-0.6851,-0.7645,-0.8906,-0.9688,-1.0468,-1.0684,-1.1118,-1.1873,-1.263,-1.3068,0.9016,0.9016,0.8729,0.8584,0.844,0.8152,0.8008,0.8005,0.7566,0.7421,0.7423,0.7133,0.699,0.699,0.699,0.699,0.6998,0.708,0.7131,0.7021,0.6612,0.5862,0.5109,0.4199,0.3739,0.2956,0.2074,0.2659,0.3792,0.3202,0.2475,0.2475,0.2184,0.1893,0.1455,0.0291,-0.0291,-0.0872,-0.159,-0.2298,-0.2279,-0.2246,-0.2214,-0.2212,-0.2215,-0.2207,-0.2186,-0.2198,-0.2198,-0.2186,-0.2178,-0.2176,-0.2172,-0.2168,-0.2153,-0.2131,-0.2123,-0.2119,-0.2113,-0.2101,-0.21,-0.2115,-0.2096,-0.2086,-0.208,-0.2075,-0.2065,-0.2065,-0.2056,-0.2554,-0.3158,-0.3007,-0.2976,-0.2953,-0.3063,-0.2938,-0.3318,-0.3454,-0.3585,-0.3538,-0.3377,-0.344,-0.3503,-0.3118,-0.3453,-0.4365,-0.4601,-0.5167,-0.5262,-0.5581,-0.5684,-0.5058,-0.47,-0.4812,-0.4812,-0.5033,-0.5142,-0.5123,-0.5094,-0.5072,-0.5186,-0.5196,-0.5552,-0.601,-0.6898,-0.7778,-0.8352,-0.8692,-0.9581,-1.0249,-1.0582,-1.0907,-1.1446,-1.1546,-1.176,0.8295,0.8297,0.8152,0.8152,0.815,0.7858,0.7713,0.7568,0.7278,0.7133,0.7135,0.699,0.699,0.699,0.699,0.699,0.6871,0.6788,0.6716,0.6469,0.5588,0.4854,0.4421,0.318,0.2262,0.1496,0.0601,0.119,0.1906,0.2042,0.204,0.175,0.0729,0.0291,0.0146,-0.102,-0.2041,-0.204,-0.2182,-0.2315,-0.2295,-0.2281,-0.2262,-0.2253,-0.2258,-0.2258,-0.223,-0.2234,-0.2233,-0.2231,-0.2231,-0.2233,-0.2231,-0.2208,-0.2197,-0.2183,-0.2168,-0.215,-0.2146,-0.2137,-0.2133,-0.2141,-0.2138,-0.2142,-0.2396,-0.2244,-0.2091,-0.2059,-0.2448,-0.3743,-0.554,-0.5896,-0.5876,-0.5478,-0.5199,-0.5459,-0.5855,-0.5083,-0.5217,-0.5447,-0.5504,-0.488,-0.4538,-0.4021,-0.3752,-0.4681,-0.5606,-0.6179,-0.6493,-0.668,-0.7056,-0.6515,-0.581,-0.5699,-0.5699,-0.581,-0.5922,-0.6144,-0.6128,-0.6109,-0.622,-0.6222,-0.6674,-0.7243,-0.8026,-0.8696,-0.9027,-0.9471,-0.9809,-1.0139,-1.0582,-1.0692,-1.0802,-1.0789,-1.0996,0.7718,0.8152,0.786,0.786,0.7713,0.7423,0.7278,0.7278,0.7135,0.699,0.699,0.699,0.699,0.699,0.699,0.6406,0.584,0.5756,0.5228,0.4827,0.3781,0.3033,0.2129,0.1371,0.0608,-0.0301,-0.0903,-0.12,-0.0444,-0.0295,-0.0294,-0.0294,-0.0878,-0.1312,-0.1166,-0.1895,-0.2187,-0.2187,-0.2331,-0.2326,-0.2313,-0.2299,-0.2286,-0.2273,-0.2286,-0.2274,-0.2259,-0.2264,-0.226,-0.2251,-0.2245,-0.2245,-0.2243,-0.2233,-0.2226,-0.2224,-0.3179,-0.3143,-0.2426,-0.2291,-0.2426,-0.2288,-0.2289,-0.2554,-0.2955,-0.2806,-0.2389,-0.2237,-0.5268,-0.7386,-0.8296,-0.8787,-0.7702,-0.7166,-0.7032,-0.7025,-0.7295,-0.7215,-0.6947,-0.7173,-0.7505,-0.7065,-0.6655,-0.6458,-0.6126,-0.6386,-0.697,-0.7199,-0.7243,-0.7148,-0.7618,-0.8057,-0.7365,-0.6808,-0.6697,-0.6697,-0.6813,-0.6924,-0.6808,-0.6903,-0.713,-0.7357,-0.7805,-0.8468,-0.9137,-0.9585,-0.9809,-1.0029,-1.0249,-1.0472,-1.0692,-1.0802,-1.0907,-1.0907,-1.1114,0.728,0.7715,0.7568,0.7421,0.7421,0.7133,0.699,0.699,0.699,0.699,0.699,0.699,0.699,0.6843,0.6551,0.5678,0.4809,0.4439,0.3591,0.2714,0.1971,0.1218,0.0459,-0.0307,-0.1224,-0.2411,-0.2139,-0.2135,-0.2271,-0.2253,-0.2093,-0.2369,-0.206,-0.2194,-0.2191,-0.2341,-0.2345,-0.2333,-0.2333,-0.2332,-0.2327,-0.2312,-0.2305,-0.2301,-0.2299,-0.2291,-0.2275,-0.2287,-0.2286,-0.2277,-0.2273,-0.2276,-0.2273,-0.2264,-0.2256,-0.2532,-0.3498,-0.4985,-0.4653,-0.4632,-0.353,-0.3392,-0.3392,-0.4225,-0.4625,-0.3923,-0.3781,-0.4187,-0.7451,-0.9771,-1.0826,-1.0751,-1.0019,-0.8901,-0.8338,-0.8194,-0.832,-0.8752,-0.93,-0.978,-0.9847,-0.9657,-0.9336,-0.9331,-0.89,-0.8429,-0.8364,-0.8364,-0.8383,-0.8372,-0.8749,-0.9434,-0.913,-0.8562,-0.8434,-0.8199,-0.8072,-0.7841,-0.7838,-0.8069,-0.8542,-0.8836,-0.9247,-0.9805,-1.0272,-1.0684,-1.0899,-1.0798,-1.0692,-1.0692,-1.0802,-1.1017,-1.1126,-1.124,-1.1682,0.699,0.7135,0.6988,0.699,0.7135,0.6988,0.699,0.699,0.699,0.699,0.699,0.699,0.6988,0.6551,0.5533,0.4806,0.4521,0.3134,0.241,0.1668,0.0917,0.0154,-0.0619,-0.1392,-0.2167,-0.2487,-0.2487,-0.2489,-0.249,-0.2446,-0.2404,-0.235,-0.2363,-0.2354,-0.2347,-0.2349,-0.2348,-0.2337,-0.2333,-0.2333,-0.2333,-0.2328,-0.2326,-0.2327,-0.2328,-0.2328,-0.2326,-0.2325,-0.2323,-0.2315,-0.2313,-0.2314,-0.2307,-0.2583,-0.2713,-0.2704,-0.4382,-0.6455,-0.8102,-0.7221,-0.6399,-0.6405,-0.6395,-0.6237,-0.6501,-0.7511,-0.7654,-0.7612,-0.9683,-1.0633,-1.1162,-1.1417,-1.1046,-1.0705,-1.0117,-1.0521,-1.0622,-1.1097,-1.1648,-1.2293,-1.21,-1.1482,-1.1275,-1.0958,-1.0531,-1.0026,-0.9734,-0.9847,-1.0191,-1.0288,-1.0461,-1.0819,-1.0677,-1.051,-1.0595,-1.0235,-0.9651,-0.9532,-0.9532,-0.9887,-1.037,-1.0524,-1.0254,-1.0572,-1.0945,-1.1414,-1.1919,-1.2009,-1.1815,-1.1059,-1.1029,-1.1836,-1.2636,-1.3103,-1.352,0.699,0.699,0.699,0.699,0.699,0.699,0.699,0.699,0.699,0.699,0.6988,0.6988,0.6406,0.5531,0.4952,0.3509,0.2061,0.1336,0.0452,-0.0456,-0.1224,-0.1537,-0.1852,-0.2014,-0.2475,-0.2487,-0.2488,-0.2486,-0.2479,-0.2464,-0.2433,-0.2397,-0.2386,-0.2358,-0.235,-0.2346,-0.2341,-0.2339,-0.2333,-0.2333,-0.2333,-0.2333,-0.2333,-0.2333,-0.2333,-0.2333,-0.2332,-0.2333,-0.2333,-0.2333,-0.2333,-0.2333,-0.2478,-0.3186,-0.3177,-0.3169,-0.5436,-0.8576,-1.0266,-0.89,-0.6989,-0.7128,-0.7543,-0.8251,-0.8266,-0.9368,-0.9917,-1.0323,-1.0631,-1.1172,-1.141,-1.1544,-1.1368,-1.1582,-1.1829,-1.2244,-1.245,-1.2626,-1.2696,-1.2809,-1.274,-1.2389,-1.2441,-1.2483,-1.2031,-1.158,-1.1402,-1.1229,-1.1439,-1.1545,-1.1472,-1.1366,-1.1216,-1.1143,-1.1118,-1.1082,-1.1041,-1.1045,-1.1045,-1.1163,-1.1297,-1.1106,-1.0944,-1.1243,-1.1733,-1.2358,-1.2913,-1.3213,-1.3082,-1.2649,-1.2832,-1.3387,-1.4082,-1.4784,-1.5234,0.699,0.699,0.699,0.699,0.699,0.699,0.699,0.699,0.699,0.6698,0.6406,0.6259,0.5385,0.4223,0.3218,0.235,0.0445,-0.045,-0.1367,-0.1988,-0.2299,-0.2457,-0.247,-0.2476,-0.2476,-0.2478,-0.2482,-0.2485,-0.2488,-0.2461,-0.2448,-0.2434,-0.2415,-0.2389,-0.2352,-0.2337,-0.2333,-0.2333,-0.2333,-0.2333,-0.2333,-0.2333,-0.2333,-0.2333,-0.2333,-0.2333,-0.2333,-0.2333,-0.2333,-0.2333,-0.2333,-0.2333,-0.2769,-0.3495,-0.4072,-0.5229,-0.6966,-0.9879,-1.0413,-0.9894,-0.8341,-0.8792,-0.9211,-0.9771,-1.0031,-1.0735,-1.1061,-1.1188,-1.1461,-1.157,-1.1688,-1.1716,-1.1792,-1.1997,-1.2309,-1.2724,-1.2862,-1.3026,-1.3104,-1.3055,-1.2954,-1.2832,-1.2804,-1.271,-1.2411,-1.2107,-1.1952,-1.1646,-1.1724,-1.1732,-1.1654,-1.1529,-1.1378,-1.1334,-1.1305,-1.1224,-1.1167,-1.1236,-1.1339,-1.1629,-1.1642,-1.1684,-1.2025,-1.246,-1.2995,-1.3481,-1.4075,-1.47,-1.4722,-1.4622,-1.4839,-1.5188,-1.5509,-1.6121,-1.6747,0.699,0.699,0.699,0.699,0.699,0.699,0.699,0.6988,0.6843,0.6114,0.5094,0.4803,0.3785,0.2335,0.1324,0.0296,-0.0447,-0.1671,-0.231,-0.2463,-0.2471,-0.2486,-0.2491,-0.2491,-0.2488,-0.2508,-0.2508,-0.2505,-0.2509,-0.2499,-0.2487,-0.2472,-0.2453,-0.2429,-0.2379,-0.2348,-0.2335,-0.2334,-0.2335,-0.2333,-0.2333,-0.2333,-0.2333,-0.2333,-0.2333,-0.2333,-0.2333,-0.2333,-0.2333,-0.2333,-0.2333,-0.2333,-0.2478,-0.4077,-0.5235,-0.6534,-0.8273,-1.0164,-1.1322,-1.1309,-1.0986,-1.0814,-1.0785,-1.1093,-1.1282,-1.1582,-1.1548,-1.1494,-1.1535,-1.1643,-1.1782,-1.2052,-1.2082,-1.2462,-1.278,-1.3045,-1.3193,-1.3203,-1.3287,-1.3218,-1.3011,-1.284,-1.2836,-1.2783,-1.2629,-1.2475,-1.2349,-1.2194,-1.2028,-1.1906,-1.1825,-1.1768,-1.163,-1.1565,-1.1516,-1.1354,-1.1301,-1.1382,-1.1779,-1.2328,-1.2712,-1.3035,-1.3394,-1.3832,-1.4345,-1.4836,-1.5555,-1.6228,-1.6333,-1.6446,-1.6624,-1.6843,-1.716,-1.7415,-1.7978,0.699,0.699,0.699,0.699,0.699,0.699,0.699,0.6843,0.5969,0.5094,0.4511,0.3639,0.2184,0.0877,0.0295,-0.0594,-0.1644,-0.1829,-0.247,-0.2472,-0.2487,-0.2502,-0.2508,-0.2505,-0.2504,-0.2511,-0.2514,-0.2514,-0.2513,-0.2514,-0.2511,-0.2498,-0.2478,-0.2448,-0.241,-0.238,-0.2364,-0.2358,-0.2346,-0.2333,-0.2333,-0.2333,-0.2333,-0.2333,-0.2333,-0.2333,-0.2333,-0.2333,-0.2334,-0.2335,-0.2336,-0.2334,-0.2916,-0.4515,-0.6246,-0.7548,-0.9002,-1.089,-1.1472,-1.1466,-1.1613,-1.1626,-1.1619,-1.1619,-1.1619,-1.1619,-1.1616,-1.1619,-1.1623,-1.1869,-1.2305,-1.2298,-1.2521,-1.2936,-1.3239,-1.3377,-1.3572,-1.3444,-1.349,-1.3409,-1.311,-1.299,-1.2889,-1.2885,-1.2755,-1.2649,-1.2536,-1.2389,-1.2227,-1.2089,-1.1987,-1.2,-1.1931,-1.1845,-1.1748,-1.1646,-1.2175,-1.2601,-1.3122,-1.3718,-1.4084,-1.4528,-1.4761,-1.5145,-1.5671,-1.621,-1.6745,-1.7254,-1.8064,-1.8378,-1.8148,-1.8052,-1.8114,-1.8457,-1.8882,0.699,0.699,0.699,0.699,0.699,0.699,0.6696,0.5969,0.4511,0.3638,0.2911,0.1893,0.0584,-0.0441,-0.0887,-0.1198,-0.2411,-0.2447,-0.2482,-0.2485,-0.2503,-0.2512,-0.2514,-0.2514,-0.2512,-0.2514,-0.2514,-0.2514,-0.2514,-0.2514,-0.2512,-0.2507,-0.2494,-0.2479,-0.2449,-0.2422,-0.2387,-0.2377,-0.2358,-0.2345,-0.2338,-0.2333,-0.2333,-0.2333,-0.2333,-0.2333,-0.2333,-0.2334,-0.2338,-0.2342,-0.2341,-0.2632,-0.3655,-0.5247,-0.6827,-0.7833,-0.9769,-1.1388,-1.1701,-1.1779,-1.1803,-1.1803,-1.1694,-1.165,-1.166,-1.1798,-1.1664,-1.1664,-1.1794,-1.2054,-1.2341,-1.2341,-1.2775,-1.319,-1.3317,-1.3595,-1.3701,-1.3709,-1.3575,-1.3363,-1.3275,-1.3165,-1.297,-1.2942,-1.2897,-1.2812,-1.2726,-1.2576,-1.243,-1.23,-1.2186,-1.2182,-1.217,-1.2085,-1.2036,-1.2008,-1.269,-1.3761,-1.4367,-1.4857,-1.5861,-1.6307,-1.6474,-1.6559,-1.693,-1.7422,-1.7692,-1.821,-1.862,-1.8995,-1.9028,-1.9057,-1.9092,-1.9192,-1.9352,0.699,0.699,0.699,0.699,0.6988,0.6696,0.5822,0.4511,0.291,0.1456,0.0146,0.0291,-0.0732,-0.2072,-0.2228,-0.2253,-0.2444,-0.246,-0.2482,-0.2501,-0.251,-0.2512,-0.2514,-0.2514,-0.2514,-0.2514,-0.2514,-0.2514,-0.2514,-0.2514,-0.2514,-0.2514,-0.2509,-0.2497,-0.2477,-0.2449,-0.2412,-0.2393,-0.2367,-0.235,-0.2337,-0.2333,-0.2333,-0.2333,-0.2333,-0.2337,-0.2339,-0.2341,-0.2356,-0.236,-0.2354,-0.3243,-0.4562,-0.6144,-0.6688,-0.8148,-1.0723,-1.1643,-1.2,-1.2096,-1.2137,-1.2247,-1.1949,-1.1914,-1.1918,-1.2205,-1.2216,-1.2067,-1.2053,-1.1963,-1.2047,-1.2488,-1.3077,-1.3201,-1.3329,-1.3599,-1.3729,-1.3766,-1.3624,-1.353,-1.3465,-1.3299,-1.3149,-1.3084,-1.3031,-1.2982,-1.2893,-1.2779,-1.2637,-1.2523,-1.2422,-1.2377,-1.2353,-1.2426,-1.2393,-1.2733,-1.3899,-1.5289,-1.535,-1.5852,-1.6994,-1.7973,-1.804,-1.8112,-1.8314,-1.8506,-1.8433,-1.859,-1.8984,-1.9232,-1.9352,-1.9339,-1.9219,-1.9252,-1.9366,0.699,0.699,0.699,0.699,0.6698,0.4658,0.3347,0.2766,0.1311,0.0437,0.0437,-0.102,-0.1756,-0.2347,-0.2368,-0.2388,-0.2416,-0.2445,-0.2468,-0.2487,-0.2506,-0.2512,-0.2514,-0.2514,-0.2514,-0.2514,-0.2514,-0.2514,-0.2514,-0.2514,-0.2514,-0.2514,-0.2514,-0.2504,-0.2485,-0.2463,-0.2435,-0.2405,-0.2373,-0.2354,-0.234,-0.2335,-0.2337,-0.2339,-0.2338,-0.2345,-0.236,-0.2365,-0.2382,-0.2549,-0.238,-0.3122,-0.4796,-0.6332,-0.7559,-1.028,-1.1973,-1.2765,-1.2571,-1.2784,-1.298,-1.2849,-1.2875,-1.2712,-1.2716,-1.2698,-1.2823,-1.2662,-1.2633,-1.2703,-1.2772,-1.3191,-1.3442,-1.3535,-1.3503,-1.3607,-1.3884,-1.3843,-1.3709,-1.3681,-1.3612,-1.3465,-1.3315,-1.3202,-1.3153,-1.3124,-1.3063,-1.2962,-1.2836,-1.2714,-1.2625,-1.2572,-1.2888,-1.308,-1.3549,-1.4014,-1.5436,-1.6618,-1.6668,-1.7207,-1.8662,-1.9382,-1.9496,-1.9245,-1.9005,-1.8831,-1.8725,-1.9011,-1.9205,-1.9265,-1.9366,-1.9366,-1.9366,-1.9379,-1.9372,0.6935,0.6935,0.6935,0.623,0.4801,0.2475,0.1165,0.0437,-0.0583,-0.0729,-0.0583,-0.175,-0.2339,-0.2352,-0.236,-0.2374,-0.2404,-0.2432,-0.2456,-0.2478,-0.2501,-0.251,-0.2514,-0.2514,-0.2514,-0.2514,-0.2514,-0.2514,-0.2514,-0.2514,-0.2514,-0.2514,-0.2514,-0.2495,-0.2474,-0.2454,-0.244,-0.2412,-0.2385,-0.2365,-0.2356,-0.2348,-0.2346,-0.236,-0.2358,-0.2369,-0.2391,-0.2396,-0.2713,-0.3188,-0.3463,-0.4661,-0.6502,-0.8197,-0.959,-1.2069,-1.29,-1.3263,-1.3046,-1.328,-1.3442,-1.3589,-1.3574,-1.3604,-1.3529,-1.3476,-1.3312,-1.3293,-1.3397,-1.3489,-1.3707,-1.3921,-1.3825,-1.3882,-1.3822,-1.3904,-1.39,-1.39,-1.3876,-1.3859,-1.3758,-1.3612,-1.3478,-1.3364,-1.3283,-1.3262,-1.3242,-1.3189,-1.3035,-1.2873,-1.2791,-1.2731,-1.3298,-1.3864,-1.4473,-1.5209,-1.6544,-1.7479,-1.7824,-1.8617,-2.0165,-2.0421,-2.0026,-1.9615,-1.9265,-1.9125,-1.8985,-1.9165,-1.9339,-1.9366,-1.9392,-1.9432,-1.9432,-1.9419,-1.9406,0.6699,0.6699,0.6565,0.4747,0.2182,0.0728,-0.0729,-0.2187,-0.2187,-0.2187,-0.2187,-0.2187,-0.2345,-0.2355,-0.2349,-0.2369,-0.2397,-0.2423,-0.2448,-0.247,-0.25,-0.2514,-0.2514,-0.2514,-0.2514,-0.2514,-0.2514,-0.2514,-0.2514,-0.2514,-0.2514,-0.2514,-0.2514,-0.2498,-0.247,-0.2451,-0.244,-0.2431,-0.2408,-0.2388,-0.2395,-0.2381,-0.2364,-0.2404,-0.2401,-0.2395,-0.2418,-0.2734,-0.3352,-0.4432,-0.5648,-0.6844,-0.8938,-1.0763,-1.222,-1.2809,-1.3484,-1.3691,-1.3586,-1.3653,-1.3714,-1.3915,-1.4153,-1.4228,-1.41,-1.4076,-1.4069,-1.3925,-1.4041,-1.4267,-1.4336,-1.4191,-1.4071,-1.3946,-1.3846,-1.3932,-1.39,-1.39,-1.3896,-1.388,-1.3827,-1.3697,-1.3669,-1.3555,-1.3502,-1.3449,-1.3352,-1.3323,-1.3543,-1.3352,-1.3236,-1.3162,-1.3818,-1.4521,-1.556,-1.6434,-1.7556,-1.8392,-1.8811,-1.9194,-2.0295,-2.0488,-2.0421,-1.9993,-1.9559,-1.9285,-1.9165,-1.9319,-1.9392,-1.9366,-1.9406,-1.9499,-1.9512,-1.9629,-1.965,0.6049,0.5065,0.3979,0.2301,0.0582,0.0146,-0.0875,-0.2187,-0.2333,-0.2333,-0.2333,-0.2333,-0.2336,-0.2343,-0.2339,-0.2356,-0.2383,-0.2416,-0.2441,-0.2468,-0.2498,-0.2514,-0.2514,-0.2514,-0.2514,-0.2514,-0.2514,-0.2514,-0.2514,-0.2514,-0.2514,-0.2514,-0.2513,-0.2499,-0.2471,-0.2454,-0.2453,-0.245,-0.2431,-0.2569,-0.2725,-0.2571,-0.2414,-0.2424,-0.2416,-0.2731,-0.3057,-0.414,-0.4783,-0.5584,-0.7068,-0.8687,-1.0583,-1.2319,-1.3122,-1.3582,-1.4002,-1.4045,-1.4084,-1.41,-1.4235,-1.418,-1.4334,-1.4529,-1.4561,-1.4633,-1.4682,-1.4702,-1.4682,-1.49,-1.4793,-1.4473,-1.4163,-1.4019,-1.3866,-1.3953,-1.39,-1.39,-1.39,-1.388,-1.3851,-1.3827,-1.3803,-1.377,-1.3725,-1.3608,-1.3441,-1.3522,-1.4147,-1.4182,-1.4275,-1.429,-1.4467,-1.5308,-1.6385,-1.7703,-1.898,-1.9624,-2.001,-2.0368,-2.0595,-2.0494,-2.0428,-2.0201,-1.988,-1.9633,-1.9446,-1.9399,-1.9439,-1.9446,-1.9459,-1.9559,-1.9895,-1.9915,-1.9949,0.4713,0.4166,0.2111,0.0856,-0.0,-0.0727,-0.1458,-0.2187,-0.2333,-0.2333,-0.2333,-0.2333,-0.2333,-0.2333,-0.2333,-0.2338,-0.2367,-0.2405,-0.2427,-0.2455,-0.2488,-0.251,-0.2514,-0.251,-0.2514,-0.2514,-0.2514,-0.2514,-0.2512,-0.2514,-0.2514,-0.2514,-0.2512,-0.2501,-0.2474,-0.247,-0.2471,-0.2467,-0.2604,-0.3061,-0.3367,-0.3051,-0.2598,-0.2601,-0.3373,-0.3692,-0.4789,-0.6043,-0.7146,-0.8261,-1.007,-1.1268,-1.2457,-1.3413,-1.3904,-1.4193,-1.4466,-1.4569,-1.4593,-1.4549,-1.4619,-1.4603,-1.4647,-1.481,-1.4834,-1.4899,-1.4907,-1.4923,-1.4923,-1.5007,-1.4904,-1.4607,-1.4288,-1.3992,-1.3922,-1.392,-1.39,-1.39,-1.39,-1.3892,-1.3876,-1.3872,-1.3855,-1.3847,-1.3815,-1.3811,-1.3632,-1.4419,-1.4889,-1.5547,-1.5503,-1.574,-1.6195,-1.6897,-1.8159,-1.9334,-2.0456,-2.0945,-2.1129,-2.1109,-2.1022,-2.0675,-2.0421,-2.0394,-2.0281,-2.004,-1.9873,-1.9753,-1.9639,-1.9646,-1.9633,-1.9515,-1.9851,-2.0223,-2.0226,0.2734,0.3293,0.0834,-0.0282,-0.0428,-0.1731,-0.2322,-0.2326,-0.2326,-0.2329,-0.2333,-0.2333,-0.2333,-0.2333,-0.2333,-0.2333,-0.2349,-0.2389,-0.2412,-0.2431,-0.2472,-0.2481,-0.2489,-0.2496,-0.2492,-0.2495,-0.25,-0.2502,-0.2503,-0.2509,-0.2514,-0.2514,-0.2509,-0.2502,-0.2482,-0.2475,-0.2479,-0.279,-0.3095,-0.4191,-0.4176,-0.3998,-0.3863,-0.4186,-0.5125,-0.6047,-0.7014,-0.8281,-0.9834,-1.1074,-1.2313,-1.3381,-1.3834,-1.4302,-1.4463,-1.4758,-1.4698,-1.4846,-1.4866,-1.4797,-1.4801,-1.4838,-1.4903,-1.4915,-1.4911,-1.4927,-1.4935,-1.4968,-1.4968,-1.4935,-1.4838,-1.4684,-1.4364,-1.41,-1.4011,-1.3949,-1.3945,-1.3924,-1.3908,-1.3904,-1.39,-1.39,-1.39,-1.3896,-1.4177,-1.4181,-1.4604,-1.531,-1.6112,-1.7116,-1.7654,-1.8205,-1.885,-1.9614,-1.9947,-2.0536,-2.1496,-2.15,-2.1463,-2.1496,-2.141,-2.0982,-2.0775,-2.0855,-2.0708,-2.0414,-2.0254,-2.0134,-2.0027,-1.988,-1.9608,-1.9483,-1.99,-2.0174,-2.0416,0.0949,0.0686,-0.1102,-0.1808,-0.183,-0.212,-0.2276,-0.2296,-0.2299,-0.231,-0.2327,-0.2333,-0.2333,-0.2333,-0.2333,-0.2333,-0.2339,-0.2376,-0.2384,-0.2396,-0.2436,-0.2442,-0.2447,-0.2459,-0.2445,-0.2454,-0.247,-0.2478,-0.2646,-0.2505,-0.2514,-0.2514,-0.2514,-0.2511,-0.2508,-0.2503,-0.2656,-0.3278,-0.4678,-0.5778,-0.5621,-0.5759,-0.6387,-0.702,-0.7952,-0.8106,-0.874,-1.0294,-1.1228,-1.2165,-1.3564,-1.4503,-1.4826,-1.4838,-1.485,-1.485,-1.494,-1.4895,-1.4887,-1.4801,-1.4789,-1.4696,-1.472,-1.4737,-1.4761,-1.4818,-1.4862,-1.496,-1.4968,-1.4968,-1.4862,-1.4639,-1.4316,-1.4312,-1.4171,-1.4176,-1.4103,-1.4006,-1.3928,-1.4059,-1.4189,-1.4185,-1.4185,-1.4746,-1.573,-1.5867,-1.6564,-1.7268,-1.783,-1.8621,-1.9542,-2.0269,-2.1101,-2.0606,-2.0275,-2.1085,-2.1812,-2.1844,-2.1797,-2.1817,-2.165,-2.1223,-2.1089,-2.1223,-2.1029,-2.0722,-2.0595,-2.0588,-2.0287,-2.014,-1.9605,-1.9592,-2.0006,-2.0362,-2.0604]},{"header":{"parameterUnit":"m.s-1","parameterCategory":1,"la1":31.0,"la2":29.5877,"lo1":-88.7671,"lo2":-86.6584,"dy":0.0162,"dx":0.0185,"nx":115,"ny":88,"refTime":"2023-06-19T12:00:00:Z","depth":0,"parameterNumber":3,"parameterNumberName":"V-component_of_WINDS"},"data":[0.0,0.0,0.0,0.0,0.0,0.0,0.0,0.0,0.0,0.0,0.0,0.0,0.0,0.0,0.0,0.0,0.0,0.0,0.0,0.0,0.0,0.0,0.0,0.0,0.0,0.0,0.0,0.0,0.0,0.0,0.0,0.0,0.0,0.0,0.0,0.0,0.0,0.0,0.0,0.0,0.0,0.0,0.0,0.0,0.0,0.0,0.0,0.0,0.0,0.0,0.0,0.0,0.0,0.0,0.0,0.0,0.0,0.0,0.0,0.0,0.0,0.0,0.0,0.0,0.0,0.0,0.0,0.0,0.0,0.0,0.0,0.0,0.0,0.0,0.0,0.0,0.0,0.0,0.0,0.0,0.0,0.0,0.0,0.0,0.0,0.0,0.0,0.0,0.0,0.0,0.0,0.0,0.0,0.0,0.0,0.0,0.0,0.0,0.0,0.0,0.0,0.0,0.0,0.0,0.0,0.0,0.0,0.0,0.0,0.0,0.0,0.0,0.0,0.0,0.0,0.0,0.0,0.0,0.0,0.0,0.0,0.0,0.0,0.0,0.0,0.0,0.0,0.0,0.0,0.0,0.0,0.0,0.0,0.0,0.0,0.0,0.0,0.0,0.0,0.0,0.0,0.0,0.0,0.0,0.0,0.0,0.0,0.0,0.0,0.0,0.0,0.0,0.0,0.0,0.0,0.0,0.0,0.0,0.0,0.0,0.0,0.0,0.0,0.0,0.0,0.0,0.0,0.0,0.0,0.0,0.0,0.0,0.0,0.0,0.0,0.0,0.0,0.0,0.0,0.0,0.0,0.0,0.0,0.0,0.0,0.0,0.0,0.0,0.0,0.0,0.0,0.0,0.0,0.0,0.0,0.0,0.0,0.0,0.0,0.0,0.0,0.0,0.0,0.0,0.0,0.0,0.0,0.0,0.0,0.0,0.0,0.0,0.0,0.0,0.0,0.0,0.0,0.0,0.0,0.0,0.0,0.0,0.0,0.0,0.0,0.0,0.0,0.0,0.0,0.0,0.0,0.0,0.0,0.0,0.0,0.0,0.0,0.0,0.0,0.0,0.0,0.0,0.0,0.0,0.0,0.0,0.0,0.0,0.0,0.0,0.0,0.0,0.0,0.0,0.0,0.0,0.0,0.0,0.0,0.0,0.0,0.0,0.0,0.0,0.0,0.0,0.0,0.0,0.0,0.0,0.0,0.0,0.0,0.0,0.0,0.0,0.0,0.0,0.0,0.0,0.0,0.0,0.0,0.0,0.0,0.0,0.0,0.0,0.0,0.0,0.0,0.0,0.0,0.0,0.0,0.0,0.0,0.0,0.0,0.0,0.0,0.0,0.0,0.0,0.0,0.0,0.0,0.0,0.0,0.0,0.0,0.0,0.0,0.0,0.0,0.0,0.0,0.0,0.0,0.0,0.0,0.0,0.0,0.0,0.0,0.0,0.0,0.0,0.0,0.0,0.0,0.0,0.0,0.0,0.0,0.0,0.0,0.0,0.0,0.0,0.0,0.0,0.0,0.0,0.0,0.0,0.0,0.0,0.0,0.0,0.0,0.0,0.0,0.0,0.0,0.0,0.0,0.0,0.0,0.0,0.0,0.0,0.0,0.0,0.0,0.0,0.0,0.0,0.0,0.0,0.0,0.0,0.0,0.0,0.0,0.0,0.0,0.0,0.0,0.0,0.0,0.0,0.0,0.0,0.0,0.0,0.0,0.0,0.0,0.0,0.0,0.0,0.0,0.0,0.0,0.0,0.0,0.0,0.0,0.0,0.0,0.0,0.0,0.0,0.0,0.0,0.0,0.0,0.0,0.0,0.0,0.0,0.0,0.0,0.0,0.0,0.0,0.0,0.0,0.0,0.0,0.0,0.0,0.0,0.0,0.0,0.0,0.0,0.0,0.0,0.0,0.0,0.0,0.0,0.0,0.0,0.0,0.0,0.0,0.0,0.0,0.0,0.0,0.0,0.0,0.0,0.0,0.0,0.0,0.0,0.0,0.0,0.0,0.0,0.0,0.0,0.0,0.0,0.0,0.0,0.0,0.0,0.0,0.0,0.0,0.0,0.0,0.0,0.0,0.0,0.0,0.0,0.0,0.0,0.0,0.0,0.0,0.0,0.0,0.0,0.0,0.0,0.0,0.0,0.0,0.0,0.0,0.0,0.0,0.0,0.0,0.0,0.0,0.0,0.0,0.0,0.0,0.0,0.0,0.0,0.0,0.0,0.0,0.0,0.0,0.0,0.0,0.0,0.0,0.0,0.0,0.0,0.0,0.0,0.0,0.0,0.0,0.0,0.0,0.0,0.0,0.0,0.0,0.0,0.0,0.0,0.0,0.0,0.0,0.0,0.0,0.0,0.0,0.0,0.0,0.0,0.0,0.0,0.0,0.0,0.0,0.0,0.0,0.0,0.0,0.0,0.0,0.0,0.0,0.0,0.0,0.0,0.0,0.0,0.0,0.0,0.0,0.0,0.0,0.0,0.0,0.0,0.0,0.0,0.0,0.0,0.0,0.0,0.0,0.0,0.0,0.0,0.0,0.0,0.0,0.0,0.0,0.0,0.0,0.0,0.0,0.0,0.0,0.0,0.0,0.0,0.0,0.0,0.0,0.0,0.0,0.0,0.0,0.0,0.0,0.0,0.0,0.0,0.0,0.0,0.0,0.0,0.0,0.0,0.0,0.0,0.0,0.0,0.0,0.0,0.0,0.0,0.0,0.0,0.0,0.0,0.0,0.0,0.0,0.0,0.0,0.0,0.0,0.0,0.0,0.0,0.0,0.0,0.0,0.0,0.0,0.0,0.0,0.0,0.0,0.0,0.0,0.0,0.0,0.0,0.0,0.0,0.0,0.0,0.0,0.0,0.0,0.0,0.0,0.0,0.0,0.0,0.0,0.0,0.0,0.0,0.0,0.0,0.0,0.0,0.0,0.0,0.0,0.0,0.0,0.0,0.0,0.0,0.0,0.0,0.0,0.0,0.0,0.0,0.0,0.0,0.0,0.0,0.0,0.0,0.0,0.0,0.0,0.0,0.0,0.0,0.0,0.0,0.0,0.0,0.0,0.0,0.0,0.0,0.0,0.0,0.0,0.0,0.0,0.0,0.0,0.0,0.0,0.0,0.0,0.0,0.0,0.0,0.0,0.0,0.0,0.0,0.0,0.0,0.0,0.0,0.0,0.0,0.0,0.0,0.0,0.0,0.0,0.0,0.0,0.0,0.0,0.0,0.0,0.0,0.0,0.0,0.0,0.0,0.0,0.0,0.0,0.0,0.0,0.0,0.0,0.0,0.0,0.0,0.0,0.0,0.0,0.0,0.0,0.0,0.0,0.0,0.0,0.0,0.0,0.0,0.0,0.0,0.0,0.0,0.0,0.0,0.0,0.0,0.0,0.0,0.0,0.0,0.0,0.0,0.0,0.0,0.0,0.0,0.0,0.0,0.0,0.0,0.0,0.0,0.0,0.0,0.0,0.0,0.0,0.0,0.0,0.0,0.0,0.0,0.0,0.0,0.0,0.0,0.0,0.0,0.0,0.0,0.0,0.0,0.0,0.0,0.0,0.0,0.0,0.0,0.0,0.0,0.0,0.0,0.0,0.0,0.0,0.0,0.0,0.0,0.0,0.0,0.0,0.0,0.0,0.0,0.0,0.0,0.0,0.0,0.0,0.0,0.0,0.0,0.0,0.0,0.0,0.0,0.0,0.0,0.0,0.0,0.0,0.0,0.0,0.0,0.0,0.0,0.0,0.0,0.0,0.0,0.0,0.0,0.0,0.0,0.0,0.0,0.0,0.0,0.0,0.0,0.0,0.0,0.0,0.0,0.0,0.0,0.0,0.0,0.0,0.0,0.0,0.0,0.0,0.0,0.0,0.0,0.0,0.0,0.0,0.0,0.0,0.0,0.0,0.0,0.0,0.0,0.0,0.0,0.0,0.0,0.0,0.0,0.0,0.0,0.0,0.0,0.0,0.0,0.0,0.0,0.0,0.0,0.0,0.0,0.0,0.0,0.0,0.0,0.0,0.0,0.0,0.0,0.0,0.0,0.0,0.0,0.0,0.0,0.0,0.0,0.0,0.0,0.0,0.0,0.0,0.0,0.0,0.0,0.0,0.0,0.0,0.0,0.0,0.0,0.0,0.0,0.0,0.0,0.0,0.0,0.0,0.0,0.0,0.0,0.0,0.0,0.0,0.0,0.0,0.0,0.0,0.0,0.0,0.0,0.0,0.0,0.0,0.0,0.0,0.0,0.0,0.0,0.0,0.0,0.0,0.0,0.0,0.0,-2.3732,0.0,0.0,0.0,0.0,0.0,0.0,0.0,0.0,0.0,0.0,0.0,0.0,0.0,0.0,0.0,0.0,0.0,0.0,0.0,0.0,0.0,0.0,0.0,0.0,0.0,0.0,0.0,0.0,0.0,0.0,0.0,0.0,0.0,0.0,0.0,0.0,0.0,0.0,0.0,0.0,0.0,0.0,0.0,0.0,0.0,0.0,0.0,0.0,0.0,0.0,0.0,0.0,0.0,0.0,0.0,0.0,0.0,0.0,0.0,0.0,0.0,0.0,0.0,0.0,0.0,0.0,0.0,0.0,0.0,0.0,0.0,0.0,0.0,0.0,0.0,0.0,0.0,0.0,0.0,0.0,0.0,0.0,0.0,0.0,0.0,0.0,0.0,0.0,0.0,0.0,0.0,0.0,0.0,0.0,0.0,0.0,0.0,0.0,0.0,0.0,0.0,0.0,0.0,0.0,0.0,0.0,0.0,0.0,0.0,0.0,-2.1376,-2.3475,-2.1006,-2.1074,-2.4026,0.0,0.0,0.0,0.0,0.0,0.0,0.0,0.0,0.0,0.0,0.0,0.0,0.0,0.0,0.0,0.0,0.0,0.0,0.0,0.0,0.0,0.0,0.0,0.0,0.0,0.0,0.0,0.0,0.0,0.0,0.0,0.0,0.0,0.0,0.0,0.0,0.0,0.0,0.0,0.0,0.0,0.0,0.0,0.0,0.0,0.0,0.0,0.0,0.0,0.0,0.0,0.0,0.0,0.0,0.0,0.0,0.0,0.0,0.0,0.0,0.0,0.0,0.0,0.0,0.0,0.0,0.0,0.0,0.0,0.0,0.0,0.0,0.0,0.0,0.0,0.0,0.0,0.0,0.0,0.0,0.0,0.0,0.0,0.0,0.0,0.0,0.0,0.0,0.0,0.0,0.0,0.0,0.0,0.0,0.0,0.0,0.0,0.0,0.0,0.0,0.0,0.0,0.0,0.0,0.0,0.0,0.0,0.0,0.0,0.0,0.0,0.0,-2.1129,-2.1254,-2.4592,0.0,0.0,0.0,0.0,0.0,0.0,0.0,0.0,0.0,0.0,0.0,0.0,0.0,0.0,0.0,0.0,0.0,0.0,0.0,0.0,0.0,0.0,0.0,0.0,0.0,0.0,0.0,0.0,0.0,0.0,0.0,0.0,0.0,0.0,0.0,0.0,0.0,0.0,0.0,0.0,0.0,0.0,0.0,0.0,0.0,0.0,0.0,0.0,0.0,0.0,0.0,0.0,0.0,0.0,0.0,0.0,0.0,0.0,0.0,0.0,0.0,0.0,0.0,0.0,0.0,0.0,0.0,0.0,0.0,0.0,0.0,0.0,0.0,0.0,0.0,0.0,0.0,0.0,0.0,0.0,0.0,0.0,0.0,0.0,0.0,0.0,0.0,0.0,0.0,0.0,0.0,0.0,0.0,0.0,0.0,0.0,0.0,0.0,0.0,0.0,0.0,0.0,0.0,0.0,0.0,0.0,0.0,0.0,0.0,0.0,-2.3149,-2.6398,-2.5424,0.0,-2.645,0.0,0.0,0.0,0.0,0.0,0.0,0.0,0.0,0.0,0.0,0.0,0.0,0.0,0.0,0.0,0.0,0.0,0.0,0.0,0.0,0.0,0.0,0.0,0.0,0.0,0.0,0.0,0.0,0.0,0.0,0.0,0.0,0.0,0.0,0.0,0.0,0.0,0.0,0.0,0.0,0.0,0.0,0.0,0.0,0.0,0.0,0.0,0.0,0.0,0.0,0.0,0.0,0.0,0.0,0.0,0.0,0.0,0.0,0.0,0.0,0.0,0.0,0.0,0.0,0.0,0.0,0.0,0.0,0.0,0.0,0.0,0.0,0.0,0.0,0.0,0.0,0.0,0.0,0.0,0.0,0.0,0.0,0.0,0.0,0.0,0.0,0.0,0.0,0.0,0.0,0.0,0.0,0.0,0.0,0.0,0.0,0.0,0.0,0.0,0.0,0.0,0.0,0.0,0.0,0.0,0.0,0.0,0.0,0.0,0.0,-2.2454,-2.3848,-2.4501,-2.5007,0.0,0.0,0.0,0.0,0.0,0.0,0.0,0.0,0.0,0.0,0.0,0.0,0.0,0.0,0.0,0.0,0.0,0.0,0.0,0.0,0.0,0.0,0.0,0.0,0.0,0.0,0.0,0.0,0.0,0.0,0.0,0.0,0.0,0.0,0.0,0.0,0.0,0.0,0.0,0.0,0.0,0.0,0.0,0.0,0.0,0.0,0.0,0.0,0.0,0.0,0.0,0.0,0.0,0.0,0.0,0.0,0.0,0.0,0.0,0.0,0.0,0.0,0.0,0.0,0.0,0.0,0.0,0.0,0.0,0.0,0.0,0.0,0.0,0.0,0.0,0.0,0.0,0.0,0.0,0.0,0.0,0.0,0.0,0.0,0.0,0.0,0.0,0.0,0.0,0.0,0.0,0.0,0.0,0.0,0.0,0.0,0.0,0.0,0.0,0.0,0.0,0.0,0.0,0.0,0.0,0.0,0.0,0.0,0.0,0.0,-2.2045,-2.2037,-2.2523,-2.3696,-2.446,-2.4752,0.0,0.0,0.0,0.0,0.0,0.0,0.0,0.0,0.0,0.0,0.0,0.0,0.0,0.0,0.0,0.0,0.0,0.0,0.0,0.0,0.0,0.0,0.0,0.0,0.0,0.0,0.0,0.0,0.0,0.0,0.0,0.0,0.0,0.0,0.0,0.0,0.0,0.0,0.0,0.0,0.0,0.0,0.0,0.0,0.0,0.0,0.0,0.0,0.0,0.0,0.0,0.0,0.0,0.0,0.0,0.0,0.0,0.0,0.0,0.0,0.0,0.0,0.0,0.0,0.0,0.0,0.0,0.0,0.0,0.0,0.0,0.0,0.0,0.0,0.0,0.0,0.0,0.0,0.0,0.0,0.0,0.0,0.0,0.0,0.0,0.0,0.0,0.0,0.0,0.0,0.0,0.0,0.0,0.0,0.0,0.0,0.0,0.0,0.0,0.0,0.0,0.0,0.0,0.0,0.0,0.0,0.0,0.0,-2.4078,-2.2652,-2.2607,-2.4186,-2.4358,-2.4787,0.0,0.0,0.0,0.0,0.0,0.0,0.0,0.0,0.0,0.0,0.0,0.0,0.0,0.0,0.0,0.0,0.0,0.0,0.0,0.0,0.0,0.0,0.0,0.0,0.0,0.0,0.0,0.0,0.0,0.0,0.0,0.0,0.0,0.0,0.0,0.0,0.0,0.0,0.0,0.0,0.0,0.0,0.0,0.0,0.0,0.0,0.0,0.0,0.0,0.0,0.0,0.0,0.0,0.0,0.0,0.0,0.0,0.0,0.0,0.0,0.0,0.0,0.0,0.0,0.0,0.0,0.0,0.0,0.0,0.0,0.0,0.0,0.0,0.0,0.0,0.0,0.0,0.0,0.0,0.0,0.0,0.0,0.0,0.0,0.0,0.0,0.0,0.0,0.0,0.0,0.0,0.0,0.0,0.0,0.0,0.0,0.0,0.0,0.0,0.0,0.0,0.0,0.0,0.0,0.0,0.0,0.0,0.0,0.0,-2.2634,-2.2674,-2.3184,-2.435,-2.4935,-2.5379,0.0,0.0,0.0,0.0,0.0,0.0,0.0,0.0,0.0,0.0,0.0,0.0,0.0,0.0,0.0,0.0,0.0,0.0,0.0,0.0,0.0,0.0,0.0,0.0,0.0,0.0,0.0,0.0,0.0,0.0,0.0,0.0,0.0,0.0,0.0,0.0,0.0,0.0,0.0,0.0,0.0,0.0,0.0,0.0,0.0,0.0,0.0,0.0,0.0,0.0,0.0,0.0,0.0,0.0,0.0,0.0,0.0,0.0,0.0,0.0,0.0,0.0,0.0,0.0,0.0,0.0,0.0,0.0,0.0,0.0,0.0,0.0,0.0,0.0,0.0,0.0,0.0,0.0,0.0,0.0,0.0,0.0,0.0,0.0,0.0,0.0,0.0,0.0,0.0,0.0,0.0,0.0,0.0,0.0,0.0,0.0,0.0,0.0,0.0,0.0,0.0,0.0,0.0,0.0,0.0,0.0,0.0,0.0,0.0,-2.2205,0.0,-2.3802,0.0,-2.4961,-2.5291,0.0,0.0,0.0,0.0,0.0,0.0,0.0,0.0,0.0,0.0,0.0,0.0,0.0,0.0,0.0,0.0,0.0,0.0,0.0,0.0,0.0,0.0,0.0,0.0,0.0,0.0,0.0,0.0,0.0,0.0,0.0,0.0,0.0,0.0,0.0,0.0,0.0,0.0,0.0,0.0,0.0,0.0,0.0,0.0,0.0,0.0,0.0,0.0,0.0,0.0,0.0,0.0,0.0,0.0,0.0,0.0,0.0,0.0,0.0,0.0,0.0,0.0,0.0,0.0,0.0,0.0,0.0,0.0,0.0,0.0,0.0,0.0,0.0,0.0,0.0,0.0,0.0,0.0,0.0,0.0,0.0,0.0,0.0,0.0,0.0,0.0,0.0,0.0,0.0,0.0,0.0,0.0,0.0,0.0,0.0,0.0,0.0,0.0,0.0,0.0,0.0,0.0,0.0,0.0,0.0,0.0,0.0,0.0,-2.2192,-2.3056,-2.3901,-2.4358,-2.4438,-2.4471,-2.4453,0.0,0.0,0.0,0.0,0.0,0.0,0.0,0.0,0.0,0.0,0.0,0.0,0.0,0.0,0.0,0.0,0.0,0.0,0.0,0.0,0.0,0.0,0.0,0.0,0.0,0.0,0.0,0.0,0.0,0.0,0.0,0.0,0.0,0.0,0.0,0.0,0.0,0.0,0.0,0.0,0.0,0.0,0.0,0.0,0.0,0.0,0.0,0.0,0.0,0.0,0.0,0.0,0.0,0.0,0.0,0.0,0.0,0.0,0.0,0.0,0.0,0.0,0.0,0.0,0.0,0.0,0.0,0.0,0.0,0.0,0.0,0.0,0.0,0.0,0.0,0.0,0.0,0.0,0.0,0.0,0.0,0.0,0.0,0.0,0.0,0.0,0.0,0.0,0.0,0.0,0.0,0.0,0.0,0.0,0.0,0.0,0.0,0.0,0.0,0.0,0.0,0.0,0.0,0.0,0.0,0.0,0.0,0.0,0.0,-2.3065,-2.3306,-2.431,-2.6054,-2.5019,-2.5253,0.0,0.0,0.0,0.0,0.0,0.0,0.0,0.0,0.0,0.0,0.0,0.0,0.0,0.0,0.0,0.0,0.0,0.0,0.0,0.0,0.0,0.0,0.0,0.0,0.0,0.0,0.0,0.0,0.0,0.0,0.0,0.0,0.0,0.0,0.0,0.0,0.0,0.0,0.0,0.0,0.0,0.0,0.0,0.0,0.0,0.0,0.0,0.0,0.0,0.0,0.0,0.0,0.0,0.0,0.0,0.0,0.0,0.0,0.0,0.0,0.0,0.0,0.0,0.0,0.0,0.0,0.0,0.0,0.0,0.0,0.0,0.0,0.0,0.0,0.0,0.0,0.0,0.0,0.0,0.0,0.0,0.0,0.0,0.0,0.0,0.0,0.0,0.0,0.0,0.0,0.0,0.0,0.0,0.0,0.0,0.0,0.0,0.0,0.0,0.0,0.0,0.0,0.0,0.0,0.0,0.0,0.0,0.0,0.0,-2.4948,-2.4607,-2.5402,-2.7372,-2.6069,-2.5956,-2.7205,0.0,0.0,0.0,0.0,0.0,0.0,0.0,0.0,0.0,0.0,0.0,0.0,0.0,0.0,0.0,0.0,0.0,0.0,0.0,0.0,0.0,0.0,0.0,0.0,0.0,0.0,0.0,0.0,0.0,0.0,0.0,0.0,0.0,0.0,0.0,0.0,0.0,0.0,0.0,0.0,0.0,0.0,0.0,0.0,0.0,0.0,0.0,0.0,0.0,0.0,0.0,0.0,0.0,0.0,0.0,0.0,0.0,0.0,0.0,0.0,0.0,0.0,0.0,0.0,0.0,0.0,0.0,0.0,0.0,0.0,0.0,0.0,0.0,0.0,0.0,0.0,0.0,0.0,0.0,0.0,0.0,0.0,0.0,0.0,0.0,0.0,0.0,0.0,0.0,0.0,0.0,0.0,0.0,0.0,0.0,0.0,0.0,0.0,0.0,0.0,0.0,0.0,0.0,0.0,0.0,0.0,0.0,0.0,-2.8249,-2.7595,-2.7649,-2.8384,-2.7485,-2.6607,0.0,0.0,0.0,0.0,0.0,0.0,0.0,0.0,0.0,0.0,0.0,0.0,0.0,0.0,0.0,0.0,0.0,0.0,0.0,0.0,0.0,0.0,0.0,0.0,0.0,0.0,0.0,0.0,0.0,0.0,0.0,0.0,0.0,0.0,0.0,0.0,0.0,0.0,0.0,0.0,0.0,0.0,0.0,0.0,0.0,0.0,0.0,0.0,0.0,0.0,0.0,0.0,0.0,0.0,0.0,0.0,0.0,0.0,0.0,0.0,0.0,0.0,0.0,0.0,0.0,0.0,0.0,0.0,0.0,0.0,0.0,0.0,0.0,0.0,0.0,0.0,0.0,0.0,0.0,0.0,0.0,0.0,0.0,0.0,0.0,0.0,0.0,0.0,0.0,0.0,0.0,0.0,0.0,0.0,0.0,0.0,0.0,0.0,0.0,0.0,0.0,0.0,0.0,0.0,0.0,0.0,0.0,0.0,0.0,-2.9926,-3.1001,-3.1668,-3.1859,-2.9291,-2.8053,0.0,0.0,0.0,0.0,0.0,0.0,0.0,0.0,0.0,0.0,0.0,0.0,0.0,0.0,0.0,0.0,0.0,0.0,0.0,0.0,0.0,0.0,0.0,0.0,0.0,0.0,0.0,0.0,0.0,0.0,0.0,0.0,0.0,0.0,0.0,0.0,0.0,0.0,0.0,0.0,0.0,0.0,0.0,0.0,0.0,0.0,0.0,0.0,0.0,0.0,0.0,0.0,0.0,0.0,0.0,0.0,0.0,0.0,0.0,0.0,0.0,0.0,0.0,0.0,0.0,0.0,0.0,0.0,0.0,0.0,0.0,0.0,0.0,0.0,0.0,0.0,0.0,0.0,0.0,0.0,0.0,0.0,0.0,0.0,0.0,0.0,0.0,0.0,0.0,0.0,0.0,0.0,0.0,0.0,0.0,0.0,0.0,0.0,0.0,0.0,0.0,0.0,0.0,0.0,0.0,0.0,0.0,0.0,-3.0075,-3.112,-3.4187,-3.5676,-3.5366,-3.2805,-3.0591,0.0,0.0,0.0,0.0,0.0,0.0,0.0,0.0,0.0,0.0,0.0,0.0,0.0,0.0,0.0,0.0,0.0,0.0,0.0,0.0,0.0,0.0,0.0,0.0,0.0,0.0,0.0,0.0,0.0,0.0,0.0,0.0,0.0,0.0,0.0,0.0,0.0,0.0,0.0,0.0,0.0,0.0,0.0,0.0,0.0,0.0,0.0,0.0,0.0,0.0,0.0,0.0,0.0,0.0,0.0,0.0,0.0,0.0,0.0,0.0,0.0,0.0,0.0,0.0,0.0,0.0,0.0,0.0,0.0,0.0,0.0,0.0,0.0,0.0,0.0,0.0,0.0,0.0,0.0,0.0,0.0,0.0,0.0,0.0,0.0,0.0,0.0,0.0,0.0,0.0,0.0,0.0,0.0,0.0,0.0,0.0,0.0,0.0,0.0,0.0,0.0,0.0,0.0,0.0,0.0,0.0,0.0,0.0,-3.1932,-3.2251,-3.6926,-3.9103,-3.8435,-3.6725,-3.3451,0.0,0.0,0.0,0.0,0.0,0.0,0.0,0.0,0.0,0.0,0.0,0.0,0.0,0.0,0.0,0.0,0.0,0.0,0.0,0.0,0.0,0.0,0.0,0.0,0.0,0.0,0.0,0.0,0.0,0.0,0.0,0.0,0.0,0.0,0.0,0.0,0.0,0.0,0.0,0.0,0.0,0.0,0.0,0.0,0.0,0.0,0.0,0.0,0.0,0.0,0.0,0.0,0.0,0.0,0.0,0.0,0.0,0.0,0.0,0.0,0.0,0.0,0.0,0.0,0.0,0.0,0.0,0.0,0.0,0.0,0.0,0.0,0.0,0.0,0.0,0.0,0.0,0.0,0.0,0.0,0.0,0.0,0.0,0.0,0.0,0.0,0.0,0.0,0.0,0.0,0.0,0.0,0.0,0.0,0.0,0.0,0.0,0.0,0.0,0.0,0.0,0.0,0.0,0.0,0.0,0.0,0.0,0.0,-3.2803,-3.4853,-3.7834,-3.9638,-4.0134,-3.7218,-3.3886,0.0,0.0,0.0,0.0,0.0,0.0,0.0,0.0,0.0,0.0,0.0,0.0,0.0,0.0,0.0,0.0,0.0,0.0,0.0,0.0,0.0,0.0,0.0,0.0,0.0,0.0,0.0,0.0,0.0,0.0,0.0,0.0,0.0,0.0,0.0,0.0,0.0,0.0,0.0,0.0,0.0,0.0,0.0,0.0,0.0,0.0,0.0,0.0,-2.327,0.0,0.0,0.0,0.0,0.0,0.0,0.0,0.0,0.0,0.0,0.0,0.0,0.0,0.0,0.0,0.0,0.0,0.0,0.0,0.0,0.0,0.0,0.0,0.0,0.0,0.0,0.0,0.0,0.0,0.0,0.0,0.0,0.0,0.0,0.0,0.0,0.0,0.0,0.0,0.0,0.0,0.0,0.0,0.0,0.0,0.0,0.0,0.0,0.0,0.0,0.0,0.0,0.0,0.0,0.0,0.0,0.0,0.0,0.0,-3.4243,-3.6791,-3.9663,-4.1388,-4.1754,-3.8917,-3.5581,0.0,0.0,0.0,0.0,0.0,0.0,0.0,0.0,0.0,0.0,0.0,0.0,0.0,0.0,0.0,0.0,0.0,0.0,0.0,0.0,0.0,0.0,0.0,0.0,0.0,0.0,0.0,0.0,0.0,0.0,0.0,0.0,0.0,0.0,0.0,0.0,0.0,0.0,0.0,0.0,0.0,0.0,0.0,0.0,0.0,0.0,0.0,0.0,0.0,0.0,0.0,0.0,0.0,0.0,0.0,0.0,0.0,0.0,0.0,0.0,0.0,0.0,0.0,0.0,0.0,0.0,0.0,0.0,0.0,0.0,0.0,0.0,0.0,0.0,0.0,0.0,0.0,0.0,0.0,0.0,0.0,0.0,0.0,0.0,0.0,0.0,0.0,0.0,0.0,0.0,0.0,0.0,0.0,0.0,0.0,0.0,0.0,0.0,0.0,0.0,0.0,0.0,0.0,0.0,0.0,0.0,0.0,-3.2803,-3.5604,-3.8466,-4.1316,-4.2903,-4.3138,-4.0785,-3.7632,-3.3754,0.0,0.0,0.0,0.0,0.0,0.0,0.0,0.0,0.0,0.0,0.0,0.0,0.0,0.0,0.0,0.0,0.0,0.0,0.0,0.0,0.0,0.0,0.0,0.0,0.0,0.0,0.0,0.0,0.0,0.0,0.0,0.0,0.0,0.0,0.0,0.0,0.0,0.0,-2.2957,-2.3794,0.0,0.0,0.0,0.0,0.0,0.0,0.0,0.0,-2.3052,0.0,0.0,0.0,0.0,0.0,0.0,0.0,0.0,0.0,0.0,0.0,0.0,0.0,0.0,0.0,0.0,0.0,0.0,0.0,0.0,0.0,0.0,0.0,0.0,0.0,0.0,0.0,0.0,0.0,0.0,0.0,0.0,0.0,0.0,0.0,0.0,0.0,0.0,0.0,0.0,0.0,0.0,0.0,0.0,0.0,0.0,0.0,0.0,0.0,0.0,0.0,0.0,0.0,0.0,0.0,0.0,-3.3499,-3.3421,-3.5566,-4.014,-4.0756,-4.1697,-4.3011,-4.1339,-3.9032,-3.6155,0.0,0.0,0.0,0.0,0.0,0.0,0.0,0.0,0.0,0.0,0.0,0.0,0.0,0.0,0.0,0.0,0.0,0.0,0.0,0.0,0.0,0.0,0.0,0.0,0.0,0.0,0.0,0.0,0.0,0.0,0.0,0.0,0.0,0.0,0.0,0.0,0.0,0.0,0.0,-2.4922,-2.5244,0.0,0.0,0.0,0.0,0.0,0.0,0.0,0.0,-2.2977,0.0,0.0,0.0,0.0,0.0,0.0,0.0,0.0,0.0,0.0,0.0,0.0,0.0,0.0,0.0,0.0,0.0,0.0,0.0,0.0,0.0,0.0,0.0,0.0,0.0,0.0,0.0,0.0,0.0,0.0,0.0,0.0,0.0,0.0,0.0,0.0,0.0,0.0,0.0,0.0,0.0,0.0,0.0,0.0,0.0,0.0,0.0,0.0,0.0,0.0,0.0,0.0,0.0,0.0,0.0,-3.4128,-3.3982,-3.6211,-4.1103,-4.1282,-4.1855,-4.2983,-4.0596,-3.8652,0.0,0.0,0.0,0.0,0.0,0.0,0.0,0.0,0.0,0.0,0.0,0.0,0.0,0.0,0.0,0.0,0.0,0.0,0.0,0.0,0.0,0.0,0.0,0.0,0.0,0.0,0.0,0.0,0.0,0.0,0.0,0.0,0.0,0.0,0.0,0.0,0.0,0.0,0.0,0.0,-2.5095,-2.5386,-2.3736,0.0,0.0,0.0,0.0,0.0,0.0,-2.2527,-2.2816,0.0,0.0,0.0,0.0,0.0,0.0,0.0,0.0,0.0,0.0,0.0,0.0,0.0,0.0,0.0,0.0,0.0,0.0,0.0,0.0,0.0,0.0,0.0,0.0,0.0,0.0,0.0,0.0,0.0,0.0,0.0,0.0,0.0,0.0,0.0,0.0,0.0,0.0,0.0,0.0,0.0,0.0,0.0,0.0,0.0,0.0,0.0,0.0,0.0,0.0,0.0,0.0,0.0,0.0,0.0,-3.4225,-3.406,-3.6327,-4.1109,-4.1224,-4.1682,-4.2755,-3.9873,-3.8176,0.0,0.0,0.0,0.0,0.0,0.0,0.0,0.0,0.0,0.0,0.0,0.0,0.0,0.0,0.0,0.0,0.0,0.0,0.0,0.0,0.0,0.0,0.0,0.0,0.0,0.0,0.0,0.0,0.0,0.0,0.0,0.0,0.0,0.0,0.0,0.0,0.0,0.0,0.0,0.0,0.0,-2.5579,-2.3644,-2.4638,0.0,0.0,0.0,0.0,-2.2654,-2.3356,0.0,0.0,0.0,0.0,0.0,0.0,0.0,0.0,0.0,0.0,0.0,0.0,0.0,0.0,0.0,0.0,0.0,0.0,0.0,0.0,0.0,0.0,0.0,0.0,0.0,0.0,0.0,0.0,0.0,0.0,0.0,0.0,0.0,0.0,0.0,0.0,0.0,0.0,0.0,0.0,0.0,0.0,0.0,0.0,0.0,0.0,0.0,0.0,0.0,0.0,0.0,0.0,0.0,0.0,0.0,0.0,-3.4176,-3.288,-3.458,-3.9335,-3.8961,-3.9653,-4.1936,-4.0158,-3.8796,0.0,0.0,0.0,0.0,0.0,0.0,0.0,0.0,0.0,0.0,0.0,0.0,0.0,0.0,0.0,0.0,0.0,0.0,0.0,0.0,0.0,0.0,0.0,0.0,0.0,0.0,0.0,0.0,0.0,0.0,0.0,0.0,0.0,0.0,0.0,0.0,0.0,0.0,0.0,0.0,0.0,-2.6551,-2.3573,-2.5299,-2.6069,0.0,0.0,-2.5186,-2.4397,-2.6247,0.0,0.0,0.0,0.0,0.0,0.0,0.0,0.0,0.0,0.0,0.0,0.0,0.0,0.0,0.0,0.0,0.0,0.0,0.0,0.0,0.0,0.0,0.0,0.0,0.0,0.0,0.0,0.0,0.0,0.0,0.0,0.0,0.0,0.0,0.0,0.0,0.0,0.0,0.0,0.0,0.0,0.0,0.0,0.0,0.0,0.0,0.0,0.0,0.0,0.0,0.0,0.0,0.0,0.0,0.0,-3.1468,-3.4234,-3.317,-3.4754,-3.9174,-3.8556,-3.8844,-4.0376,-3.8763,-3.7676,0.0,0.0,0.0,0.0,0.0,0.0,0.0,0.0,0.0,0.0,0.0,0.0,0.0,0.0,0.0,0.0,0.0,0.0,0.0,0.0,0.0,0.0,0.0,0.0,0.0,0.0,0.0,0.0,0.0,0.0,0.0,0.0,0.0,0.0,0.0,0.0,0.0,0.0,0.0,0.0,0.0,0.0,-2.4698,-2.6422,0.0,0.0,0.0,-2.649,-2.5987,0.0,0.0,0.0,0.0,0.0,0.0,0.0,0.0,0.0,0.0,0.0,0.0,0.0,0.0,0.0,0.0,0.0,0.0,0.0,0.0,0.0,0.0,0.0,0.0,0.0,0.0,0.0,0.0,0.0,0.0,0.0,0.0,0.0,0.0,0.0,0.0,0.0,0.0,0.0,0.0,0.0,0.0,0.0,0.0,0.0,0.0,0.0,0.0,0.0,0.0,0.0,0.0,0.0,0.0,0.0,0.0,0.0,-3.4311,-3.3325,-3.4928,-3.9187,-3.8357,-3.8375,-3.9543,-3.7795,0.0,0.0,0.0,0.0,0.0,0.0,0.0,0.0,0.0,0.0,0.0,0.0,0.0,0.0,0.0,0.0,0.0,0.0,0.0,0.0,0.0,0.0,0.0,0.0,0.0,0.0,0.0,-2.65,0.0,0.0,0.0,0.0,0.0,0.0,0.0,0.0,0.0,0.0,0.0,0.0,0.0,0.0,-2.8235,-2.6051,-2.7726,-2.8689,0.0,0.0,-2.7992,-2.7621,-2.7653,-2.7152,0.0,0.0,0.0,0.0,0.0,0.0,0.0,0.0,0.0,0.0,0.0,0.0,0.0,0.0,0.0,0.0,0.0,0.0,0.0,0.0,0.0,0.0,0.0,0.0,0.0,0.0,0.0,0.0,0.0,0.0,0.0,0.0,0.0,0.0,0.0,0.0,0.0,0.0,0.0,0.0,0.0,0.0,0.0,0.0,0.0,0.0,0.0,0.0,0.0,0.0,0.0,0.0,0.0,0.0,0.0,-3.4195,-3.2745,-3.4389,-3.9224,-3.7846,-3.8099,-4.0376,-3.8092,-3.753,0.0,0.0,0.0,0.0,0.0,0.0,0.0,0.0,0.0,0.0,0.0,0.0,0.0,0.0,0.0,0.0,0.0,0.0,0.0,0.0,0.0,0.0,0.0,0.0,0.0,0.0,0.0,0.0,0.0,0.0,0.0,0.0,0.0,0.0,0.0,0.0,0.0,0.0,0.0,0.0,0.0,-2.8469,-2.7378,-2.9158,-3.0525,0.0,0.0,-3.0213,-2.9438,-3.1076,-3.0989,-2.673,0.0,0.0,0.0,0.0,0.0,0.0,0.0,0.0,0.0,0.0,0.0,0.0,0.0,0.0,0.0,0.0,0.0,0.0,0.0,0.0,0.0,0.0,0.0,0.0,0.0,0.0,0.0,0.0,0.0,0.0,0.0,0.0,0.0,0.0,0.0,0.0,0.0,0.0,0.0,0.0,0.0,0.0,0.0,0.0,0.0,0.0,0.0,0.0,0.0,0.0,0.0,0.0,0.0,-3.201,-3.435,-3.375,-3.5143,-3.8508,-3.8511,-3.891,-3.983,-3.8915,-3.818,0.0,0.0,0.0,0.0,0.0,0.0,0.0,0.0,0.0,0.0,0.0,0.0,0.0,0.0,0.0,0.0,0.0,0.0,0.0,0.0,0.0,0.0,0.0,0.0,0.0,0.0,0.0,0.0,-2.6984,-2.6787,-2.7816,0.0,0.0,0.0,0.0,0.0,0.0,0.0,0.0,0.0,0.0,-3.0205,-2.9634,-3.0595,0.0,0.0,-3.1369,-3.1282,-3.0972,-3.1265,-3.0782,-2.8558,-2.8525,0.0,0.0,0.0,0.0,0.0,0.0,0.0,0.0,0.0,0.0,0.0,0.0,0.0,0.0,0.0,0.0,0.0,0.0,0.0,0.0,0.0,0.0,0.0,0.0,0.0,0.0,0.0,0.0,0.0,0.0,0.0,0.0,0.0,0.0,0.0,0.0,0.0,0.0,0.0,0.0,0.0,0.0,0.0,0.0,0.0,0.0,0.0,0.0,0.0,0.0,0.0,0.0,-3.2899,-3.5104,-3.4659,-3.5897,-3.8914,-3.9277,-3.9541,-3.9772,-3.9466,-3.8695,0.0,0.0,0.0,0.0,0.0,0.0,0.0,0.0,0.0,0.0,0.0,0.0,0.0,0.0,0.0,0.0,0.0,0.0,0.0,0.0,0.0,0.0,0.0,0.0,0.0,0.0,0.0,0.0,-2.8418,-2.8341,-2.8587,0.0,0.0,0.0,0.0,0.0,0.0,0.0,0.0,0.0,0.0,-3.1284,-3.1456,-3.1917,-3.2451,-3.2882,-3.2496,-3.2127,-3.2127,-3.1507,-3.061,-2.9368,0.0,0.0,0.0,0.0,0.0,0.0,0.0,0.0,0.0,0.0,0.0,0.0,0.0,0.0,0.0,0.0,0.0,0.0,0.0,0.0,0.0,0.0,0.0,0.0,0.0,0.0,0.0,0.0,0.0,0.0,0.0,0.0,0.0,0.0,0.0,0.0,0.0,0.0,0.0,0.0,0.0,0.0,0.0,0.0,0.0,0.0,0.0,0.0,0.0,0.0,0.0,0.0,0.0,-3.3479,-3.6767,-3.5259,-3.6458,-4.05,-3.9939,-3.9908,-4.061,-3.9608,-3.9018,-3.8927,0.0,0.0,0.0,0.0,0.0,0.0,0.0,0.0,0.0,0.0,0.0,0.0,0.0,0.0,0.0,0.0,0.0,0.0,0.0,0.0,0.0,0.0,0.0,0.0,0.0,0.0,-3.0479,-2.9671,-2.8794,0.0,0.0,0.0,0.0,0.0,0.0,0.0,0.0,0.0,0.0,-3.0351,-3.1283,-3.2545,-3.3122,-3.3862,-3.5297,-3.4053,-3.2869,-3.2838,-3.2214,-3.1024,0.0,0.0,0.0,0.0,0.0,0.0,0.0,0.0,0.0,0.0,0.0,0.0,0.0,0.0,0.0,0.0,0.0,0.0,0.0,0.0,0.0,0.0,0.0,0.0,0.0,0.0,0.0,-3.6497,-3.6497,0.0,0.0,0.0,0.0,0.0,0.0,0.0,0.0,0.0,0.0,0.0,-3.6942,-3.7232,0.0,0.0,0.0,0.0,0.0,0.0,0.0,0.0,0.0,0.0,0.0,0.0,-3.493,-3.756,-3.6651,-3.7328,-3.9855,-4.0713,-4.1208,-4.1293,-4.1481,-4.115,-4.0233,0.0,0.0,0.0,0.0,0.0,0.0,0.0,0.0,0.0,0.0,0.0,0.0,0.0,0.0,0.0,0.0,0.0,0.0,0.0,0.0,0.0,0.0,0.0,0.0,0.0,-3.0639,0.0,0.0,0.0,0.0,0.0,0.0,0.0,0.0,0.0,0.0,0.0,-3.0101,-3.0051,-3.1028,-3.2014,-3.2827,-3.3425,-3.4002,0.0,0.0,0.0,0.0,0.0,0.0,0.0,0.0,0.0,0.0,0.0,0.0,0.0,0.0,-3.5254,-3.3118,-3.2727,-3.2979,-3.3889,0.0,0.0,0.0,0.0,0.0,0.0,0.0,0.0,0.0,0.0,0.0,0.0,0.0,0.0,0.0,0.0,-3.847,0.0,0.0,0.0,0.0,0.0,0.0,0.0,0.0,-3.8644,-3.8972,-3.9533,-3.9823,-4.0133,0.0,-4.0442,-4.0268,0.0,0.0,0.0,0.0,0.0,0.0,0.0,0.0,-3.6535,-3.8934,-3.8237,-3.8779,-4.0752,-4.1821,-4.2256,-4.2112,-4.2182,-4.1616,-4.0328,-3.8968,-3.7962,0.0,0.0,0.0,0.0,0.0,0.0,0.0,0.0,0.0,0.0,0.0,0.0,0.0,0.0,0.0,0.0,0.0,0.0,0.0,0.0,0.0,0.0,0.0,-3.0677,0.0,0.0,0.0,0.0,0.0,0.0,0.0,0.0,0.0,-3.0112,-3.0199,-3.0487,-3.1117,-3.1666,-3.2292,-3.3158,0.0,0.0,0.0,0.0,0.0,0.0,0.0,-3.2426,-3.3134,-3.3422,-3.4127,-3.5796,-3.6908,-3.7781,-3.8277,0.0,0.0,-3.5198,-3.4987,-3.5155,-3.51,-3.5717,-3.6205,-3.5899,-3.5889,-3.5787,0.0,0.0,0.0,0.0,0.0,0.0,0.0,0.0,-3.8814,-3.9495,0.0,-3.9204,0.0,0.0,0.0,0.0,0.0,0.0,0.0,0.0,-3.9739,-4.0539,-4.2106,-4.2937,-4.3788,-4.462,-4.4543,-4.4117,-4.3208,-4.0036,0.0,0.0,0.0,0.0,0.0,0.0,-3.8257,-4.0694,-3.9997,-4.0771,-4.3137,-4.3111,-4.3032,-4.3035,-4.1791,-4.0621,-3.9533,-3.9853,-3.9237,-3.7562,-3.8659,0.0,0.0,0.0,0.0,0.0,0.0,0.0,0.0,0.0,0.0,0.0,0.0,0.0,0.0,0.0,0.0,0.0,0.0,0.0,0.0,-3.0801,0.0,0.0,0.0,0.0,0.0,0.0,0.0,0.0,0.0,0.0,-3.1162,-3.0395,-3.0532,-3.278,0.0,0.0,0.0,0.0,-3.4485,-3.4467,-3.4235,-3.4309,-3.4988,-3.4452,-3.4002,-3.4139,0.0,0.0,-3.7466,-3.834,-3.8927,-3.8872,-3.8414,-3.7691,-3.7709,-3.8046,-3.823,-3.7636,-3.8062,-3.8433,-3.7768,-3.757,-3.7353,-4.5122,0.0,0.0,0.0,0.0,-4.2352,-4.2912,-4.3772,-4.3675,-4.3576,-4.344,-4.2338,0.0,0.0,0.0,0.0,0.0,0.0,-4.1719,-4.3111,-4.315,-4.3711,-4.4697,-4.4968,-4.52,-4.5452,-4.5452,-4.5336,-4.5084,-4.3556,-4.1545,-3.9166,0.0,0.0,0.0,0.0,-3.9707,-4.1506,-4.1263,-4.1724,-4.3038,-4.3463,-4.3864,-4.4265,-4.3171,-4.2415,-4.2081,-4.1297,-4.0608,-4.0114,-4.0161,0.0,0.0,0.0,0.0,0.0,0.0,0.0,0.0,0.0,0.0,0.0,0.0,0.0,0.0,0.0,0.0,0.0,0.0,0.0,-3.0886,-3.1346,-3.1633,0.0,0.0,0.0,0.0,0.0,0.0,0.0,0.0,0.0,-3.3192,-3.2319,-3.2052,0.0,0.0,-3.3219,-3.4006,-3.419,-3.4226,-3.4027,-3.4407,0.0,0.0,-3.3839,-3.4063,-3.5453,-3.7825,-3.9877,-4.0781,-4.1589,-4.2121,-4.2103,-4.1937,-4.1668,-4.1151,-3.9312,-3.8113,-3.8297,-3.9003,-3.946,-3.9265,-3.9223,-3.914,-5.0027,-4.7038,-4.5555,-4.4945,-4.4985,-4.5284,-4.5548,-4.5762,-4.5935,-4.5909,-4.5717,-4.4643,-4.423,-4.4307,-4.3258,0.0,0.0,0.0,-4.4253,-4.5587,-4.5606,-4.6225,-4.7308,-4.7347,-4.7521,-4.7792,-4.7502,-4.7192,-4.6864,-4.6013,-4.4388,-4.2041,0.0,0.0,-4.1003,-4.0932,-4.1547,-4.2802,-4.2687,-4.2984,-4.3866,-4.4109,-4.4383,-4.4669,-4.4062,-4.3549,-4.3203,-4.2497,-4.1838,-4.126,-4.1085,-4.0694,0.0,0.0,0.0,0.0,0.0,0.0,0.0,0.0,0.0,0.0,0.0,-3.2898,0.0,0.0,0.0,0.0,-3.2026,-3.1815,-3.1877,-3.2282,0.0,0.0,0.0,0.0,0.0,0.0,0.0,-3.3378,-3.3096,-3.3237,-3.4082,-3.3561,-3.336,-3.4008,-3.3752,-3.371,-3.424,0.0,-3.425,-3.3998,-3.4352,-3.4576,-3.4321,-3.442,-3.5268,-3.7374,-3.957,-4.1397,-4.23,-4.3162,-4.3712,-4.3804,-4.3595,-4.338,-4.3386,-4.137,-3.9692,-3.9834,-4.0757,-4.128,-4.0556,-4.0877,-4.1247,-5.4776,-5.2997,-4.9346,-4.7706,-4.7521,-4.7681,-4.734,-4.6683,-4.6824,-4.7239,-4.7818,-4.6474,-4.6608,-4.776,-4.6375,0.0,-4.5882,-4.5882,-4.6385,-4.7289,-4.7308,-4.8179,-4.9765,-4.9784,-5.019,-5.0867,-5.0152,-4.9397,-4.8585,-4.7719,-4.6868,-4.6056,-4.4457,-4.3554,-4.3374,-4.3173,-4.3436,-4.4165,-4.4039,-4.4357,-4.5099,-4.4915,-4.4688,-4.4496,-4.4515,-4.413,-4.3362,-4.3467,-4.2895,-4.1531,-4.1548,-4.1378,-4.0808,0.0,0.0,0.0,0.0,0.0,0.0,0.0,0.0,0.0,0.0,0.0,0.0,0.0,0.0,0.0,-3.3621,0.0,-3.3512,-3.3573,0.0,0.0,0.0,-3.5079,-3.5834,-3.5078,-3.4494,-3.4507,0.0,0.0,-3.4293,0.0,-3.457,-3.5076,-3.4274,-3.3884,-3.4532,-3.4588,-3.4442,-3.425,-3.4221,-3.442,-3.4952,-3.5791,-3.7116,-3.9215,-4.057,-4.1538,-4.2556,-4.3453,-4.4065,-4.4299,-4.3801,-4.3528,-4.4298,-4.3659,-4.3004,-4.195,-4.2908,-4.3419,-4.1922,-4.2463,-4.3164,-5.6889,-5.5894,-5.4953,-5.3527,-5.1924,-5.1566,-5.1754,-5.2242,-5.1732,-5.1216,-5.0736,-4.9532,-4.8165,-4.6634,-4.5684,-4.5745,-4.6562,-4.6581,-4.7475,-4.9049,-4.9068,-4.9629,-5.0596,-5.0635,-5.0712,-5.0887,-5.0712,-5.0519,-5.0252,-4.9288,-4.8678,-4.841,-4.7261,-4.5764,-4.4058,-4.3808,-4.379,-4.3962,-4.4383,-4.4605,-4.4648,-4.4613,-4.4551,-4.4496,-4.4605,-4.4565,-4.4331,-4.4097,-4.3503,-4.2583,-4.217,-4.1621,-4.0834,-4.0602,0.0,0.0,0.0,0.0,0.0,0.0,0.0,0.0,0.0,-3.5379,-3.604,0.0,-3.4801,0.0,-3.5722,-3.5112,-3.4449,-3.4976,0.0,0.0,-3.6671,-3.6946,-3.7669,-3.6931,-3.6561,-3.7112,-3.6941,-3.6603,-3.6175,-3.6103,-3.6147,-3.6272,-3.548,-3.5105,-3.5685,-3.521,-3.4694,-3.4483,-3.4321,-3.4524,-3.5421,-3.6795,-3.8077,-3.9328,-4.0709,-4.1978,-4.2857,-4.3727,-4.4318,-4.4383,-4.4252,-4.4277,-4.4638,-4.4531,-4.4361,-4.4089,-4.4184,-4.421,-4.3692,-4.3781,-4.3836,-5.8315,-5.7922,-5.7976,-5.7237,-5.5975,-5.4576,-5.3898,-5.3777,-5.332,-5.2653,-5.1808,-5.1307,-5.0152,-4.8552,-4.8117,-4.8116,-4.8471,-4.8491,-4.9101,-5.0229,-5.0229,-5.0461,-5.0906,-5.0906,-5.0906,-5.0906,-5.0906,-5.0906,-5.0871,-5.0218,-4.9875,-4.9837,-4.8788,-4.7616,-4.6378,-4.5709,-4.5426,-4.5426,-4.5262,-4.5176,-4.5132,-4.4748,-4.4821,-4.5213,-4.4952,-4.4821,-4.4857,-4.4298,-4.3483,-4.2467,-4.2497,-4.2206,-4.1459,-4.1431,-4.1218,0.0,0.0,0.0,0.0,0.0,0.0,0.0,0.0,0.0,0.0,0.0,-3.7282,-3.826,-3.7631,-3.695,-3.6482,-3.6872,-3.7497,-3.8316,-3.8414,-3.8733,-3.946,-3.8723,-3.8307,-3.8628,-3.8279,-3.7815,-3.7348,-3.7257,-3.7262,-3.7241,-3.6788,-3.6438,-3.6342,-3.5929,-3.5382,-3.479,-3.4569,-3.4783,-3.5597,-3.6456,-3.7488,-3.8689,-3.9927,-4.1217,-4.2549,-4.3479,-4.4183,-4.4669,-4.4814,-4.4838,-4.4981,-4.5023,-4.5023,-4.5014,-4.4915,-4.4702,-4.4458,-4.4271,-4.4186,-5.9215,-5.9215,-5.9272,-5.9253,-5.899,-5.6831,-5.51,-5.3706,-5.3593,-5.3085,-5.2212,-5.2375,-5.2115,-5.1631,-5.1497,-5.1189,-5.072,-5.0701,-5.0817,-5.1013,-5.0948,-5.0948,-5.1013,-5.0913,-5.0874,-5.0855,-5.0822,-5.0805,-5.0805,-5.0625,-5.0547,-5.0509,-4.9633,-4.9163,-4.9121,-4.8186,-4.758,-4.7327,-4.6382,-4.5961,-4.6078,-4.5417,-4.5413,-4.6127,-4.5494,-4.5133,-4.5096,-4.4433,-4.3483,-4.2276,-4.2897,-4.3034,-4.2413,-4.2364,-4.2413,0.0,-4.2422,0.0,0.0,0.0,0.0,0.0,0.0,0.0,0.0,-4.0262,-4.0213,-3.9981,-3.9334,-3.8963,-3.9081,-3.898,-3.9253,-4.0034,-4.0132,-4.0372,-4.0914,-4.0276,-3.9714,-3.96,-3.8852,-3.8315,-3.818,-3.8161,-3.8151,-3.8092,-3.8019,-3.7753,-3.7089,-3.6678,-3.6096,-3.5192,-3.5002,-3.5078,-3.548,-3.5738,-3.644,-3.7868,-3.9034,-4.0137,-4.198,-4.3046,-4.3969,-4.4851,-4.518,-4.5256,-4.5277,-4.5277,-4.5277,-4.5256,-4.5254,-4.5103,-4.4682,-4.435,-4.4322,-5.9272,-5.929,-5.9309,-5.8915,-5.8295,-5.7845,-5.7231,-5.6494,-5.5775,-5.488,-5.3883,-5.3273,-5.2962,-5.2818,-5.2121,-5.1604,-5.1247,-5.1247,-5.1382,-5.1626,-5.1134,-5.1172,-5.1568,-5.0971,-5.0644,-5.0663,-5.0427,-5.0342,-5.0342,-5.0298,-5.0298,-5.0361,-5.0167,-5.0052,-5.0035,0.0,0.0,0.0,-4.722,-4.708,-4.7087,-4.6973,-4.6676,-4.6222,-4.6195,0.0,-4.5301,-4.5426,-4.5056,-4.4144,-4.4327,0.0,0.0,0.0,0.0,0.0,0.0,0.0,0.0,0.0,0.0,0.0,-4.2926,-4.275,-4.2845,-4.2927,-4.2382,-4.1013,-4.072,-4.0932,-4.1596,-4.1046,-4.0968,-4.1791,-4.1888,-4.169,-4.1175,-4.0753,-4.0568,-4.0529,-4.0237,-3.9777,-3.9146,-3.9065,-3.9019,-3.8903,-3.8903,-3.8827,-3.8621,-3.7403,-3.6491,-3.619,-3.5581,-3.5129,-3.5059,-3.5761,-3.6615,-3.7737,-3.9128,-4.0442,-4.1569,-4.2923,-4.3876,-4.4322,-4.4819,-4.5277,-4.5277,-4.5277,-4.5277,-4.5277,-4.5277,-4.5256,-4.5132,-4.4376,-4.3745,-5.929,0.0,-5.929,-5.9156,0.0,-5.8743,-5.8415,-5.7845,-5.6417,-5.5291,-5.4371,-5.3977,-5.3583,-5.317,-5.2738,-5.2307,-5.1839,-5.1528,-5.1545,-5.1778,-5.1636,-5.1689,-5.199,-5.2027,-5.1776,-5.1391,-5.126,-5.0991,-5.0548,-5.0449,-5.0389,-5.0449,-5.047,-5.0509,-5.0491,-5.049,-4.9944,-4.8857,-4.8381,-4.8118,-4.8093,-4.7694,-4.7547,-4.7596,0.0,0.0,0.0,0.0,0.0,0.0,0.0,0.0,0.0,0.0,0.0,-4.5404,-4.5423,-4.563,-4.6128,-4.6131,-4.6126,-4.6169,-4.6204,-4.5677,-4.4409,-4.4318,-4.3977,-4.3099,-4.265,-4.2552,-4.2962,-4.265,-4.2373,-4.2415,-4.2396,-4.2064,-4.1238,-4.0915,-4.0809,-4.077,-4.0623,-4.0335,-3.9954,-3.9892,-3.9669,-3.9262,-3.9514,-3.9538,-3.9084,-3.8322,-3.7521,-3.6661,-3.5763,-3.5176,-3.5166,-3.5848,-3.6776,-3.7655,-3.8801,-4.0253,-4.1877,-4.2832,-4.3654,-4.4399,-4.5029,-4.5277,-4.5277,-4.5277,-4.5277,-4.5277,-4.5277,-4.5125,-4.4781,-4.4169,-4.3806,-5.929,-5.929,-5.929,-5.9489,-5.9758,-5.9524,-5.9122,-5.8527,0.0,0.0,0.0,-5.4778,-5.4307,-5.3572,-5.3553,-5.3248,-5.2661,-5.2163,-5.205,-5.2259,-5.237,-5.2476,-5.2616,-5.3157,-5.3024,-5.2312,-5.2292,-5.1813,-5.0968,-5.0874,-5.0759,-5.0642,-5.0713,-5.0784,-5.0784,-5.0789,-5.0625,-5.024,-4.9515,-4.912,-4.9047,-4.8424,-4.8395,-4.9098,-4.7769,-4.6992,-4.6882,-4.577,-4.484,-4.4238,-4.5006,-4.5472,-4.5491,-4.6094,-4.6562,-4.6794,-4.7307,-4.7728,-4.7949,-4.8435,-4.873,-4.8802,-4.8798,-4.792,-4.5812,-4.5539,-4.546,-4.546,-4.4543,-4.3977,-4.4133,-4.4016,-4.3642,-4.2923,-4.2845,-4.2533,-4.169,-4.124,-4.1116,-4.1027,-4.0781,-4.0539,-4.0523,-4.0489,-4.0242,-3.9621,-3.9917,-4.0133,-3.9392,-3.8877,-3.7959,-3.6501,-3.5637,-3.5293,-3.5573,-3.6086,-3.6913,-3.7942,-3.8654,-3.9883,-4.1723,-4.2546,-4.3178,-4.4193,-4.4747,-4.4804,-4.4861,-4.4744,-4.4857,-4.4838,-4.4857,-4.4647,-4.3997,-4.3654,-4.3463,-5.9309,-5.929,-5.929,-5.9489,-5.9791,-5.9744,-5.9425,-5.8844,-5.7609,-5.6717,-5.6194,-5.6194,-5.5717,-5.4917,-5.4917,-5.4606,-5.4095,-5.4005,-5.3988,0.0,-5.3528,-5.3586,-5.4051,-5.3455,-5.2988,-5.2656,-5.264,-5.2079,-5.1199,-5.1523,-5.1374,-5.0791,-5.0913,-5.1069,-5.1114,-5.1134,-5.1029,-5.0874,-5.037,-5.0087,-5.0087,-4.9973,-4.9629,-4.9121,-4.9067,-4.8369,-4.6976,-4.7591,-4.7625,-4.6851,-4.7589,-4.8075,-4.8055,-4.8153,-4.8594,-4.9328,-4.8874,-4.8877,-4.9651,-4.914,-4.8789,-4.8798,-4.8798,-4.8642,-4.8291,-4.7627,-4.7237,-4.7178,-4.5792,-4.5148,-4.5753,-4.5265,-4.4738,-4.4602,-4.4602,-4.4289,-4.3333,-4.251,-4.2026,-4.1999,-4.1236,-4.0673,-4.0654,-4.0588,-4.0422,-4.0241,-4.0093,-4.0193,-3.9832,-3.882,-3.734,-3.5955,-3.546,-3.5726,-3.644,-3.6721,-3.7469,-3.8916,-3.9213,-3.9727,-4.1026,-4.1726,-4.2247,-4.2416,-4.3137,-4.34,-4.3421,-4.3216,-4.333,-4.3349,-4.3348,-4.3195,-4.3004,-4.2431,-4.1915,-6.0754,-6.0858,-6.0443,-6.0519,-6.0961,-6.0474,-6.0135,-5.9881,-5.937,-5.8391,-5.7263,-5.7206,-5.6728,-5.5944,-5.5925,-5.5498,-5.4833,-5.4523,-5.4414,-5.4397,-5.4243,-5.4353,-5.4612,-5.465,-5.4381,-5.3878,-5.384,-5.3356,-5.2504,-5.2701,-5.2395,-5.1595,-5.1302,-5.1171,-5.1202,-5.1134,-5.1062,-5.1005,-5.0771,-5.0586,-5.044,-5.0399,-5.0183,-4.9748,-4.9463,-4.901,-4.8326,-4.8357,-4.8257,-4.8017,-4.8366,-4.8612,-4.8671,-4.906,-4.9515,-5.0012,-5.0125,-5.0351,-5.0773,-5.0438,-5.0204,-5.0223,-5.0223,-5.0204,-5.0204,-4.8993,-4.8252,-4.8236,-4.7104,-4.6573,-4.6947,-4.6222,-4.5519,-4.5031,-4.5012,-4.4641,-4.3798,-4.2885,-4.2317,-4.2206,-4.138,-4.0769,-4.0708,-4.0646,-4.0346,-3.9915,-3.9712,-3.9658,-3.9641,-3.9023,-3.8281,-3.757,-3.7079,-3.7012,-3.7452,-3.7553,-3.8075,-3.9216,-3.9391,-3.9959,-4.101,-4.1706,-4.2015,-4.2518,-4.2893,-4.3031,-4.3006,-4.2942,-4.2871,-4.2814,-4.2794,-4.266,-4.2183,-4.1437,-4.0903,-6.2057,-6.2045,-6.1609,-6.1659,-6.1935,-6.1139,-6.0795,-6.0795,-6.0795,-5.9954,-5.8635,-5.8361,-5.7785,-5.6999,-5.6769,-5.6328,-5.5662,-5.503,-5.4766,-5.4824,-5.5168,-5.5258,-5.5161,-5.5915,-5.5859,-5.507,-5.5047,-5.4622,-5.3812,-5.3797,-5.3349,-5.2374,-5.1761,-5.1377,-5.1202,-5.1108,-5.1048,-5.1048,-5.1048,-5.089,-5.0548,-5.0547,-5.0507,-5.0361,-4.9848,-4.9548,-4.9517,-4.9103,-4.888,-4.8899,-4.9088,-4.9206,-4.9274,-4.9835,-5.025,-5.0424,-5.0976,-5.1361,-5.1398,-5.1394,-5.1394,-5.1394,-5.1394,-5.1394,-5.1297,-5.0184,-4.9286,-4.9056,-4.833,-4.7842,-4.7783,-4.71,-4.6319,-4.5675,-4.5402,-4.509,-4.4325,-4.3324,-4.2612,-4.2502,-4.1598,-4.0888,-4.1001,-4.0978,-4.0675,-4.0032,-3.9541,-3.9352,-3.935,-3.941,-3.9503,-3.9378,-3.8697,-3.8175,-3.8363,-3.848,-3.8782,-3.943,-3.9489,-3.9906,-4.0787,-4.1164,-4.1575,-4.2039,-4.2396,-4.2419,-4.2456,-4.2343,-4.2157,-4.1838,-4.1839,-4.1934,-4.1342,-4.0807,-4.0348,-6.2279,-6.1736,-6.2328,-6.2372,-6.1939,-6.1328,-6.1099,-6.108,-6.1061,-6.1003,-6.0616,-6.0017,-5.9225,-5.8355,-5.7602,-5.7216,-5.7023,-5.6228,-5.588,-5.5977,-5.6691,-5.665,-5.6051,-5.6766,-5.6599,-5.5671,-5.573,-5.5305,-5.44,-5.4547,-5.3901,-5.2557,-5.2324,-5.194,-5.1299,-5.121,-5.119,-5.119,-5.1171,-5.1009,-5.0696,-5.0678,-5.0698,-5.0661,-5.0781,-5.0457,-4.9795,-5.0487,-5.055,-4.9932,-5.05,-5.0942,-5.0926,-5.0972,-5.107,-5.1232,-5.1228,-5.1261,-5.1375,-5.1394,-5.1394,-5.1394,-5.1394,-5.1394,-5.1394,-5.1238,-5.0809,-5.0048,-4.9208,-4.872,-4.8642,-4.7959,-4.7393,-4.7139,-4.6573,-4.6124,-4.5792,-4.4579,-4.3564,-4.3548,-4.2159,-4.1253,-4.1961,-4.1828,-4.154,-4.1128,-4.0424,-4.0077,-4.0175,-4.0239,-4.0351,-4.0331,-3.9384,-3.8846,-3.9369,-3.963,-3.9571,-3.9714,-3.974,-3.9609,-3.9459,-3.9653,-4.0069,-4.0546,-4.056,-4.0875,-4.093,-4.0716,-4.0342,-4.0262,-4.0382,-4.0616,-4.0444,-4.031,-4.0215,-6.3882,-6.3283,-6.3111,-6.2743,-6.2234,-6.195,-6.1872,-6.1834,-6.1331,-6.1099,-6.106,-6.075,-6.0151,-5.9359,-5.899,-5.8584,-5.8062,-5.7695,-5.7521,-5.7501,-5.7385,-5.7366,-5.7482,-5.6766,-5.65,-5.6541,-5.6209,-5.5764,-5.5363,-5.502,-5.4512,-5.389,-5.3424,-5.2737,-5.196,-5.1901,-5.1688,-5.1222,-5.1202,-5.1127,-5.1009,-5.0937,-5.0819,-5.0713,-5.0767,-5.0735,-5.0526,-5.0893,-5.0965,-5.0714,-5.1012,-5.1205,-5.1209,-5.1169,-5.1151,-5.1162,-5.1191,-5.1206,-5.1271,-5.1338,-5.1394,-5.1394,-5.1394,-5.1394,-5.1394,-5.1394,-5.1219,-5.0848,-5.0087,-4.9579,-4.9501,-4.8798,-4.8115,-4.7686,-4.7256,-4.6866,-4.6319,-4.5226,-4.4484,-4.4387,-4.3381,-4.267,-4.2856,-4.2366,-4.1843,-4.1579,-4.0912,-4.0436,-4.0492,-4.0564,-4.0694,-4.0781,-4.0291,-4.0162,-4.0422,-4.0097,-3.9883,-3.9727,-3.9357,-3.8805,-3.8571,-3.8576,-3.9019,-3.9363,-3.9348,-3.9477,-3.9802,-3.9287,-3.8818,-3.8933,-3.9712,-4.0329,-4.0329,-3.989,-3.9756,-6.5177,-6.4551,-6.3704,-6.3122,-6.2743,-6.2511,-6.2259,-6.1988,-6.1369,-6.1099,-6.1118,-6.1331,-6.1157,-6.0577,-6.0132,-5.9532,-5.899,-5.87,-5.8584,-5.8565,-5.8159,-5.8217,-5.8449,-5.7637,-5.7269,-5.7521,-5.7037,-5.6611,-5.6319,-5.5606,-5.5142,-5.484,-5.4336,-5.3611,-5.2814,-5.2542,-5.2232,-5.1901,-5.1474,-5.1299,-5.1462,-5.1205,-5.1,-5.0851,-5.0832,-5.0917,-5.1029,-5.1048,-5.1093,-5.1215,-5.1225,-5.1222,-5.1206,-5.1152,-5.1203,-5.1353,-5.1479,-5.1564,-5.1603,-5.1708,-5.1648,-5.1433,-5.1394,-5.1394,-5.1394,-5.1394,-5.1394,-5.1336,-5.0828,-5.0457,-5.0379,-4.9677,-4.8915,-4.8349,-4.7959,-4.7315,-4.6729,-4.5714,-4.4992,-4.4933,-4.4094,-4.3775,-4.3763,-4.3222,-4.2765,-4.2589,-4.1555,-4.0781,-4.0858,-4.0868,-4.0807,-4.0926,-4.1018,-4.1065,-4.1052,-4.0662,-4.0117,-3.9396,-3.887,-3.8371,-3.7907,-3.7755,-3.7957,-3.8169,-3.8036,-3.8215,-3.8719,-3.8315,-3.7951,-3.8491,-3.9049,-3.9565,-3.9775,-3.9317,-3.9489,-6.5701,-6.4889,-6.4038,-6.3652,-6.3555,-6.2743,-6.195,-6.1331,-6.1137,-6.1099,-6.1273,-6.1969,-6.2298,-6.2143,-6.0789,-5.9919,-5.9764,-5.9145,-5.8797,-5.8816,-5.9377,-5.9339,-5.8662,-5.9319,-5.9261,-5.8565,-5.8351,-5.7981,-5.7318,-5.6582,-5.5714,-5.4996,-5.5022,-5.4524,-5.3669,-5.2912,-5.2814,-5.3203,-5.2096,-5.163,-5.2154,-5.1618,-5.1287,-5.1295,-5.1198,-5.1217,-5.1229,-5.119,-5.1208,-5.1222,-5.1263,-5.1263,-5.1199,-5.1072,-5.1358,-5.2076,-5.2333,-5.2465,-5.2542,-5.2542,-5.2253,-5.155,-5.1394,-5.1394,-5.1394,-5.1394,-5.1394,-5.1394,-5.1316,-5.1238,-5.118,-5.0516,-4.9989,-4.9755,-4.8525,-4.7783,-4.7549,-4.6261,-4.5168,-4.507,-4.4602,-4.4333,-4.463,-4.4617,-4.4319,-4.3943,-4.2854,-4.1879,-4.1884,-4.1432,-4.1207,-4.1244,-4.126,-4.113,-4.111,-4.0916,-4.0214,-3.9396,-3.8792,-3.8026,-3.7073,-3.6475,-3.6813,-3.7127,-3.7328,-3.7555,-3.78,-3.7836,-3.7663,-3.7712,-3.7464,-3.7827,-3.9183,-3.9089,-3.9242,-6.5721,-6.4909,-6.4038,-6.369,-6.3594,-6.2762,-6.222,-6.1911,-6.1331,-6.1427,-6.1911,-6.2259,-6.2723,-6.3207,-6.2607,-6.2027,-6.1485,-6.1157,-6.075,-6.0228,-5.9996,-5.9996,-6.0151,-5.9474,-5.926,-5.9355,-5.8927,-5.8518,-5.8257,-5.7955,-5.7402,-5.6698,-5.6647,-5.5961,-5.4718,-5.4232,-5.398,-5.365,-5.3048,-5.295,-5.3164,-5.295,-5.2795,-5.2756,-5.2251,-5.196,-5.196,-5.196,-5.1755,-5.1302,-5.1288,-5.123,-5.1089,-5.0912,-5.1199,-5.2056,-5.2302,-5.2416,-5.2565,-5.265,-5.2312,-5.1531,-5.1394,-5.1394,-5.1394,-5.1394,-5.1394,-5.1394,-5.1394,-5.1394,-5.1355,-5.1102,-5.0711,-5.0126,-4.956,-4.8915,-4.8427,-4.7783,-4.7432,-4.7315,-4.671,-4.6132,-4.5591,-4.5145,-4.4696,-4.451,-4.3521,-4.292,-4.2869,-4.2646,-4.2449,-4.2649,-4.2689,-4.2513,-4.189,-4.1383,-4.0682,-3.9727,-3.8903,-3.8046,-3.7143,-3.6198,-3.6258,-3.6593,-3.6757,-3.6635,-3.6814,-3.7143,-3.7043,-3.7024,-3.6757,-3.7426,-3.8782,-3.8784,-3.8936,-6.6127,-6.5392,-6.5044,-6.4599,-6.4077,-6.3497,-6.3071,-6.2781,-6.2201,-6.2278,-6.2801,-6.3091,-6.3594,-6.4116,-6.4387,-6.4038,-6.3245,-6.2955,-6.2491,-6.1911,-6.1099,-6.1002,-6.1215,-6.0074,-5.9724,-6.0126,-5.954,-5.9165,-5.9122,-5.8916,-5.8484,-5.7954,-5.7948,-5.7282,-5.6019,-5.5573,-5.5087,-5.4563,-5.3999,-5.3805,-5.4019,-5.3824,-5.3844,-5.398,-5.3533,-5.3086,-5.2853,-5.2814,-5.2475,-5.1845,-5.1726,-5.1523,-5.1113,-5.0898,-5.136,-5.246,-5.2767,-5.2999,-5.3312,-5.323,-5.2741,-5.1902,-5.155,-5.1394,-5.1394,-5.1394,-5.1394,-5.1394,-5.1394,-5.1394,-5.1394,-5.1394,-5.1141,-5.0575,-5.0282,-4.9891,-4.9306,-4.8974,-4.8759,-4.8564,-4.792,-4.7272,-4.6709,-4.5813,-4.5321,-4.5196,-4.4336,-4.384,-4.386,-4.3625,-4.3478,-4.3552,-4.3169,-4.2786,-4.2318,-4.1831,-4.0974,-4.0019,-3.9201,-3.8273,-3.7463,-3.6455,-3.5875,-3.6132,-3.6085,-3.5809,-3.5897,-3.6317,-3.6511,-3.6642,-3.6757,-3.729,-3.8075,-3.8555,-3.8898,-6.694,-6.634,-6.7094,-6.6263,-6.5044,-6.4735,-6.4367,-6.3652,-6.3555,-6.3536,-6.3768,-6.4503,-6.4812,-6.5141,-6.5644,-6.5644,-6.487,-6.4155,-6.371,-6.3381,-6.2685,-6.2336,-6.2356,-6.1562,-6.1097,-6.1208,-6.0499,-6.0158,-6.0061,-5.943,-5.8978,-5.8855,-5.8817,-5.837,-5.7554,-5.6719,-5.6272,-5.5903,-5.4737,-5.4271,-5.4796,-5.431,-5.4291,-5.4912,-5.4932,-5.4543,-5.3805,-5.374,-5.3341,-5.2645,-5.2507,-5.2148,-5.142,-5.1171,-5.1877,-5.3416,-5.3805,-5.4274,-5.4927,-5.4342,-5.3483,-5.2624,-5.1863,-5.1394,-5.1394,-5.1394,-5.1394,-5.1394,-5.1394,-5.1394,-5.1394,-5.1394,-5.1375,-5.1316,-5.0692,-5.0243,-5.0008,-4.9384,-4.8837,-4.8818,-4.831,-4.7662,-4.7338,-4.683,-4.632,-4.5936,-4.5468,-4.4966,-4.4857,-4.4382,-4.3831,-4.3656,-4.3643,-4.3429,-4.2844,-4.2221,-4.1247,-4.0312,-3.9532,-3.8715,-3.8121,-3.7259,-3.6535,-3.655,-3.6443,-3.622,-3.67,-3.7082,-3.7292,-3.7387,-3.7328,-3.7575,-3.84,-3.9127,-3.9204,-6.6785,-6.6959,-6.6127,-6.5837,-6.5644,-6.4599,-6.3903,-6.3729,-6.369,-6.4019,-6.4561,-6.4889,-6.5296,-6.5779,-6.6108,-6.6069,-6.5799,-6.5529,-6.4871,-6.3864,-6.3458,-6.336,-6.3302,-6.3087,-6.2657,-6.2241,-6.1997,-6.158,-6.1056,-6.0706,-6.0332,-5.9827,-5.971,-5.9244,-5.8428,-5.7625,-5.7198,-5.7049,-5.6078,-5.565,-5.5883,-5.5631,-5.5631,-5.5864,-5.5883,-5.5728,-5.5495,-5.4955,-5.4005,-5.2718,-5.2607,-5.2401,-5.2084,-5.1955,-5.2746,-5.4275,-5.4649,-5.4797,-5.505,-5.4473,-5.362,-5.2761,-5.1902,-5.1453,-5.1394,-5.1394,-5.1394,-5.1394,-5.1394,-5.1394,-5.1394,-5.1394,-5.1394,-5.1394,-5.116,-5.0945,-5.0906,-5.0711,-5.0321,-4.9794,-4.9462,-4.8833,-4.7942,-4.7543,-4.7351,-4.6482,-4.6404,-4.6429,-4.5864,-4.5533,-4.5397,-4.5338,-4.491,-4.4189,-4.3585,-4.3215,-4.2689,-4.1539,-4.0506,-3.9526,-3.8855,-3.7996,-3.729,-3.6947,-3.6814,-3.6963,-3.7406,-3.7789,-3.7999,-3.8381,-3.859,-3.9048,-3.9623,-3.9776,-3.9719,-6.7307,-6.7443,-6.7036,-6.694,-6.7017,-6.5663,-6.5102,-6.5044,-6.4754,-6.4948,-6.5373,-6.545,-6.5702,-6.6127,-6.6205,-6.6225,-6.6264,-6.6284,-6.5741,-6.4754,-6.4365,-6.4288,-6.4209,-6.3934,-6.3618,-6.3204,-6.3153,-6.2915,-6.2371,-6.2022,-6.1594,-6.1128,-6.0759,-6.0157,-5.9341,-5.8791,-5.8422,-5.8001,-5.7204,-5.6777,-5.6699,-5.6466,-5.6311,-5.6291,-5.6291,-5.6311,-5.6265,-5.5814,-5.4773,-5.3337,-5.2775,-5.2675,-5.287,-5.2919,-5.3511,-5.4629,-5.5037,-5.5128,-5.5097,-5.4448,-5.3595,-5.2745,-5.1902,-5.1414,-5.1394,-5.1394,-5.1394,-5.1394,-5.1394,-5.1394,-5.1394,-5.1394,-5.1394,-5.1394,-5.1375,-5.1394,-5.1394,-5.1394,-5.1199,-5.0633,-5.0262,-4.9551,-4.8957,-4.8055,-4.7981,-4.6989,-4.7132,-4.7411,-4.6826,-4.6683,-4.6644,-4.6371,-4.5631,-4.4929,-4.4306,-4.413,-4.4091,-4.2961,-4.1695,-4.065,-3.9765,-3.8588,-3.7699,-3.7666,-3.7575,-3.7557,-3.796,-3.8419,-3.8763,-3.9259,-3.9775,-3.9833,-4.0024,-3.9948,-3.9948,-6.8216,-6.781,-6.9164,-6.9241,-6.87,-6.7791,-6.7307,-6.723,-6.6572,-6.6166,-6.6166,-6.6089,-6.6127,-6.6185,-6.6205,-6.6245,-6.6283,-6.6302,-6.6301,-6.5989,-6.556,-6.5172,-6.5114,-6.4605,-6.4233,-6.4016,-6.4027,-6.3983,-6.3673,-6.307,-6.2721,-6.2429,-6.175,-6.1031,-6.0293,-6.0118,-5.9555,-5.8855,-5.8078,-5.7651,-5.7496,-5.6855,-5.6447,-5.6447,-5.6466,-5.6544,-5.6666,-5.6358,-5.55,-5.4017,-5.3186,-5.3127,-5.3708,-5.3865,-5.4298,-5.5187,-5.5172,-5.5204,-5.5037,-5.4394,-5.3551,-5.2749,-5.1941,-5.1394,-5.1394,-5.1394,-5.1394,-5.1394,-5.1394,-5.1394,-5.1394,-5.1394,-5.1394,-5.1394,-5.1394,-5.1394,-5.1394,-5.1394,-5.1316,-5.1199,-5.0692,-5.0102,-4.9879,-4.8703,-4.7986,-4.7462,-4.7431,-4.7379,-4.7157,-4.6995,-4.7306,-4.6897,-4.6176,-4.5631,-4.5007,-4.5007,-4.4851,-4.3643,-4.2701,-4.2123,-4.0988,-3.9779,-3.8737,-3.8639,-3.8723,-3.8591,-3.8744,-3.9412,-3.9966,-4.054,-4.0673,-4.0406,-4.0387,-4.0539,-4.0232,-6.7501,-6.841,-6.8255,-6.8738,-6.9473,-6.8816,-6.8061,-6.752,-6.7249,-6.6688,-6.6321,-6.6205,-6.6185,-6.6205,-6.6245,-6.6283,-6.6302,-6.6357,-6.6392,-6.637,-6.6267,-6.6128,-6.6128,-6.5914,-6.5444,-6.494,-6.4862,-6.4586,-6.4022,-6.3789,-6.3342,-6.2701,-6.2527,-6.1924,-6.1128,-6.0487,-6.0021,-5.9691,-5.8914,-5.8176,-5.769,-5.7437,-5.7263,-5.7263,-5.7263,-5.7535,-5.7904,-5.6931,-5.5862,-5.4833,-5.393,-5.3876,-5.4636,-5.4753,-5.5108,-5.5755,-5.5971,-5.5728,-5.5118,-5.4372,-5.3553,-5.2749,-5.1902,-5.1394,-5.1394,-5.1394,-5.1394,-5.1394,-5.1394,-5.1394,-5.1394,-5.1394,-5.1394,-5.1394,-5.1394,-5.1394,-5.1394,-5.1394,-5.1394,-5.1355,-5.116,-5.0766,-5.0215,-4.966,-4.885,-4.7956,-4.7626,-4.745,-4.7267,-4.715,-4.7443,-4.7248,-4.6702,-4.6215,-4.5864,-4.5864,-4.5377,-4.4189,-4.3688,-4.381,-4.2714,-4.157,-4.0665,-4.0114,-4.0519,-4.0559,-4.0635,-4.0998,-4.1476,-4.2068,-4.2125,-4.2125,-4.1793,-4.1711,-4.0877,-6.7346,-6.8294,-6.8448,-6.8893,-6.9415,-6.899,-6.8313,-6.7539,-6.7094,-6.6708,-6.6263,-6.6205,-6.6205,-6.6264,-6.6264,-6.6302,-6.6357,-6.6373,-6.6406,-6.6458,-6.6454,-6.647,-6.647,-6.6489,-6.6237,-6.5809,-6.5751,-6.5518,-6.5071,-6.4702,-6.4216,-6.3828,-6.3401,-6.2779,-6.1983,-6.1497,-6.0973,-6.0584,-5.9807,-5.9088,-5.8681,-5.8273,-5.8117,-5.8117,-5.8117,-5.837,-5.8583,-5.7845,-5.6831,-5.5725,-5.483,-5.4704,-5.5482,-5.5599,-5.5819,-5.6304,-5.633,-5.5977,-5.5157,-5.434,-5.3535,-5.2736,-5.1882,-5.1472,-5.1394,-5.1394,-5.1394,-5.1394,-5.1394,-5.1394,-5.1394,-5.1394,-5.1394,-5.1394,-5.1394,-5.1394,-5.1394,-5.1394,-5.1394,-5.1394,-5.1375,-5.1258,-5.0672,-5.0347,-4.965,-4.8937,-4.8756,-4.8256,-4.7715,-4.7618,-4.7618,-4.7676,-4.7696,-4.7384,-4.7072,-4.6995,-4.6897,-4.5689,-4.4825,-4.5005,-4.3957,-4.2937,-4.2295,-4.1755,-4.2219,-4.2507,-4.2469,-4.2679,-4.3405,-4.3825,-4.3903,-4.3746,-4.3387,-4.3001,-4.2102,-6.7423,-6.7617,-6.9106,-6.9377,-6.8874,-6.8777,-6.8313,-6.7443,-6.6804,-6.6379,-6.6244,-6.6225,-6.6245,-6.6322,-6.6321,-6.6357,-6.6409,-6.6426,-6.6458,-6.6474,-6.6508,-6.6508,-6.6508,-6.6508,-6.645,-6.6353,-6.647,-6.6392,-6.6081,-6.5596,-6.5285,-6.4896,-6.4352,-6.3692,-6.2934,-6.2643,-6.2235,-6.1516,-6.0681,-6.0106,-5.9756,-5.9251,-5.8979,-5.9032,-5.9227,-5.9137,-5.9106,-5.8803,-5.8243,-5.6664,-5.5753,-5.5721,-5.6265,-5.6285,-5.6278,-5.629,-5.6267,-5.5959,-5.5187,-5.4451,-5.3687,-5.2973,-5.2117,-5.155,-5.1609,-5.1531,-5.1394,-5.1394,-5.1472,-5.1629,-5.1629,-5.1531,-5.1394,-5.1394,-5.1394,-5.1394,-5.1394,-5.1394,-5.1394,-5.1394,-5.1394,-5.1394,-5.1191,-5.0713,-5.0054,-4.9529,-4.9341,-4.8743,-4.8397,-4.8436,-4.8573,-4.8787,-4.8768,-4.8709,-4.8417,-4.8164,-4.8027,-4.7501,-4.6488,-4.5947,-4.4742,-4.3865,-4.3465,-4.33,-4.3553,-4.3771,-4.3921,-4.4418,-4.5067,-4.526,-4.5088,-4.5036,-4.4929,-4.4524,-4.3811,-6.6882,-6.7539,-6.7868,-6.8352,-6.8738,-6.8777,-6.8294,-6.7462,-6.7288,-6.6747,-6.64,-6.6284,-6.6322,-6.6396,-6.6375,-6.6389,-6.6426,-6.6458,-6.6493,-6.6489,-6.6508,-6.6508,-6.6508,-6.6508,-6.6508,-6.6508,-6.6508,-6.6508,-6.6392,-6.6237,-6.5848,-6.5246,-6.5091,-6.4527,-6.377,-6.3182,-6.2663,-6.2293,-6.1575,-6.0857,-6.0378,-6.004,-5.9861,-6.0001,-6.0483,-6.049,-6.0087,-5.997,-5.9463,-5.848,-5.7585,-5.6931,-5.6601,-5.6453,-5.6461,-5.6417,-5.6339,-5.6023,-5.5332,-5.5,-5.457,-5.3845,-5.2995,-5.2429,-5.2351,-5.1824,-5.1511,-5.1531,-5.198,-5.237,-5.2292,-5.1765,-5.1511,-5.1433,-5.1394,-5.1394,-5.1394,-5.1394,-5.1394,-5.1394,-5.1394,-5.139,-5.1357,-5.0698,-5.0251,-5.0069,-4.9685,-4.9126,-4.9079,-4.9196,-4.9352,-4.9547,-4.9547,-4.9488,-4.9527,-4.9177,-4.8806,-4.8514,-4.7696,-4.715,-4.5916,-4.5007,-4.4688,-4.4645,-4.4768,-4.5053,-4.5609,-4.5526,-4.608,-4.6158,-4.6347,-4.6268,-4.6171,-4.5866,-4.533,-6.6475,-6.692,-6.7326,-6.752,-6.7655,-6.7984,-6.7694,-6.6998,-6.6921,-6.6709,-6.638,-6.6322,-6.6376,-6.6411,-6.6409,-6.6406,-6.6458,-6.6493,-6.6508,-6.6508,-6.6508,-6.6508,-6.6508,-6.6508,-6.6508,-6.6508,-6.6508,-6.6508,-6.6508,-6.647,-6.6237,-6.5848,-6.577,-6.5362,-6.4678,-6.4092,-6.3741,-6.3219,-6.2493,-6.181,-6.1463,-6.0952,-6.0776,-6.0871,-6.1252,-6.1252,-6.09,-6.0842,-6.0393,-5.97,-5.9104,-5.847,-5.7749,-5.7535,-5.7385,-5.7024,-5.6953,-5.6836,-5.6445,-5.5683,-5.5193,-5.5224,-5.4068,-5.3502,-5.3268,-5.2839,-5.2663,-5.2702,-5.2975,-5.319,-5.2761,-5.239,-5.1921,-5.1453,-5.1414,-5.1414,-5.1414,-5.1394,-5.1394,-5.1394,-5.1394,-5.1386,-5.1157,-5.079,-5.0732,-5.0706,-5.0692,-5.017,-4.98,-4.9898,-4.9937,-5.0073,-5.0131,-5.0229,-5.0424,-5.0151,-4.9527,-4.904,-4.8339,-4.8066,-4.7525,-4.6725,-4.6027,-4.6169,-4.6379,-4.7123,-4.7568,-4.7392,-4.7439,-4.8124,-4.8327,-4.7838,-4.7502,-4.7415,-4.6588,-6.6205,-6.6263,-6.6998,-6.6882,-6.6379,-6.6998,-6.6941,-6.6322,-6.6303,-6.638,-6.634,-6.6376,-6.6392,-6.6406,-6.6442,-6.6458,-6.6474,-6.6528,-6.6547,-6.6839,-6.6586,-6.6683,-6.6722,-6.6644,-6.6508,-6.6508,-6.6508,-6.6508,-6.6508,-6.6489,-6.6431,-6.6431,-6.6495,-6.6061,-6.555,-6.5278,-6.485,-6.4177,-6.3423,-6.2813,-6.2584,-6.1974,-6.1661,-6.1444,-6.1748,-6.169,-6.1516,-6.1397,-6.1179,-6.0571,-6.0513,-6.0122,-5.9592,-5.9015,-5.8765,-5.7926,-5.7906,-5.7884,-5.7676,-5.6855,-5.6339,-5.6879,-5.5591,-5.4752,-5.4674,-5.4361,-5.4088,-5.401,-5.4014,-5.3717,-5.3171,-5.2975,-5.2585,-5.2117,-5.1863,-5.1785,-5.1785,-5.1785,-5.1902,-5.1394,-5.1394,-5.1386,-5.1391,-5.1199,-5.1284,-5.133,-5.1308,-5.1164,-5.0755,-5.056,-5.0579,-5.0599,-5.0657,-5.0677,-5.0872,-5.0833,-5.0248,-4.9625,-4.8962,-4.8806,-4.8768,-4.8324,-4.7728,-4.787,-4.8236,-4.8784,-4.9202,-4.9161,-4.948,-5.0272,-4.9968,-4.9105,-4.8928,-4.9008,-4.793,-6.6205,-6.6205,-6.6359,-6.6321,-6.6224,-6.6438,-6.6438,-6.6322,-6.636,-6.6394,-6.6373,-6.6409,-6.6442,-6.6474,-6.6474,-6.6508,-6.6508,-6.6606,-6.6936,-6.7285,-6.7033,-6.6975,-6.7296,-6.7063,-6.6674,-6.6508,-6.6577,-6.6611,-6.6504,-6.6508,-6.6528,-6.6514,-6.6555,-6.6388,-6.6147,-6.5788,-6.5457,-6.5086,-6.4349,-6.3679,-6.318,-6.2686,-6.2214,-6.1854,-6.2263,-6.2219,-6.1785,-6.1665,-6.1584,-6.1486,-6.1467,-6.1349,-6.0872,-5.984,-5.9171,-5.8923,-5.8847,-5.8866,-5.8755,-5.857,-5.8449,-5.8426,-5.7582,-5.7113,-5.6782,-5.6001,-5.5513,-5.5142,-5.4771,-5.4337,-5.4825,-5.4322,-5.3815,-5.3561,-5.3463,-5.3463,-5.3483,-5.3463,-5.3014,-5.2191,-5.18,-5.1503,-5.1625,-5.1622,-5.1512,-5.1537,-5.1542,-5.1398,-5.1086,-5.1039,-5.1156,-5.1156,-5.1183,-5.1183,-5.1222,-5.1145,-5.0833,-5.0229,-4.9683,-4.9391,-4.9391,-4.9547,-4.9487,-4.9329,-4.9369,-4.9644,-5.0079,-5.0394,-5.0385,-5.0329,-5.0221,-5.0111,-4.9749,-4.9396,-4.9321,-6.6205,-6.6185,-6.6245,-6.6245,-6.6284,-6.6322,-6.634,-6.6378,-6.6394,-6.6409,-6.6426,-6.6442,-6.6493,-6.6508,-6.6508,-6.6508,-6.6567,-6.7033,-6.7402,-6.7693,-6.7829,-6.7733,-6.8028,-6.7788,-6.7284,-6.6994,-6.6995,-6.6972,-6.6594,-6.6604,-6.6604,-6.6595,-6.6631,-6.6666,-6.661,-6.6321,-6.6103,-6.591,-6.5312,-6.4686,-6.415,-6.3515,-6.2693,-6.2608,-6.2654,-6.2501,-6.1974,-6.2228,-6.211,-6.1798,-6.1701,-6.172,-6.146,-6.1004,-6.0194,-5.9895,-5.9776,-5.9771,-5.9655,-5.9456,-5.9222,-5.9612,-5.8987,-5.8538,-5.8343,-5.7758,-5.7192,-5.7074,-5.7016,-5.6586,-5.6602,-5.5801,-5.522,-5.4771,-5.4708,-5.4728,-5.4786,-5.5099,-5.447,-5.3484,-5.3278,-5.2921,-5.2147,-5.2051,-5.1778,-5.1725,-5.1787,-5.1663,-5.1479,-5.1511,-5.1619,-5.1297,-5.1219,-5.1239,-5.1219,-5.12,-5.1161,-5.0655,-5.0255,-4.9982,-4.9943,-5.0062,-5.0286,-5.0378,-5.05,-5.0337,-5.04,-5.051,-5.0425,-5.0329,-5.0264,-5.0149,-4.9936,-4.973,-4.9637,-6.6245,-6.6245,-6.6303,-6.6322,-6.634,-6.6396,-6.6413,-6.6394,-6.6406,-6.6422,-6.6442,-6.6474,-6.6508,-6.6508,-6.6508,-6.6508,-6.6586,-6.7363,-6.7849,-6.8233,-6.8667,-6.8735,-6.8756,-6.8661,-6.8492,-6.7709,-6.7898,-6.7682,-6.6787,-6.6661,-6.6712,-6.6692,-6.6702,-6.6731,-6.6703,-6.6659,-6.6796,-6.6596,-6.6231,-6.5819,-6.5253,-6.4316,-6.3399,-6.334,-6.3418,-6.3204,-6.2598,-6.293,-6.295,-6.2598,-6.2384,-6.2306,-6.2208,-6.2071,-6.1642,-6.1037,-6.0783,-6.0666,-6.051,-6.0178,-6.0139,-6.0568,-6.0022,-5.9729,-5.9553,-5.9417,-5.9124,-5.9124,-5.887,-5.8499,-5.7843,-5.7382,-5.6777,-5.6348,-5.6108,-5.6056,-5.6269,-5.6476,-5.6586,-5.5845,-5.5209,-5.4305,-5.344,-5.2877,-5.268,-5.2534,-5.2592,-5.2461,-5.2255,-5.2006,-5.1897,-5.1353,-5.1152,-5.1141,-5.1141,-5.11,-5.107,-5.0875,-5.0584,-5.037,-5.0398,-5.0495,-5.0693,-5.0778,-5.0685,-5.0538,-5.0585,-5.0587,-5.0466,-5.0374,-5.0325,-5.0236,-5.0076,-5.0012,-4.9943,-6.6358,-6.6378,-6.6396,-6.6396,-6.6376,-6.6392,-6.6409,-6.6426,-6.6458,-6.6474,-6.6493,-6.6508,-6.6508,-6.6508,-6.6508,-6.6508,-6.6776,-6.7413,-6.8186,-6.8759,-6.9071,-6.942,-6.9782,-6.9361,-6.9103,-6.8538,-6.8845,-6.8154,-6.718,-6.6844,-6.6785,-6.6813,-6.6812,-6.6796,-6.6777,-6.6789,-6.6805,-6.6785,-6.6663,-6.6307,-6.5722,-6.5312,-6.4765,-6.4511,-6.4648,-6.4648,-6.3848,-6.3965,-6.3945,-6.3887,-6.3887,-6.3945,-6.3887,-6.3223,-6.2911,-6.2501,-6.2071,-6.1564,-6.1447,-6.1193,-6.1076,-6.131,-6.1213,-6.1349,-6.0988,-6.0466,-5.9885,-5.8948,-5.9031,-5.9081,-5.888,-5.8551,-5.8357,-5.8219,-5.797,-5.8025,-5.8143,-5.8098,-5.8165,-5.7889,-5.7157,-5.5783,-5.4616,-5.4108,-5.3658,-5.3506,-5.3339,-5.3197,-5.2884,-5.2506,-5.1846,-5.1208,-5.0998,-5.1011,-5.1011,-5.0998,-5.0985,-5.0959,-5.0823,-5.0668,-5.0655,-5.0674,-5.0695,-5.0735,-5.0677,-5.0606,-5.0548,-5.0486,-5.0462,-5.0396,-5.0325,-5.0302,-5.0278,-5.0221,-5.0116,-6.6448,-6.6396,-6.6411,-6.6411,-6.6409,-6.6442,-6.6458,-6.6458,-6.6493,-6.6508,-6.6508,-6.6508,-6.6508,-6.6508,-6.6508,-6.6528,-6.6757,-6.7489,-6.8335,-6.903,-6.9252,-6.9465,-6.9694,-6.983,-6.9704,-6.9023,-6.8978,-6.872,-6.7811,-6.7519,-6.748,-6.7362,-6.7045,-6.6803,-6.6826,-6.6809,-6.68,-6.68,-6.6756,-6.6619,-6.6249,-6.5839,-6.5448,-6.5077,-6.5448,-6.5116,-6.4687,-6.4843,-6.4707,-6.4472,-6.4297,-6.4297,-6.4238,-6.3945,-6.3731,-6.3691,-6.3299,-6.2577,-6.1749,-6.1735,-6.1749,-6.1657,-6.1676,-6.1588,-6.1511,-6.1205,-6.0793,-6.029,-6.0219,-6.0154,-5.9976,-5.9689,-5.9503,-5.9433,-5.9409,-5.9351,-5.9417,-5.984,-5.9813,-5.9491,-5.8997,-5.7537,-5.6228,-5.5603,-5.4834,-5.3959,-5.3848,-5.3778,-5.322,-5.2524,-5.1747,-5.087,-5.0797,-5.0855,-5.087,-5.087,-5.0894,-5.0879,-5.0855,-5.0724,-5.0732,-5.0739,-5.0711,-5.0605,-5.0528,-5.0485,-5.0462,-5.0418,-5.0374,-5.0348,-5.0302,-5.0278,-5.0236,-5.0236,-5.013,-6.6477,-6.6428,-6.6426,-6.6422,-6.6422,-6.6474,-6.6508,-6.6508,-6.6508,-6.6508,-6.6508,-6.6508,-6.6508,-6.6504,-6.6514,-6.6575,-6.6682,-6.7726,-6.8519,-6.9068,-6.9464,-6.9794,-7.0174,-7.0468,-7.0106,-6.904,-7.0026,-6.987,-6.9377,-6.883,-6.8503,-6.7849,-6.741,-6.7034,-6.6917,-6.7049,-6.7166,-6.6795,-6.6795,-6.6776,-6.6639,-6.6209,-6.6014,-6.5897,-6.5839,-6.5604,-6.5155,-6.5487,-6.5468,-6.5214,-6.5097,-6.5175,-6.5097,-6.4843,-6.4609,-6.4442,-6.4065,-6.3339,-6.262,-6.2328,-6.2165,-6.2134,-6.2134,-6.2376,-6.2231,-6.1926,-6.1818,-6.1811,-6.1798,-6.1692,-6.1396,-6.0973,-6.0682,-6.0461,-6.0285,-6.0207,-6.015,-6.0365,-6.0421,-6.0049,-5.9642,-5.9297,-5.8122,-5.7292,-5.6194,-5.4765,-5.434,-5.434,-5.3685,-5.2857,-5.2281,-5.1526,-5.1125,-5.1163,-5.1086,-5.1045,-5.0966,-5.0943,-5.0924,-5.0947,-5.1048,-5.076,-5.0508,-5.0442,-5.0489,-5.0264,-5.0197,-5.0259,-5.0302,-5.0302,-5.0278,-5.0212,-5.0188,-5.0182,-5.0101,-6.6508,-6.6493,-6.6489,-6.6508,-6.6493,-6.6489,-6.6508,-6.6508,-6.6508,-6.6508,-6.6508,-6.6508,-6.6489,-6.6514,-6.6587,-6.6643,-6.6741,-6.8366,-6.9001,-6.9492,-7.0052,-7.0605,-7.0896,-7.0904,-7.0924,-7.1226,-7.1206,-7.1265,-7.1304,-7.0055,-6.8845,-6.7283,-6.7673,-6.74,-6.7205,-6.7264,-6.7244,-6.6932,-6.6795,-6.6795,-6.6795,-6.6658,-6.6619,-6.6639,-6.6678,-6.6678,-6.66,-6.658,-6.6522,-6.6288,-6.6249,-6.6268,-6.6073,-6.573,-6.5412,-6.5198,-6.4695,-6.4109,-6.3686,-6.3379,-6.3546,-6.3604,-6.3507,-6.3326,-6.3182,-6.3463,-6.3485,-6.3136,-6.2911,-6.2698,-6.2507,-6.2362,-6.1853,-6.1497,-6.128,-6.1231,-6.1016,-6.0613,-6.0629,-6.0422,-6.0142,-5.9766,-5.9388,-5.8414,-5.752,-5.6143,-5.5203,-5.5143,-5.4326,-5.3552,-5.32,-5.259,-5.1901,-5.1656,-5.1499,-5.1453,-5.1446,-5.1429,-5.1429,-5.1461,-5.1545,-5.1155,-5.0971,-5.0826,-5.0947,-5.0443,-5.0126,-5.0506,-5.0672,-5.0403,-5.0269,-5.0266,-5.0212,-5.0213,-5.0021,-6.6508,-6.6508,-6.6508,-6.6508,-6.6508,-6.6508,-6.6508,-6.6508,-6.6508,-6.6508,-6.6489,-6.6489,-6.6528,-6.6567,-6.6633,-6.6959,-6.7468,-6.8034,-6.908,-6.9686,-7.0145,-7.0432,-7.0718,-7.1006,-7.0875,-7.1206,-7.1245,-7.1187,-7.0992,-7.0562,-6.9684,-6.8649,-6.8337,-6.7517,-6.7283,-6.7185,-6.7049,-6.6971,-6.6795,-6.6795,-6.6795,-6.6795,-6.6795,-6.6795,-6.6795,-6.6795,-6.6776,-6.6795,-6.6795,-6.6795,-6.6795,-6.6795,-6.679,-6.633,-6.6135,-6.5978,-6.5419,-6.5141,-6.4817,-6.4348,-6.3817,-6.3802,-6.3735,-6.3745,-6.3862,-6.363,-6.3508,-6.3384,-6.3531,-6.3358,-6.3098,-6.3053,-6.2867,-6.249,-6.2305,-6.2264,-6.1885,-6.1371,-6.1037,-6.0914,-6.0589,-6.0223,-5.9813,-5.9366,-5.8482,-5.7558,-5.6677,-5.5815,-5.4995,-5.4314,-5.397,-5.3473,-5.2766,-5.2422,-5.2308,-5.2136,-5.1945,-5.1964,-5.1964,-5.1959,-5.203,-5.2251,-5.2045,-5.1782,-5.1332,-5.0984,-5.0847,-5.1092,-5.1045,-5.0732,-5.0525,-5.0401,-5.0353,-5.0314,-5.0221,-6.6508,-6.6508,-6.6508,-6.6508,-6.6508,-6.6508,-6.6508,-6.6508,-6.6508,-6.6519,-6.6528,-6.6522,-6.656,-6.6663,-6.6993,-6.7303,-6.8026,-6.869,-6.9615,-7.0089,-7.0236,-7.0367,-7.0738,-7.0914,-7.0894,-7.0953,-7.107,-7.1167,-7.1245,-7.0484,-7.0094,-6.9703,-6.9157,-6.8415,-6.7361,-6.6912,-6.6815,-6.6795,-6.6795,-6.6795,-6.6795,-6.6795,-6.6795,-6.6795,-6.6795,-6.6795,-6.6795,-6.6795,-6.6795,-6.6795,-6.6795,-6.6795,-6.6759,-6.6686,-6.6575,-6.6435,-6.6275,-6.6102,-6.5743,-6.523,-6.4443,-6.46,-6.4521,-6.4419,-6.4241,-6.4147,-6.4369,-6.4268,-6.418,-6.3982,-6.3841,-6.3995,-6.3623,-6.3188,-6.3326,-6.3244,-6.2519,-6.1946,-6.165,-6.1421,-6.0943,-6.037,-6.0236,-5.9797,-5.9022,-5.8207,-5.7461,-5.6607,-5.5753,-5.5193,-5.483,-5.4237,-5.3531,-5.332,-5.3187,-5.2805,-5.2537,-5.2862,-5.278,-5.2457,-5.2514,-5.2705,-5.2087,-5.0919,-5.0705,-5.1204,-5.1186,-5.0847,-5.0922,-5.0992,-5.0909,-5.0867,-5.0729,-5.0743,-5.0787,-6.6508,-6.6508,-6.6508,-6.6508,-6.6508,-6.6508,-6.6508,-6.6489,-6.6504,-6.6536,-6.6583,-6.6604,-6.665,-6.6873,-6.7409,-6.7851,-6.8338,-6.9609,-7.0568,-7.0543,-7.0757,-7.1187,-7.1343,-7.1343,-7.1245,-7.1812,-7.1812,-7.1733,-7.1851,-7.1558,-7.1226,-7.0777,-7.025,-6.9547,-6.8122,-6.7224,-6.6854,-6.6834,-6.6873,-6.6795,-6.6795,-6.6795,-6.6795,-6.6795,-6.6795,-6.6795,-6.6795,-6.6795,-6.6795,-6.6795,-6.6795,-6.6795,-6.679,-6.6653,-6.6513,-6.6339,-6.6184,-6.6039,-6.589,-6.5813,-6.5649,-6.55,-6.5326,-6.5414,-6.5659,-6.5686,-6.5493,-6.5186,-6.5416,-6.5199,-6.5154,-6.5025,-6.4404,-6.4112,-6.4249,-6.4116,-6.3427,-6.2787,-6.251,-6.2185,-6.1211,-6.0408,-6.0389,-6.0141,-5.9415,-5.8689,-5.8096,-5.7371,-5.6587,-5.6014,-5.5632,-5.5365,-5.4715,-5.4409,-5.418,-5.3416,-5.3168,-5.355,-5.3684,-5.34,-5.2948,-5.2769,-5.1792,-5.0301,-5.0441,-5.1316,-5.0878,-5.0319,-5.1024,-5.1767,-5.1546,-5.1454,-5.1287,-5.1304,-5.1482,-6.6508,-6.6508,-6.6508,-6.6508,-6.6508,-6.6508,-6.6508,-6.6504,-6.6549,-6.6583,-6.6605,-6.6658,-6.6702,-6.7006,-6.7577,-6.8083,-6.8496,-6.9839,-7.0718,-7.0797,-7.1226,-7.1636,-7.1812,-7.1733,-7.1694,-7.1909,-7.1987,-7.1987,-7.1968,-7.1987,-7.1909,-7.1538,-7.0953,-7.0094,-6.902,-6.8161,-6.7693,-6.7537,-6.7185,-6.6795,-6.6815,-6.6795,-6.6795,-6.6795,-6.6795,-6.6795,-6.6795,-6.6795,-6.6834,-6.6873,-6.6893,-6.6834,-6.6792,-6.6663,-6.6386,-6.6251,-6.6148,-6.5962,-6.5903,-6.5865,-6.5859,-6.5936,-6.5897,-6.5897,-6.5897,-6.5897,-6.5878,-6.5897,-6.5917,-6.5635,-6.5594,-6.5556,-6.5175,-6.5034,-6.5073,-6.5025,-6.4545,-6.3934,-6.3465,-6.3083,-6.2347,-6.1115,-6.0637,-6.0618,-6.0007,-5.951,-5.8975,-5.8288,-5.7523,-5.6874,-5.6396,-5.6454,-5.6129,-5.5728,-5.5269,-5.4791,-5.4356,-5.458,-5.4658,-5.4511,-5.3974,-5.3289,-5.2779,-5.1959,-5.166,-5.1411,-5.1157,-5.1194,-5.2093,-5.2625,-5.2333,-5.2056,-5.1869,-5.2121,-5.2592,-6.6508,-6.6508,-6.6508,-6.6508,-6.6508,-6.6508,-6.65,-6.6549,-6.6605,-6.6639,-6.6675,-6.6731,-6.697,-6.7342,-6.7767,-6.8642,-6.904,-7.0074,-7.107,-7.1148,-7.1675,-7.1929,-7.1987,-7.1987,-7.1929,-7.1987,-7.1987,-7.1987,-7.1987,-7.1987,-7.1948,-7.1792,-7.1421,-7.0992,-7.0133,-6.9352,-6.8357,-6.8064,-6.7537,-6.7146,-6.6951,-6.6795,-6.6795,-6.6795,-6.6795,-6.6795,-6.6795,-6.6834,-6.6951,-6.7068,-6.7049,-6.6999,-6.6951,-6.6669,-6.6349,-6.6179,-6.6355,-6.6275,-6.6359,-6.6801,-6.6936,-6.6936,-6.632,-6.607,-6.6128,-6.6064,-6.6147,-6.6147,-6.6045,-6.5839,-6.5786,-6.5786,-6.5723,-6.5561,-6.5456,-6.5359,-6.5157,-6.4496,-6.3866,-6.3551,-6.3131,-6.1936,-6.1019,-6.0886,-6.0676,-6.0274,-5.9873,-5.9166,-5.8479,-5.7867,-5.7332,-5.7313,-5.7256,-5.6855,-5.6625,-5.6492,-5.6082,-5.5708,-5.5555,-5.5446,-5.4862,-5.4181,-5.3885,-5.3328,-5.2104,-5.1323,-5.1747,-5.2146,-5.2582,-5.2904,-5.2996,-5.2716,-5.2454,-5.2729,-5.317,-6.6508,-6.6508,-6.6508,-6.6508,-6.6489,-6.65,-6.6543,-6.6605,-6.6655,-6.6742,-6.6797,-6.6796,-6.7105,-6.782,-6.8049,-6.8811,-6.9996,-7.0445,-7.107,-7.1616,-7.187,-7.1948,-7.1987,-7.1987,-7.1987,-7.1987,-7.1987,-7.1987,-7.1987,-7.1987,-7.1987,-7.1987,-7.1851,-7.1519,-7.0933,-7.0133,-6.9079,-6.8532,-6.7771,-6.7303,-6.6912,-6.6795,-6.6795,-6.6795,-6.6795,-6.6912,-6.6971,-6.7049,-6.7478,-6.7576,-6.742,-6.752,-6.7346,-6.6867,-6.6422,-6.6357,-6.6761,-6.6885,-6.7198,-6.7737,-6.7968,-6.773,-6.691,-6.6718,-6.6737,-6.6665,-6.6723,-6.673,-6.6653,-6.6154,-6.5801,-6.5778,-6.5743,-6.5619,-6.5513,-6.5378,-6.5291,-6.4764,-6.4095,-6.3656,-6.335,-6.2567,-6.186,-6.1554,-6.1306,-6.1077,-6.0656,-6.0122,-5.9453,-5.8918,-5.844,-5.823,-5.8116,-5.784,-5.7687,-5.7434,-5.6801,-5.6078,-5.6304,-5.6206,-5.5585,-5.4907,-5.4309,-5.3357,-5.1716,-5.1191,-5.1695,-5.2136,-5.2514,-5.2839,-5.317,-5.3133,-5.2803,-5.2894,-5.3206,-6.6508,-6.6508,-6.6508,-6.6508,-6.6519,-6.6615,-6.6654,-6.6681,-6.6745,-6.6795,-6.6815,-6.6808,-6.7047,-6.7205,-6.781,-6.8376,-6.9176,-7.0016,-7.0679,-7.1226,-7.1753,-7.1929,-7.1987,-7.1987,-7.1987,-7.1987,-7.1987,-7.1987,-7.1987,-7.1987,-7.1987,-7.1987,-7.1987,-7.1694,-7.1148,-7.0543,-6.9723,-6.8884,-6.7947,-6.74,-6.701,-6.6873,-6.6912,-6.699,-6.6951,-6.7166,-6.7595,-6.7712,-6.82,-6.8683,-6.8161,-6.8092,-6.8582,-6.73,-6.6348,-6.6791,-6.7045,-6.7236,-6.7829,-6.8147,-6.8368,-6.8493,-6.7812,-6.7763,-6.7782,-6.7686,-6.7543,-6.7494,-6.7341,-6.691,-6.6479,-6.6318,-6.6068,-6.579,-6.5637,-6.5416,-6.5318,-6.5127,-6.4496,-6.4363,-6.4038,-6.335,-6.2643,-6.2108,-6.1879,-6.1745,-6.1459,-6.0981,-6.0389,-5.9816,-5.9396,-5.9147,-5.8739,-5.8397,-5.8109,-5.7818,-5.7111,-5.6554,-5.6723,-5.6725,-5.6181,-5.5502,-5.4675,-5.3603,-5.2215,-5.1738,-5.1797,-5.2234,-5.2766,-5.2931,-5.3206,-5.3206,-5.3206,-5.3243,-5.3225,-6.5984,-6.5984,-6.5984,-6.6211,-6.6565,-6.6692,-6.6728,-6.6756,-6.6775,-6.6812,-6.6814,-6.6813,-6.6971,-6.7361,-6.7576,-6.7986,-6.8845,-6.9645,-7.0328,-7.0972,-7.1616,-7.187,-7.1987,-7.1987,-7.1987,-7.1987,-7.1987,-7.1987,-7.1987,-7.1987,-7.1987,-7.1987,-7.1987,-7.146,-7.0836,-7.027,-6.986,-6.9059,-6.8298,-6.7712,-6.7478,-6.7244,-6.7185,-6.7595,-6.7537,-6.783,-6.8474,-6.861,-6.9048,-6.9536,-6.8956,-6.8807,-6.9109,-6.7984,-6.717,-6.7583,-6.7946,-6.8234,-6.8714,-6.9126,-6.9155,-6.9106,-6.9029,-6.9183,-6.8799,-6.8531,-6.8484,-6.8388,-6.8129,-6.7812,-6.737,-6.6927,-6.6468,-6.6017,-6.573,-6.5413,-6.5394,-6.5394,-6.528,-6.5203,-6.4726,-6.4038,-6.3408,-6.2873,-6.249,-6.2395,-6.2299,-6.2051,-6.1325,-6.0561,-6.0179,-5.9892,-5.9369,-5.8878,-5.859,-5.8283,-5.7694,-5.7173,-5.6964,-5.6874,-5.6551,-5.6106,-5.5397,-5.4259,-5.2931,-5.2546,-5.216,-5.2656,-5.3133,-5.3206,-5.328,-5.339,-5.339,-5.3353,-5.3316,-6.5105,-6.5105,-6.5197,-6.5825,-6.6644,-6.6773,-6.6812,-6.68,-6.68,-6.68,-6.68,-6.68,-6.7166,-6.7439,-6.7264,-6.7849,-6.863,-6.9391,-7.0094,-7.0718,-7.1597,-7.1987,-7.1987,-7.1987,-7.1987,-7.1987,-7.1987,-7.1987,-7.1987,-7.1987,-7.1987,-7.1987,-7.1987,-7.1538,-7.0738,-7.0191,-6.9879,-6.9625,-6.8942,-6.8396,-6.8591,-6.8181,-6.7693,-6.8845,-6.8767,-6.8591,-6.9235,-6.9595,-6.9783,-6.9957,-6.9811,-6.9488,-6.9053,-6.893,-6.8429,-6.8281,-6.8569,-6.8827,-6.9087,-6.9432,-6.9738,-6.9957,-7.0348,-6.9934,-6.9303,-6.9188,-6.915,-6.9218,-6.9016,-6.859,-6.8177,-6.7489,-6.6915,-6.6323,-6.5845,-6.5547,-6.5394,-6.5394,-6.5375,-6.5299,-6.505,-6.4439,-6.4305,-6.377,-6.3522,-6.3274,-6.2815,-6.2682,-6.2375,-6.1497,-6.0962,-6.0619,-5.9851,-5.9343,-5.9099,-5.8761,-5.8333,-5.7891,-5.7468,-5.695,-5.6526,-5.629,-5.6106,-5.4932,-5.3739,-5.2986,-5.2656,-5.3078,-5.328,-5.3206,-5.3316,-5.3573,-5.361,-5.3567,-5.3622,-6.4286,-6.4352,-6.5054,-6.5897,-6.6736,-6.6777,-6.6811,-6.68,-6.6795,-6.6795,-6.6795,-6.6815,-6.6893,-6.7088,-6.6971,-6.7478,-6.8239,-6.9176,-6.9899,-7.0679,-7.1538,-7.1987,-7.1987,-7.1987,-7.1987,-7.1987,-7.1987,-7.1987,-7.1987,-7.1987,-7.1987,-7.1987,-7.1968,-7.1558,-7.0757,-7.027,-7.023,-7.0152,-6.9606,-6.923,-6.936,-6.9288,-6.9118,-6.9411,-6.9196,-6.9517,-7.0011,-7.021,-7.0619,-7.0952,-7.0192,-6.9498,-6.876,-6.8987,-6.9117,-6.9068,-6.8824,-6.9035,-6.9226,-6.9303,-6.9195,-6.8927,-6.8915,-6.9094,-6.9247,-6.9591,-6.9821,-6.9916,-6.9821,-6.9355,-6.8858,-6.8088,-6.7355,-6.6667,-6.5941,-6.5643,-6.5394,-6.5394,-6.5394,-6.5299,-6.5165,-6.505,-6.4936,-6.4783,-6.4573,-6.4019,-6.3236,-6.2939,-6.3161,-6.2673,-6.183,-6.1286,-6.026,-5.973,-5.9585,-5.9288,-5.8851,-5.8227,-5.7703,-5.7122,-5.6583,-5.6308,-5.6124,-5.55,-5.462,-5.394,-5.3427,-5.3298,-5.3408,-5.3427,-5.3463,-5.3739,-5.3928,-5.3983,-5.4074,-6.3419,-6.3555,-6.4477,-6.5404,-6.6191,-6.6637,-6.68,-6.68,-6.6795,-6.6795,-6.6795,-6.6795,-6.6795,-6.6795,-6.6795,-6.6951,-6.7771,-6.8864,-6.9489,-7.0289,-7.1245,-7.187,-7.1987,-7.187,-7.1987,-7.1987,-7.1987,-7.1987,-7.1929,-7.1987,-7.1987,-7.1987,-7.1948,-7.1616,-7.0855,-7.0718,-7.0757,-7.066,-7.0166,-7.0109,-7.0095,-6.9875,-7.003,-7.0088,-7.0231,-7.045,-7.0697,-7.0856,-7.0969,-7.1123,-7.0535,-7.0155,-6.9756,-6.9817,-6.99,-6.9762,-6.9546,-6.9285,-6.94,-6.919,-6.8776,-6.8699,-6.891,-6.9674,-6.9788,-7.0094,-7.0132,-7.0209,-7.0209,-6.9851,-6.9374,-6.8719,-6.7947,-6.7271,-6.6208,-6.549,-6.5394,-6.5394,-6.5394,-6.5356,-6.528,-6.5261,-6.5184,-6.5146,-6.4993,-6.4974,-6.4133,-6.3721,-6.3853,-6.3535,-6.2762,-6.1978,-6.0972,-6.0416,-6.0334,-5.9948,-5.9409,-5.8741,-5.8052,-5.7997,-5.7758,-5.6804,-5.6106,-5.6033,-5.5721,-5.506,-5.4601,-5.4271,-5.3959,-5.3977,-5.394,-5.3983,-5.4173,-5.4452,-5.4825,-6.2616,-6.2843,-6.3686,-6.453,-6.5389,-6.611,-6.6502,-6.66,-6.6619,-6.6697,-6.6795,-6.6795,-6.6795,-6.6795,-6.6795,-6.6795,-6.7264,-6.8415,-6.9059,-6.9625,-7.0797,-7.105,-7.1265,-7.148,-7.1363,-7.146,-7.1577,-7.1636,-7.1675,-7.1851,-7.1987,-7.1987,-7.1851,-7.1636,-7.1089,-7.0875,-7.0992,-7.1,-7.0889,-7.1068,-7.0814,-7.0414,-7.0754,-7.099,-7.1065,-7.0895,-7.1218,-7.1298,-7.11,-7.0918,-7.0733,-7.0479,-7.0352,-7.0298,-7.0305,-7.0184,-6.9897,-6.9846,-6.9941,-6.9616,-6.9636,-6.9807,-7.0113,-7.017,-7.0151,-7.0228,-7.0266,-7.0419,-7.0419,-7.0266,-6.9807,-6.9082,-6.8311,-6.7787,-6.6629,-6.5624,-6.5605,-6.5509,-6.5433,-6.5413,-6.5394,-6.5394,-6.5394,-6.5375,-6.5295,-6.5314,-6.5201,-6.5019,-6.4623,-6.3879,-6.3124,-6.2459,-6.1655,-6.1273,-6.0939,-6.0496,-5.9871,-5.9475,-5.8969,-5.9061,-5.8822,-5.7648,-5.7079,-5.7299,-5.6895,-5.6088,-5.5647,-5.5317,-5.5023,-5.462,-5.4614,-5.4638,-5.4675,-5.5053,-5.5713,-6.2161,-6.2906,-6.3135,-6.3744,-6.4505,-6.475,-6.5175,-6.5761,-6.5839,-6.6151,-6.6639,-6.6795,-6.6795,-6.6795,-6.6795,-6.6815,-6.699,-6.8044,-6.8279,-6.861,-6.9762,-6.9938,-7.0074,-7.0426,-7.0016,-7.027,-7.0738,-7.0972,-7.1318,-7.1733,-7.1987,-7.1987,-7.1987,-7.1909,-7.1831,-7.1675,-7.1572,-7.1507,-7.137,-7.1427,-7.142,-7.1193,-7.1218,-7.1276,-7.1178,-7.1141,-7.1184,-7.0996,-7.0893,-7.0798,-7.0603,-7.0496,-7.0509,-7.0566,-7.0623,-7.0623,-7.0285,-7.0075,-7.0037,-6.9636,-6.9578,-6.9139,-6.9253,-6.933,-6.9444,-6.9712,-6.9922,-7.0381,-7.0419,-7.0419,-6.9922,-6.8871,-6.8081,-6.8062,-6.7393,-6.6693,-6.635,-6.5891,-6.5528,-6.544,-6.5352,-6.5333,-6.5333,-6.5169,-6.4898,-6.4845,-6.463,-6.4445,-6.4292,-6.3884,-6.3425,-6.2847,-6.2161,-6.1585,-6.1037,-6.0803,-6.0338,-6.0015,-5.9887,-5.9942,-5.9483,-5.8309,-5.7941,-5.8309,-5.7776,-5.6932,-5.6583,-5.6565,-5.5739,-5.5335,-5.5362,-5.5325,-5.5342,-5.5566,-5.6226]}]]